[[{"header":{"parameterUnit":"m.s-1","parameterCategory":1,"la1":30.6,"la2":28.766,"lo1":-90.7593,"lo2":-88.6598,"dy":0.0162,"dx":0.0183,"nx":116,"ny":114,"refTime":"2023-08-17T06:00:00:Z","depth":0,"parameterNumber":2,"parameterNumberName":"U-component_of_WINDS"},"data":[0.0,0.0,0.0,0.0,0.0,0.0,0.0,0.0,0.0,0.0,0.0,0.0,0.0,0.0,0.0,0.0,0.0,0.0,0.0,0.0,0.0,0.0,0.0,0.0,0.0,0.0,0.0,0.0,0.0,0.0,0.0,0.0,0.0,0.0,0.0,0.0,0.0,0.0,0.0,0.0,0.0,0.0,0.0,0.0,0.0,0.0,0.0,0.0,0.0,0.0,0.0,0.0,0.0,0.0,0.0,0.0,0.0,0.0,0.0,0.0,0.0,0.0,0.0,0.0,0.0,0.0,0.0,0.0,0.0,0.0,0.0,0.0,0.0,0.0,0.0,0.0,0.0,0.0,0.0,0.0,0.0,0.0,0.0,0.0,0.0,0.0,0.0,0.0,0.0,0.0,0.0,0.0,0.0,0.0,0.0,0.0,0.0,0.0,0.0,0.0,0.0,0.0,0.0,0.0,0.0,0.0,0.0,0.0,0.0,0.0,0.0,0.0,0.0,0.0,0.0,0.0,0.0,0.0,0.0,0.0,0.0,0.0,0.0,0.0,0.0,0.0,0.0,0.0,0.0,0.0,0.0,0.0,0.0,0.0,0.0,0.0,0.0,0.0,0.0,0.0,0.0,0.0,0.0,0.0,0.0,0.0,0.0,0.0,0.0,0.0,0.0,0.0,0.0,0.0,0.0,0.0,0.0,0.0,0.0,0.0,0.0,0.0,0.0,0.0,0.0,0.0,0.0,0.0,0.0,0.0,0.0,0.0,0.0,0.0,0.0,0.0,0.0,0.0,0.0,0.0,0.0,0.0,0.0,0.0,0.0,0.0,0.0,0.0,0.0,0.0,0.0,0.0,0.0,0.0,0.0,0.0,0.0,0.0,0.0,0.0,0.0,0.0,0.0,0.0,0.0,0.0,0.0,0.0,0.0,0.0,0.0,0.0,0.0,0.0,0.0,0.0,0.0,0.0,0.0,0.0,0.0,0.0,0.0,0.0,0.0,0.0,0.0,0.0,0.0,0.0,0.0,0.0,0.0,0.0,0.0,0.0,0.0,0.0,0.0,0.0,0.0,0.0,0.0,0.0,0.0,0.0,0.0,0.0,0.0,0.0,0.0,0.0,0.0,0.0,0.0,0.0,0.0,0.0,0.0,0.0,0.0,0.0,0.0,0.0,0.0,0.0,0.0,0.0,0.0,0.0,0.0,0.0,0.0,0.0,0.0,0.0,0.0,0.0,0.0,0.0,0.0,0.0,0.0,0.0,0.0,0.0,0.0,0.0,0.0,0.0,0.0,0.0,0.0,0.0,0.0,0.0,0.0,0.0,0.0,0.0,0.0,0.0,0.0,0.0,0.0,0.0,0.0,0.0,0.0,0.0,0.0,0.0,0.0,0.0,0.0,0.0,0.0,0.0,0.0,0.0,0.0,0.0,0.0,0.0,0.0,0.0,0.0,0.0,0.0,0.0,0.0,0.0,0.0,0.0,0.0,0.0,0.0,0.0,0.0,0.0,0.0,0.0,0.0,0.0,0.0,0.0,0.0,0.0,0.0,0.0,0.0,0.0,0.0,0.0,0.0,0.0,0.0,0.0,0.0,0.0,0.0,0.0,0.0,0.0,0.0,0.0,0.0,0.0,0.0,0.0,0.0,0.0,0.0,0.0,0.0,0.0,0.0,0.0,0.0,0.0,0.0,0.0,0.0,0.0,0.0,0.0,0.0,0.0,0.0,0.0,0.0,0.0,0.0,0.0,0.0,0.0,0.0,0.0,0.0,0.0,0.0,0.0,0.0,0.0,0.0,0.0,0.0,0.0,0.0,0.0,0.0,0.0,0.0,0.0,0.0,0.0,0.0,0.0,0.0,0.0,0.0,0.0,0.0,0.0,0.0,0.0,0.0,0.0,0.0,0.0,0.0,0.0,0.0,0.0,0.0,0.0,0.0,0.0,0.0,0.0,0.0,0.0,0.0,0.0,0.0,0.0,0.0,0.0,0.0,0.0,0.0,0.0,0.0,0.0,0.0,0.0,0.0,0.0,0.0,0.0,0.0,0.0,0.0,0.0,0.0,0.0,0.0,0.0,0.0,0.0,0.0,0.0,0.0,0.0,0.0,0.0,0.0,0.0,0.0,0.0,0.0,0.0,0.0,0.0,0.0,0.0,0.0,0.0,0.0,0.0,0.0,0.0,0.0,0.0,0.0,0.0,0.0,0.0,0.0,0.0,0.0,0.0,0.0,0.0,0.0,0.0,0.0,0.0,0.0,0.0,0.0,0.0,0.0,0.0,0.0,0.0,0.0,0.0,0.0,0.0,0.0,0.0,0.0,0.0,0.0,0.0,0.0,0.0,0.0,0.0,0.0,0.0,0.0,0.0,0.0,0.0,0.0,0.0,0.0,0.0,0.0,0.0,0.0,0.0,0.0,0.0,0.0,0.0,0.0,0.0,0.0,0.0,0.0,0.0,0.0,0.0,0.0,0.0,0.0,0.0,0.0,0.0,0.0,0.0,0.0,0.0,0.0,0.0,0.0,0.0,0.0,0.0,0.0,0.0,0.0,0.0,0.0,0.0,0.0,0.0,0.0,0.0,0.0,0.0,0.0,0.0,0.0,0.0,0.0,0.0,0.0,0.0,0.0,0.0,0.0,0.0,0.0,0.0,0.0,0.0,0.0,0.0,0.0,0.0,0.0,0.0,0.0,0.0,0.0,0.0,0.0,0.0,0.0,0.0,0.0,0.0,0.0,0.0,0.0,0.0,0.0,0.0,0.0,0.0,0.0,0.0,0.0,0.0,0.0,0.0,0.0,0.0,0.0,0.0,0.0,0.0,0.0,0.0,0.0,0.0,0.0,0.0,0.0,0.0,0.0,0.0,0.0,0.0,0.0,0.0,0.0,0.0,0.0,0.0,0.0,0.0,0.0,0.0,0.0,0.0,0.0,0.0,0.0,0.0,0.0,0.0,0.0,0.0,0.0,0.0,0.0,0.0,0.0,0.0,0.0,0.0,0.0,0.0,0.0,0.0,0.0,0.0,0.0,0.0,0.0,0.0,0.0,0.0,0.0,0.0,0.0,0.0,0.0,0.0,0.0,0.0,0.0,0.0,0.0,0.0,0.0,0.0,0.0,0.0,0.0,0.0,0.0,0.0,0.0,0.0,0.0,0.0,0.0,0.0,0.0,0.0,0.0,0.0,0.0,0.0,0.0,0.0,0.0,0.0,0.0,0.0,0.0,0.0,0.0,0.0,0.0,0.0,0.0,0.0,0.0,0.0,0.0,0.0,0.0,0.0,0.0,0.0,0.0,0.0,0.0,0.0,0.0,0.0,0.0,0.0,0.0,0.0,0.0,0.0,0.0,0.0,0.0,0.0,0.0,0.0,0.0,0.0,0.0,0.0,0.0,0.0,0.0,0.0,0.0,0.0,0.0,0.0,0.0,0.0,0.0,0.0,0.0,0.0,0.0,0.0,0.0,0.0,0.0,0.0,0.0,0.0,0.0,0.0,0.0,0.0,0.0,0.0,0.0,0.0,0.0,0.0,0.0,0.0,0.0,0.0,0.0,0.0,0.0,0.0,0.0,0.0,0.0,0.0,0.0,0.0,0.0,0.0,0.0,0.0,0.0,0.0,0.0,0.0,0.0,0.0,0.0,0.0,0.0,0.0,0.0,0.0,0.0,0.0,0.0,0.0,0.0,0.0,0.0,0.0,0.0,0.0,0.0,0.0,0.0,0.0,0.0,0.0,0.0,0.0,0.0,0.0,0.0,0.0,0.0,0.0,0.0,0.0,0.0,0.0,0.0,0.0,0.0,0.0,0.0,0.0,0.0,0.0,0.0,0.0,0.0,0.0,0.0,0.0,0.0,0.0,0.0,0.0,0.0,0.0,0.0,0.0,0.0,0.0,0.0,0.0,0.0,0.0,0.0,0.0,0.0,0.0,0.0,0.0,0.0,0.0,0.0,0.0,0.0,0.0,0.0,0.0,0.0,0.0,0.0,0.0,0.0,0.0,0.0,0.0,0.0,0.0,0.0,0.0,0.0,0.0,0.0,0.0,0.0,0.0,0.0,0.0,0.0,0.0,0.0,0.0,0.0,0.0,0.0,0.0,0.0,0.0,0.0,0.0,0.0,0.0,0.0,0.0,0.0,0.0,0.0,0.0,0.0,0.0,0.0,0.0,0.0,0.0,0.0,0.0,0.0,0.0,0.0,0.0,0.0,0.0,0.0,0.0,0.0,0.0,0.0,0.0,0.0,0.0,0.0,0.0,0.0,0.0,0.0,0.0,0.0,0.0,0.0,0.0,0.0,0.0,0.0,0.0,0.0,0.0,0.0,0.0,0.0,0.0,0.0,0.0,0.0,0.0,0.0,0.0,0.0,0.0,0.0,0.0,0.0,0.0,0.0,0.0,0.0,0.0,0.0,0.0,0.0,0.0,0.0,0.0,0.0,0.0,0.0,0.0,0.0,0.0,0.0,0.0,0.0,0.0,0.0,0.0,0.0,0.0,0.0,0.0,0.0,0.0,0.0,0.0,0.0,0.0,0.0,0.0,0.0,0.0,0.0,0.0,0.0,0.0,0.0,0.0,0.0,0.0,0.0,0.0,0.0,0.0,0.0,0.0,0.0,0.0,0.0,0.0,0.0,0.0,0.0,0.0,0.0,0.0,0.0,0.0,0.0,0.0,0.0,0.0,0.0,0.0,0.0,0.0,0.0,0.0,0.0,0.0,0.0,0.0,0.0,0.0,0.0,0.0,0.0,0.0,0.0,0.0,0.0,0.0,0.0,0.0,0.0,0.0,0.0,0.0,0.0,0.0,0.0,0.0,0.0,0.0,0.0,0.0,0.0,0.0,0.0,0.0,0.0,0.0,0.0,0.0,0.0,0.0,0.0,0.0,0.0,0.0,0.0,0.0,0.0,0.0,0.0,0.0,0.0,0.0,0.0,0.0,0.0,0.0,0.0,0.0,0.0,0.0,0.0,0.0,0.0,0.0,0.0,0.0,0.0,0.0,0.0,0.0,0.0,0.0,0.0,0.0,0.0,0.0,0.0,0.0,0.0,0.0,0.0,0.0,0.0,0.0,0.0,0.0,0.0,0.0,0.0,0.0,0.0,0.0,0.0,0.0,0.0,0.0,0.0,0.0,0.0,0.0,0.0,0.0,0.0,0.0,0.0,0.0,0.0,0.0,0.0,0.0,0.0,0.0,0.0,0.0,0.0,0.0,0.0,0.0,0.0,0.0,0.0,0.0,0.0,0.0,0.0,0.0,0.0,0.0,0.0,0.0,0.0,0.0,0.0,0.0,0.0,0.0,0.0,0.0,0.0,0.0,0.0,0.0,0.0,0.0,0.0,0.0,0.0,0.0,0.0,0.0,0.0,0.0,0.0,0.0,0.0,0.0,0.0,0.0,0.0,0.0,0.0,0.0,0.0,0.0,0.0,0.0,0.0,0.0,0.0,0.0,0.0,0.0,0.0,0.0,0.0,0.0,0.0,0.0,0.0,0.0,0.0,0.0,0.0,0.0,0.0,0.0,0.0,0.0,0.0,0.0,0.0,0.0,0.0,0.0,0.0,0.0,0.0,0.0,0.0,0.0,0.0,0.0,0.0,0.0,0.0,0.0,0.0,0.0,0.0,0.0,0.0,0.0,0.0,0.0,0.0,0.0,0.0,0.0,0.0,0.0,0.0,0.0,0.0,0.0,0.0,0.0,0.0,0.0,0.0,0.0,0.0,0.0,0.0,0.0,0.0,0.0,0.0,0.0,0.0,0.0,0.0,0.0,0.0,0.0,0.0,0.0,0.0,0.0,0.0,0.0,0.0,0.0,0.0,0.0,0.0,0.0,0.0,0.0,0.0,0.0,0.0,0.0,0.0,0.0,0.0,0.0,0.0,0.0,0.0,0.0,0.0,0.0,0.0,0.0,0.0,0.0,0.0,0.0,0.0,0.0,0.0,0.0,0.0,0.0,0.0,0.0,0.0,0.0,0.0,0.0,0.0,0.0,0.0,0.0,0.0,0.0,0.0,0.0,0.0,0.0,0.0,0.0,0.0,0.0,0.0,0.0,0.0,0.0,0.0,0.0,0.0,0.0,0.0,0.0,0.0,0.0,0.0,0.0,0.0,0.0,-2.3729,0.0,0.0,0.0,0.0,0.0,0.0,0.0,0.0,0.0,0.0,0.0,0.0,0.0,0.0,0.0,0.0,0.0,0.0,0.0,0.0,0.0,0.0,0.0,0.0,0.0,0.0,0.0,0.0,0.0,0.0,0.0,0.0,0.0,0.0,0.0,0.0,0.0,0.0,0.0,0.0,0.0,0.0,0.0,0.0,0.0,0.0,0.0,0.0,0.0,0.0,0.0,0.0,0.0,0.0,0.0,0.0,0.0,0.0,0.0,0.0,0.0,0.0,0.0,0.0,0.0,0.0,0.0,0.0,0.0,0.0,0.0,0.0,0.0,0.0,0.0,0.0,0.0,0.0,0.0,0.0,0.0,0.0,0.0,0.0,0.0,0.0,0.0,0.0,0.0,0.0,0.0,0.0,0.0,0.0,0.0,0.0,0.0,0.0,0.0,0.0,0.0,0.0,0.0,0.0,0.0,0.0,0.0,0.0,0.0,0.0,0.0,0.0,0.0,0.0,0.0,0.0,-2.4896,0.0,0.0,0.0,0.0,0.0,0.0,0.0,0.0,0.0,0.0,0.0,0.0,0.0,0.0,0.0,0.0,0.0,0.0,0.0,0.0,0.0,0.0,0.0,0.0,0.0,0.0,0.0,0.0,0.0,0.0,0.0,0.0,0.0,0.0,0.0,0.0,0.0,0.0,0.0,0.0,0.0,0.0,0.0,0.0,0.0,0.0,0.0,0.0,0.0,0.0,0.0,0.0,0.0,0.0,0.0,0.0,0.0,0.0,0.0,0.0,0.0,0.0,0.0,0.0,0.0,0.0,0.0,0.0,0.0,0.0,0.0,0.0,0.0,0.0,0.0,0.0,0.0,0.0,0.0,0.0,0.0,0.0,0.0,0.0,0.0,0.0,0.0,0.0,0.0,0.0,0.0,0.0,0.0,0.0,0.0,0.0,0.0,0.0,0.0,0.0,0.0,0.0,0.0,0.0,0.0,0.0,0.0,0.0,-3.2616,-3.3145,-3.3455,-3.3455,-3.3159,-3.2562,-3.0256,-2.8967,-2.8343,-2.6538,0.0,0.0,0.0,0.0,0.0,0.0,0.0,0.0,0.0,0.0,0.0,0.0,0.0,0.0,0.0,0.0,0.0,0.0,0.0,0.0,0.0,0.0,0.0,0.0,0.0,0.0,0.0,0.0,0.0,0.0,0.0,0.0,0.0,0.0,0.0,0.0,0.0,0.0,-3.073,-3.1879,-3.2214,-3.1782,-2.9015,0.0,0.0,0.0,0.0,0.0,0.0,0.0,0.0,0.0,0.0,0.0,0.0,0.0,0.0,0.0,0.0,0.0,0.0,0.0,0.0,0.0,0.0,0.0,0.0,0.0,0.0,0.0,0.0,0.0,0.0,0.0,0.0,0.0,0.0,0.0,0.0,0.0,0.0,0.0,0.0,0.0,0.0,0.0,-2.1167,-2.2169,0.0,0.0,0.0,0.0,0.0,0.0,0.0,0.0,0.0,0.0,0.0,0.0,0.0,-3.0899,-3.3718,-3.5031,-3.6225,-3.7392,-3.9034,-3.9305,-3.8355,-3.8355,-3.8315,-3.8138,-3.6252,0.0,-3.1485,-2.9631,0.0,0.0,0.0,0.0,0.0,0.0,0.0,0.0,0.0,0.0,0.0,0.0,0.0,0.0,0.0,0.0,0.0,0.0,0.0,0.0,0.0,0.0,0.0,0.0,0.0,0.0,0.0,0.0,0.0,0.0,0.0,0.0,0.0,0.0,0.0,0.0,-2.9442,-3.1951,-3.381,-3.5018,-3.5927,-3.6524,-3.5547,-3.3213,-2.9916,-2.86,0.0,0.0,0.0,0.0,0.0,0.0,0.0,0.0,0.0,0.0,0.0,0.0,0.0,0.0,0.0,0.0,0.0,0.0,0.0,0.0,0.0,0.0,0.0,0.0,0.0,0.0,0.0,0.0,0.0,0.0,0.0,0.0,0.0,0.0,0.0,0.0,0.0,0.0,0.0,-2.1128,-2.3197,-2.2961,-2.4175,-2.4435,0.0,0.0,0.0,0.0,0.0,0.0,0.0,0.0,0.0,-3.2399,-3.3704,-3.5357,-3.7324,-3.8871,-4.0078,-4.0947,-4.2073,-4.2521,-4.2317,-4.1978,-4.1815,-4.1734,-4.0268,-3.8505,-3.6429,-3.3308,-3.1422,-3.0242,0.0,0.0,0.0,0.0,-2.5885,-2.6307,0.0,0.0,0.0,0.0,0.0,0.0,0.0,0.0,0.0,0.0,0.0,0.0,0.0,0.0,0.0,-2.6348,0.0,0.0,0.0,0.0,0.0,0.0,0.0,0.0,0.0,0.0,0.0,0.0,-3.1992,-3.4529,-3.689,-3.826,-3.9454,-4.0472,-4.1069,-3.8206,-3.2847,-3.1938,-2.9903,0.0,0.0,0.0,0.0,0.0,0.0,0.0,0.0,0.0,0.0,0.0,0.0,0.0,0.0,0.0,0.0,0.0,0.0,0.0,0.0,0.0,0.0,0.0,0.0,0.0,0.0,0.0,0.0,0.0,0.0,0.0,0.0,0.0,0.0,0.0,0.0,0.0,0.0,-2.2785,-2.4998,-2.4014,-2.6376,-2.7242,0.0,0.0,0.0,0.0,0.0,0.0,-3.1897,-3.2833,-3.4339,-3.655,-3.8082,-3.9549,-4.0892,-4.2249,-4.3213,-4.381,-4.4307,-4.4542,-4.4691,-4.423,-4.3837,-4.3497,-4.2616,-4.1544,-4.0133,-3.6429,-3.3919,-3.2277,-3.0792,-2.9631,-2.8858,-2.8858,-2.8858,-2.9021,0.0,0.0,0.0,0.0,0.0,0.0,0.0,0.0,0.0,0.0,0.0,0.0,0.0,0.0,-2.8261,-2.9984,-2.9767,-2.9211,0.0,0.0,0.0,0.0,0.0,0.0,0.0,0.0,0.0,-3.1151,-3.4665,-3.7609,-3.9997,-4.1788,-4.2955,-4.3579,-4.4203,-4.2697,-3.9468,-3.6049,-3.4204,-3.305,0.0,0.0,0.0,0.0,0.0,0.0,0.0,0.0,0.0,0.0,0.0,0.0,0.0,0.0,0.0,0.0,0.0,0.0,0.0,0.0,0.0,0.0,0.0,0.0,0.0,0.0,0.0,0.0,0.0,0.0,0.0,0.0,0.0,0.0,0.0,0.0,0.0,0.0,0.0,-2.5833,-3.1327,0.0,0.0,0.0,0.0,-3.1015,-3.1599,-3.3254,-3.6144,-3.6347,-3.7989,-4.153,-4.2276,-4.347,-4.5261,-4.537,-4.5709,-4.6345,-4.6372,-4.5763,-4.4705,-4.4678,-4.4027,-4.2928,-4.2873,-4.2168,-4.0879,-3.8339,-3.6577,-3.5262,-3.2942,-3.2042,-3.1951,-3.1951,-3.1951,-3.2128,0.0,0.0,0.0,0.0,0.0,0.0,0.0,0.0,0.0,0.0,0.0,0.0,0.0,-2.8682,-3.1721,-3.3094,-3.4814,-3.4733,-3.2173,0.0,0.0,0.0,0.0,0.0,0.0,0.0,-3.1151,-3.4136,-3.6958,-3.9373,-4.1381,-4.2412,-4.3416,-4.4406,-4.5003,-4.4461,-4.2941,-4.0485,-3.7758,-3.4774,-3.1097,-2.7868,0.0,0.0,0.0,0.0,0.0,0.0,0.0,0.0,0.0,0.0,0.0,0.0,0.0,0.0,0.0,0.0,0.0,0.0,0.0,0.0,0.0,0.0,0.0,0.0,0.0,0.0,0.0,0.0,0.0,0.0,0.0,0.0,0.0,0.0,0.0,0.0,0.0,-3.048,-3.4624,0.0,-3.4285,-3.5194,-3.5927,-3.5886,-3.7867,-3.9875,-4.172,-4.2181,-4.3158,-4.4827,-4.5085,-4.5505,-4.6143,-4.6157,-4.6265,-4.6469,-4.6469,-4.6048,-4.5261,-4.4881,-4.4244,-4.3443,-4.305,-4.2439,-4.1598,-4.0304,-3.8898,-3.7297,-3.5655,-3.5018,-3.5018,-3.5018,-3.5018,-3.5086,0.0,0.0,0.0,0.0,0.0,0.0,0.0,0.0,0.0,0.0,0.0,-2.4218,-2.6837,-3.1431,-3.4977,-3.6754,-3.8206,-3.7568,-3.4124,0.0,0.0,0.0,0.0,0.0,0.0,-3.0554,-3.3647,-3.6619,-3.883,-4.0838,-4.2616,-4.3213,-4.4149,-4.5316,-4.5723,-4.5668,-4.5207,-4.381,-4.1137,-3.7582,-3.457,-3.1585,-2.8424,0.0,0.0,0.0,0.0,0.0,0.0,0.0,0.0,0.0,0.0,0.0,0.0,0.0,0.0,0.0,0.0,0.0,0.0,0.0,0.0,0.0,0.0,0.0,0.0,0.0,0.0,0.0,0.0,0.0,0.0,0.0,0.0,0.0,0.0,0.0,-3.3308,-3.393,-3.803,-4.0038,-3.8003,-3.9292,-4.0418,-4.0811,-4.286,-4.4542,-4.5546,-4.579,-4.6075,-4.6469,-4.6469,-4.6469,-4.6469,-4.6469,-4.6469,-4.6469,-4.6469,-4.6062,-4.5275,-4.4881,-4.4257,-4.3443,-4.305,-4.2548,-4.1978,-4.1584,-4.0594,-3.921,-3.7989,-3.7514,-3.7514,-3.7514,-3.7392,-3.7161,0.0,0.0,0.0,0.0,0.0,0.0,0.0,0.0,0.0,0.0,-2.2793,-2.6619,-3.0812,-3.4475,-3.7826,-4.0811,-3.94,-3.7052,-3.407,-2.9937,0.0,0.0,0.0,0.0,-3.0432,-3.281,-3.548,-3.8505,-4.0296,-4.2073,-4.381,-4.4447,-4.5356,-4.6469,-4.6469,-4.6482,-4.6469,-4.5858,-4.4284,-4.1802,-3.7568,-3.5439,-3.4233,0.0,0.0,0.0,0.0,0.0,0.0,0.0,0.0,0.0,0.0,0.0,0.0,0.0,0.0,0.0,0.0,0.0,0.0,0.0,0.0,0.0,0.0,0.0,0.0,0.0,0.0,0.0,0.0,0.0,0.0,0.0,0.0,0.0,-2.86,-3.339,-3.6592,-3.609,-4.1747,-4.4325,-4.0811,-4.362,-4.5682,-4.5695,-4.6211,-4.6847,-4.7431,-4.6888,-4.6562,-4.6562,-4.6482,-4.6469,-4.6469,-4.6469,-4.6469,-4.6469,-4.6469,-4.5858,-4.4705,-4.4705,-4.404,-4.2887,-4.2887,-4.2561,-4.2032,-4.2019,-4.1652,-4.1001,-3.9821,-3.9346,-3.9332,-3.9332,-3.8939,-3.8247,0.0,0.0,0.0,0.0,0.0,0.0,0.0,0.0,0.0,0.0,-2.2888,-2.6932,-3.0283,-3.4611,-3.7962,-3.9658,-3.8152,-3.6022,-3.3471,0.0,0.0,0.0,0.0,0.0,-3.2864,-3.5276,-3.7756,-4.0377,-4.1734,-4.3104,-4.4461,-4.5058,-4.575,-4.6469,-4.6469,-4.6766,-4.7132,-4.6482,-4.6089,-4.553,-4.0825,-3.8084,-3.6333,0.0,0.0,0.0,0.0,0.0,0.0,0.0,0.0,0.0,0.0,0.0,0.0,0.0,0.0,0.0,0.0,0.0,0.0,0.0,0.0,0.0,0.0,0.0,0.0,0.0,0.0,0.0,0.0,0.0,0.0,0.0,0.0,-3.2552,-3.2457,-3.7121,-4.111,-4.2683,-4.5994,-4.7771,-4.6767,-4.7188,-4.769,-4.8124,-4.7907,-4.8015,-4.8612,-4.7663,-4.716,-4.716,-4.6752,-4.6469,-4.6469,-4.6469,-4.6469,-4.6469,-4.6469,-4.5858,-4.4705,-4.4705,-4.404,-4.2887,-4.2887,-4.2806,-4.2616,-4.2181,-4.1652,-4.1096,-4.0743,-4.035,-3.9943,-3.9943,-3.9292,-3.8271,0.0,0.0,0.0,0.0,0.0,0.0,0.0,0.0,0.0,0.0,-2.3309,-2.7515,-3.0798,-3.4733,-3.7528,-3.8477,-3.6225,-3.3634,-3.1023,0.0,0.0,0.0,0.0,-3.2494,-3.571,-3.7892,-4.0092,-4.2236,-4.2914,-4.3877,-4.5085,-4.5438,-4.6048,-4.6902,-4.6902,-4.7174,-4.7703,-4.7364,-4.7418,-4.7446,-4.4149,-4.191,-4.016,-3.6646,-3.4516,-3.3186,-3.1594,-3.0893,-3.05,-2.8573,0.0,0.0,0.0,0.0,0.0,0.0,0.0,0.0,0.0,0.0,0.0,0.0,0.0,0.0,0.0,0.0,0.0,0.0,0.0,0.0,0.0,0.0,0.0,0.0,-3.4787,-3.7743,-3.8651,-4.153,-4.4298,-4.6455,-4.8355,-4.9304,-4.8747,-4.8842,-4.8869,-4.8707,-4.8381,-4.8232,-4.8382,-4.75,-4.7037,-4.7037,-4.6698,-4.6469,-4.6469,-4.6469,-4.6469,-4.6469,-4.6469,-4.5858,-4.4705,-4.4705,-4.404,0.0,-4.2887,-4.2887,-4.286,-4.2521,-4.2019,0.0,0.0,0.0,0.0,0.0,-3.9224,-3.8326,0.0,0.0,0.0,0.0,0.0,0.0,0.0,0.0,0.0,0.0,0.0,-2.7854,-3.1431,-3.4299,-3.628,-3.693,-3.3742,-3.0459,0.0,0.0,0.0,-2.8845,-3.196,-3.5153,-3.8545,-4.0323,-4.2059,-4.3818,-4.385,-4.4461,-4.5587,-4.5723,-4.6347,-4.7418,-4.7486,-4.7785,-4.8286,-4.8219,-4.8232,-4.8178,-4.7052,-4.5899,-4.4474,-4.0526,-3.8613,-3.7677,-3.495,-3.3295,-3.2196,-3.0839,0.0,0.0,0.0,0.0,0.0,0.0,0.0,0.0,0.0,0.0,0.0,0.0,0.0,0.0,0.0,0.0,0.0,0.0,0.0,0.0,0.0,0.0,0.0,0.0,-3.8624,-4.267,-4.5668,-4.6035,-4.6577,-4.8097,-4.9277,-4.9494,-4.8395,-4.9237,-4.9372,-4.8273,-4.8124,-4.792,-4.7445,0.0,0.0,0.0,0.0,-4.6469,-4.6469,-4.6469,-4.6469,-4.6469,-4.6469,-4.5885,-4.48,-4.48,-4.4135,-4.2982,-4.2982,-4.2941,-4.2887,-4.2887,-4.2493,-4.1788,-4.0635,-3.9861,-3.9386,-3.9332,-3.8966,-3.8505,0.0,0.0,0.0,0.0,0.0,0.0,0.0,0.0,0.0,-1.9388,-2.2564,-2.5833,-2.894,-3.1097,-3.2752,-3.3876,-3.0649,-2.7705,0.0,0.0,-2.8736,-3.1368,-3.4814,-3.7663,-3.9794,-4.115,-4.2466,-4.3818,-4.4284,-4.4881,-4.5614,-4.663,-4.72,-4.7431,-4.7866,-4.8341,-4.8869,-4.8395,-4.8463,-4.8857,-4.7663,-4.6806,-4.5885,-4.3606,-4.2073,-4.1001,-3.9943,-3.9414,-3.8884,-3.6714,-3.5642,-3.4706,-3.1721,0.0,0.0,0.0,0.0,0.0,0.0,0.0,0.0,0.0,0.0,0.0,0.0,0.0,0.0,0.0,0.0,0.0,0.0,0.0,0.0,-3.9916,-4.286,-4.5763,-4.8735,-4.8748,-4.8572,-4.8911,-4.9155,-4.9209,-4.8923,-4.8679,-4.8435,-4.8205,-4.7798,-4.754,-4.7418,-4.6847,-4.6469,-4.6469,-4.6469,-4.6469,-4.6469,-4.6469,-4.6469,-4.6469,0.0,0.0,-4.5424,-4.5424,-4.4759,-4.3655,-4.3655,-4.3335,-4.2887,-4.2887,-4.2263,-4.1218,-4.0472,-4.0119,-3.9956,-3.9481,-3.9237,-3.9017,0.0,0.0,0.0,0.0,0.0,0.0,0.0,0.0,0.0,0.0,-2.1111,-2.3662,-2.609,-2.742,-2.8261,-2.856,-2.6389,0.0,0.0,-2.7827,-3.0961,-3.4244,-3.7256,-3.9563,-4.1069,-4.1978,-4.3036,-4.4244,-4.4556,-4.5153,-4.6048,-4.6997,-4.7513,-4.7825,-4.8422,-4.8964,-4.9549,-4.925,-4.9128,-4.8991,-4.8165,-4.7269,-4.6399,-4.5139,-4.4135,-4.324,-4.2331,-4.1625,-4.0892,-3.9373,-3.8654,-3.803,-3.5954,-3.3037,-2.9781,0.0,0.0,0.0,0.0,0.0,0.0,0.0,0.0,0.0,0.0,0.0,0.0,0.0,0.0,-3.2945,0.0,0.0,-4.1001,-4.3402,-4.556,-4.7541,-4.9318,-4.9005,-4.8734,-4.9032,-4.9128,-4.8897,-4.83,-4.8246,-4.7948,-4.7405,-4.7364,-4.7282,-4.6983,-4.6684,-4.6469,-4.6469,-4.6469,-4.6469,-4.6469,-4.6469,-4.6469,-4.6469,-4.6469,-4.6157,-4.5587,-4.5587,-4.5098,-4.4217,-4.3904,-4.3655,-4.3267,-4.2371,-4.1476,-4.0594,-3.9983,-3.9739,-3.9699,-3.9414,-3.9115,-3.8773,0.0,0.0,0.0,0.0,0.0,0.0,0.0,0.0,0.0,0.0,0.0,-2.1345,-2.3052,-2.3689,-2.373,0.0,0.0,0.0,0.0,-2.8967,-3.2806,-3.6619,-3.9088,-4.0825,-4.1802,-4.2643,-4.3606,-4.4705,-4.4827,-4.5424,-4.6548,-4.7201,-4.7785,-4.8219,-4.8923,-4.9562,-4.9996,-4.9888,-4.9562,-4.9018,-4.8355,-4.7432,-4.6387,-4.5546,-4.4936,-4.4366,-4.3158,-4.1652,-4.0214,-4.0065,-3.9699,-3.9251,-3.8884,-3.7365,-3.4869,-3.0554,-2.8465,0.0,0.0,0.0,0.0,0.0,0.0,0.0,0.0,0.0,-3.2603,-3.4272,-3.5845,-3.7555,-3.9604,-4.2141,-4.4406,-4.5872,-4.7405,-4.849,-4.8842,-4.849,-4.8327,-4.8735,-4.8789,-4.8409,-4.7499,-4.7785,-4.7636,-4.6564,-4.7078,-4.716,-4.6562,-4.6469,-4.6469,-4.6469,-4.6469,-4.6469,-4.6469,-4.6469,-4.6469,-4.6469,-4.6469,-4.6225,-4.5763,-4.5763,-4.5438,-4.4827,-4.4094,-4.375,-4.347,-4.1802,-4.0825,-4.0296,-3.9576,-3.9305,-3.9305,-3.9305,-3.8993,-3.8572,0.0,0.0,0.0,0.0,0.0,0.0,0.0,0.0,0.0,0.0,0.0,0.0,0.0,0.0,0.0,0.0,0.0,0.0,0.0,-3.1002,-3.4733,-3.7268,-3.9726,-4.1069,-4.1218,-4.2833,-4.4013,-4.4705,-4.5234,-4.5831,-4.6496,-4.7622,-4.8124,-4.8232,-4.9413,-4.9956,-4.9969,-4.9454,-4.9182,-4.9033,-4.7907,-4.7066,-4.6345,-4.466,-4.3981,-4.3715,-4.2534,-3.9956,-3.7338,-3.8884,-3.7989,-3.6659,-3.9197,-3.8016,-3.5194,-3.2562,0.0,-2.6318,-2.3716,-2.4014,-2.5493,-2.7108,-2.8763,-3.1531,0.0,0.0,-3.9264,-4.2616,-4.3877,-4.4637,-4.5424,-4.6713,-4.7649,-4.7866,-4.8503,-4.8815,-4.8354,-4.8232,-4.807,-4.7608,-4.7608,-4.7553,-4.7418,-4.7472,-4.7241,-4.6576,-4.7078,-4.716,-4.6562,-4.6469,-4.6469,-4.6469,-4.6469,-4.6469,-4.6469,-4.6469,-4.6469,-4.6469,-4.6469,-4.6428,-4.6374,-4.6374,-4.6048,-4.5424,-4.4271,-4.3484,-4.2887,-4.1639,-4.1082,-4.0906,-3.9753,-3.9305,-3.9305,-3.9305,-3.9264,-3.9129,0.0,0.0,0.0,0.0,0.0,0.0,0.0,0.0,0.0,0.0,0.0,0.0,0.0,0.0,0.0,0.0,0.0,0.0,-2.6131,-3.0459,-3.4461,-3.7865,-3.9671,-4.0906,-4.1625,-4.2697,-4.3728,-4.4705,-4.4949,-4.5546,-4.6496,-4.769,-4.8192,-4.8232,-4.9481,-5.001,-4.9969,-4.9386,-4.8869,-4.849,-4.7703,-4.6426,-4.4837,-4.3674,-4.2181,-4.0445,-3.8898,-3.6944,0.0,0.0,-3.5465,-3.5561,-3.7921,-3.7297,-3.5248,-3.2874,-3.0622,0.0,-2.894,-2.9062,0.0,0.0,-3.556,-3.8057,-4.1489,-4.3158,-4.4501,-4.6321,-4.7513,-4.8233,-4.849,-4.8938,-4.9155,0.0,-4.8625,-4.8476,-4.8232,-4.7649,-4.6998,-4.6401,-4.6333,-4.6469,-4.6861,-4.6902,-4.6793,-4.6548,-4.6752,-4.6793,-4.6482,-4.6469,-4.6469,-4.6469,-4.6469,-4.6469,-4.6469,-4.6469,-4.6469,-4.6469,-4.6469,-4.6469,-4.6469,-4.6469,-4.5967,-4.5031,-4.4149,-4.305,-4.1815,-4.1327,-4.0703,-4.0011,-3.9509,-3.9305,-3.9305,-3.9305,-3.9088,-3.8708,0.0,0.0,0.0,0.0,0.0,0.0,0.0,0.0,0.0,0.0,0.0,0.0,0.0,0.0,0.0,0.0,0.0,0.0,0.0,-2.9184,-3.3227,-3.7214,-3.9047,0.0,-4.1476,-4.2575,-4.3565,-4.4447,-4.4624,-4.5153,-4.6007,-4.7201,-4.7704,-4.7812,-4.8992,-4.9616,-4.9711,-4.8965,-4.8395,-4.7934,-4.7174,-4.5489,-4.3185,-4.2249,-3.9834,-3.6768,-3.5452,-3.3702,0.0,0.0,-3.1477,-3.1997,-3.4301,-3.4461,-3.3444,-3.1897,-3.0473,-2.9808,-3.1634,0.0,0.0,-3.7867,-4.1096,-4.3592,-4.4936,-4.6821,-4.8477,-4.9045,-4.9587,-4.9969,-4.9793,-4.9494,-4.9087,-4.849,-4.8043,-4.7704,-4.7704,-4.674,-4.5831,-4.5397,-4.5044,-4.5071,-4.572,-4.6035,-4.6225,-4.6225,-4.6387,-4.6469,-4.6469,-4.6469,-4.6469,-4.6469,-4.6469,-4.6469,-4.6469,-4.6469,-4.6469,-4.6469,-4.6469,-4.6469,-4.6469,-4.6306,-4.5668,-4.4678,-4.404,-4.2941,-4.1584,-4.1259,-4.0594,-3.9766,-3.9441,-3.9305,-3.9305,-3.9305,-3.8925,-3.8315,0.0,0.0,0.0,0.0,0.0,0.0,0.0,0.0,0.0,0.0,0.0,0.0,0.0,0.0,0.0,0.0,0.0,0.0,0.0,-2.7556,-3.1165,-3.4748,-3.7758,-3.9617,-4.0228,-4.2596,-4.3805,-4.3845,-4.4406,-4.4732,-4.4786,-4.5967,-4.6523,-4.6577,-4.7771,-4.8557,-4.9018,-4.7907,-4.7458,-4.7336,-4.6116,-4.4203,-4.1856,-4.0078,-3.6836,-3.3251,-3.3196,0.0,0.0,0.0,-2.5465,-2.4177,-2.7746,-2.8831,0.0,-2.9448,-2.8315,-2.7294,0.0,0.0,-3.4936,-3.9102,-4.3267,-4.6808,-4.8572,-4.9915,-5.096,-5.1597,-5.081,-4.9833,-4.9264,-4.8219,-4.7295,-4.6698,-4.6537,-4.6523,-4.6523,-4.5505,-4.4759,-4.4732,-4.3687,-4.3199,0.0,-4.4922,-4.5614,-4.5614,-4.6143,-4.6469,-4.6469,-4.6469,-4.6469,-4.6469,-4.6469,-4.6469,-4.6469,-4.6469,-4.6469,-4.6469,-4.6469,-4.6469,-4.6455,-4.5872,-4.5288,-4.4678,-4.404,-4.3416,-4.2738,-4.1598,-4.1096,-4.0947,-3.9766,-3.9305,-3.9305,-3.9305,-3.8925,-3.8247,0.0,0.0,0.0,0.0,0.0,0.0,0.0,0.0,0.0,0.0,0.0,0.0,0.0,0.0,0.0,0.0,0.0,0.0,0.0,-2.4896,-2.8343,-3.1151,-3.4909,-3.7392,-3.841,-3.9983,-4.1205,-4.2019,-4.2222,-4.2534,-4.2941,-4.4122,-4.4728,-4.4732,-4.594,-4.6591,-4.6727,-4.594,-4.5831,-4.598,-4.3592,-4.1422,-3.9386,-3.7175,-3.3485,-2.9306,0.0,0.0,0.0,0.0,0.0,-2.297,-2.4991,-2.56,-2.59,-2.7311,-2.8125,-2.9496,0.0,0.0,-4.0214,-4.3972,-4.7486,-5.0295,-5.1285,-5.1814,-5.1814,-5.0824,-4.8422,-4.6062,-4.4664,-4.2765,-4.1761,-4.2751,-4.3579,-4.4651,-4.6252,-4.6469,-4.5872,-4.4271,-4.4434,0.0,0.0,0.0,0.0,-4.5505,-4.541,-4.5655,-4.6428,-4.6469,-4.6469,-4.6469,-4.6469,-4.6469,-4.6469,-4.6469,-4.6469,-4.6469,-4.6469,-4.6469,-4.6442,-4.5451,-4.4895,-4.4651,-4.3633,-4.2629,-4.1679,-4.1286,-4.0648,-3.9875,-3.9468,-3.9305,-3.9305,-3.9305,-3.9169,-3.8884,0.0,0.0,0.0,0.0,0.0,0.0,0.0,0.0,0.0,0.0,0.0,0.0,0.0,0.0,0.0,0.0,0.0,0.0,0.0,0.0,-2.4842,-2.7447,-3.0758,-3.3067,-3.4273,-3.5506,-3.651,-3.7297,-3.7718,-3.8342,-3.9169,-4.0553,-4.1449,-4.1896,-4.29,-4.3579,-4.3945,-4.3118,-4.2629,-4.2181,-3.9821,-3.7148,-3.4394,-3.2593,-2.9232,0.0,0.0,0.0,0.0,0.0,0.0,0.0,-2.2686,-2.4014,-2.541,-2.7244,-2.9034,-3.1743,-3.7555,-4.0852,-4.3647,-4.7866,-5.0553,-5.2249,-5.2628,-5.2384,-5.1312,-4.8667,-4.5614,-4.2602,-3.9929,-3.7826,-3.7161,-3.9183,-4.0323,-4.2114,-4.5383,-4.579,-4.5475,-4.4529,-4.4542,0.0,0.0,0.0,0.0,-4.5153,-4.5316,-4.5668,-4.6428,-4.6416,-4.6364,-4.6469,-4.635,-4.6364,-4.6469,-4.6469,-4.6469,-4.6469,-4.6469,-4.636,-4.6116,-4.5153,-4.4583,-4.4298,-4.309,-4.2141,-4.1408,-4.0974,-4.0458,-3.9929,-3.9712,-3.9753,-3.9956,-3.9956,-3.9807,-3.9495,0.0,0.0,0.0,0.0,0.0,0.0,0.0,0.0,0.0,0.0,0.0,0.0,0.0,0.0,0.0,0.0,0.0,0.0,0.0,0.0,0.0,-2.3702,-2.5629,-2.7203,-2.8415,-2.9577,-3.0215,-3.0269,-3.1395,-3.2572,-3.3715,-3.5398,-3.6809,-3.7935,-3.8532,-3.9441,-4.0445,-3.9292,-3.7813,-3.613,-3.487,-3.1617,-2.7461,-2.6833,0.0,0.0,0.0,0.0,0.0,0.0,0.0,0.0,0.0,-2.4164,-2.7362,-2.9319,-3.1227,-3.4041,-4.0526,-4.3213,-4.5424,-5.0593,-5.2303,-5.271,-5.2669,-5.1584,-4.9426,-4.5356,-4.2412,-3.9319,0.0,0.0,-3.3618,-3.6022,-3.7094,-3.9247,-4.4081,-4.381,-4.3728,0.0,0.0,0.0,0.0,0.0,0.0,-4.4664,0.0,-4.6401,-4.6469,-4.6192,-4.6179,-4.6469,-4.6192,-4.6192,-4.6469,-4.6469,-4.6469,-4.6469,-4.6469,-4.6157,-4.5573,-4.4976,-4.4352,-4.371,-4.2507,-4.1964,-4.1829,-4.0662,-4.054,-4.1015,-4.0418,-4.0567,-4.1123,-4.115,-4.0784,-4.0119,0.0,0.0,0.0,0.0,0.0,0.0,0.0,0.0,0.0,0.0,0.0,0.0,0.0,0.0,0.0,0.0,0.0,0.0,0.0,0.0,0.0,0.0,0.0,0.0,0.0,-2.681,-2.7488,-2.8397,0.0,-2.9007,-2.9333,-3.0215,-3.0798,-3.1124,-3.1721,-3.2155,-3.2426,-3.2114,-3.1743,-3.1186,0.0,-2.7294,-2.495,0.0,0.0,0.0,0.0,0.0,0.0,0.0,0.0,0.0,0.0,-2.8017,-3.0283,-3.426,-3.708,-3.9875,-4.4664,-4.7825,-5.0213,-5.2031,-5.2601,-5.2601,-5.2154,-4.906,-4.5478,-4.2629,-3.7297,-3.2399,0.0,0.0,0.0,-3.3468,-3.6714,0.0,-4.4746,-4.5858,0.0,0.0,0.0,-4.5085,-4.394,-4.4461,0.0,0.0,-4.5234,-4.5546,-4.6428,-4.6416,-4.6416,-4.6469,-4.6416,-4.6416,-4.6469,-4.6469,-4.6469,-4.6469,-4.6469,-4.6157,-4.5573,-4.4976,-4.4122,-4.3077,-4.2331,-4.1489,-4.0635,-4.0309,-4.0282,-4.0404,-4.0255,-4.0567,-4.1164,-4.1612,-4.1679,-4.1503,0.0,0.0,0.0,0.0,0.0,0.0,0.0,0.0,0.0,0.0,0.0,0.0,0.0,0.0,0.0,0.0,0.0,0.0,0.0,0.0,0.0,0.0,0.0,0.0,0.0,-2.1674,-2.2221,0.0,0.0,0.0,0.0,-2.5548,-2.6253,-2.7026,-2.7366,-2.7664,-2.7899,0.0,0.0,0.0,0.0,0.0,0.0,0.0,0.0,0.0,0.0,0.0,0.0,0.0,0.0,-2.8125,-3.0866,-3.3091,-3.5533,-3.9807,0.0,-4.3986,-4.8165,-5.0729,-5.2303,-5.2628,-5.252,-5.1624,-4.8911,-4.5755,-4.2076,-3.7304,-3.266,0.0,0.0,0.0,0.0,0.0,0.0,0.0,-4.4206,-4.5448,-4.6021,0.0,-4.6591,0.0,-4.5109,-4.5573,-4.5967,0.0,-4.5668,-4.5777,-4.6428,-4.635,-4.635,-4.6469,-4.6258,-4.6139,-4.6297,-4.6297,-4.635,-4.6469,-4.6211,-4.5777,-4.5166,-4.4312,-4.3389,-4.2453,0.0,-4.0825,-4.0187,-4.0187,-4.035,-4.0621,-4.0879,-4.1354,-4.1937,-4.2263,-4.2385,-4.2358,0.0,0.0,0.0,0.0,0.0,0.0,0.0,0.0,0.0,0.0,0.0,0.0,0.0,0.0,0.0,0.0,0.0,0.0,0.0,0.0,0.0,0.0,0.0,0.0,0.0,0.0,0.0,0.0,0.0,0.0,0.0,0.0,0.0,0.0,0.0,0.0,0.0,0.0,0.0,0.0,0.0,0.0,0.0,0.0,0.0,0.0,0.0,0.0,0.0,0.0,-3.0581,-3.3227,-3.5845,-3.8613,-4.1571,-4.4949,-4.6062,-4.7011,-5.0797,-5.2316,-5.2818,-5.2737,-5.2031,-4.9996,-4.4928,-4.2216,-3.8699,-3.1531,0.0,-2.7219,-2.5919,0.0,-2.7343,-3.1988,0.0,-3.7071,-4.3245,-4.398,-4.4922,-4.7622,-4.7161,-4.6616,-4.6482,-4.6469,-4.6469,-4.6469,-4.6469,-4.6469,-4.6469,-4.6245,-4.6192,-4.6416,-4.5928,-4.5755,-4.6007,-4.6007,-4.6152,-4.6347,-4.5831,-4.5275,-4.4664,-4.3443,-4.2561,-4.1937,-4.0811,0.0,-4.0078,-4.0241,-4.0635,-4.1177,-4.1774,-4.2371,-4.2887,-4.2887,-4.2887,-4.2806,0.0,0.0,0.0,0.0,0.0,0.0,0.0,0.0,0.0,0.0,-1.6067,-1.6081,0.0,0.0,0.0,0.0,0.0,0.0,0.0,0.0,0.0,0.0,0.0,0.0,0.0,0.0,0.0,0.0,0.0,0.0,0.0,0.0,0.0,0.0,0.0,0.0,0.0,0.0,0.0,0.0,0.0,0.0,0.0,0.0,0.0,0.0,0.0,0.0,0.0,0.0,-3.2643,-3.651,-4.0418,-4.3036,-4.5058,-4.7107,-4.8477,-4.963,-5.1353,-5.2615,-5.332,-5.2832,-5.077,-4.7893,-4.4433,-3.9236,0.0,0.0,0.0,-2.467,-2.4995,-2.577,0.0,-3.3162,0.0,0.0,0.0,0.0,-4.5098,0.0,0.0,0.0,0.0,0.0,0.0,0.0,0.0,-4.6469,-4.6469,-4.6469,-4.6297,-4.6073,-4.5967,-4.5967,-4.6007,-4.6007,-4.5949,-4.5736,-4.5641,-4.5275,-4.4664,-4.3443,-4.2561,-4.1964,-4.1259,0.0,-3.9536,-4.054,-4.1028,-4.1177,-4.1774,-4.2371,-4.2887,-4.2887,-4.2887,-4.2806,0.0,0.0,0.0,0.0,0.0,0.0,0.0,0.0,-1.6269,-1.7132,-1.7239,-1.6978,-1.6285,-1.6194,0.0,0.0,0.0,0.0,0.0,0.0,0.0,0.0,0.0,0.0,0.0,0.0,0.0,0.0,0.0,0.0,0.0,0.0,0.0,0.0,0.0,0.0,0.0,0.0,0.0,0.0,0.0,0.0,0.0,0.0,0.0,0.0,0.0,0.0,0.0,0.0,-3.0785,-3.571,-4.1164,-4.4556,-4.6618,-4.7161,-4.8382,-4.9752,-5.0634,-5.1991,-5.3033,-5.2663,-5.0436,-4.6956,-4.1462,0.0,0.0,0.0,0.0,-2.3864,-2.4912,0.0,0.0,0.0,0.0,0.0,0.0,0.0,0.0,0.0,0.0,0.0,0.0,0.0,0.0,0.0,0.0,-4.6469,-4.6469,-4.6469,-4.6311,-4.5808,-4.5808,-4.5808,-4.5808,-4.5448,-4.559,-4.6048,-4.5424,-4.4976,-4.4664,-4.3443,-4.2561,-4.1978,-4.1381,0.0,-4.0323,-4.1218,-4.1584,-4.1639,-4.2236,-4.2643,-4.2887,-4.2887,-4.2887,-4.2806,0.0,0.0,0.0,0.0,0.0,0.0,0.0,-1.6317,-1.6793,-1.7854,-1.7992,-1.7592,-1.6517,-1.6532,-1.6502,0.0,0.0,0.0,0.0,0.0,0.0,0.0,0.0,0.0,0.0,0.0,0.0,0.0,0.0,0.0,0.0,0.0,0.0,0.0,0.0,0.0,0.0,0.0,0.0,0.0,0.0,0.0,0.0,0.0,0.0,0.0,0.0,0.0,0.0,0.0,-2.7786,-3.2735,-3.839,-4.2698,-4.5665,-4.5827,-4.7204,-4.8981,-5.0188,-5.1854,-5.3132,-5.2588,-5.0164,-4.6022,-3.889,-3.5102,0.0,0.0,-2.3046,-2.3717,-2.505,0.0,0.0,0.0,0.0,0.0,0.0,0.0,0.0,0.0,0.0,0.0,0.0,0.0,0.0,0.0,0.0,0.0,-4.6469,-4.6416,-4.6085,-4.5409,-4.5475,-4.5422,-4.5222,-4.5022,-4.5285,-4.6075,-4.5153,-4.4637,-4.4461,-4.3253,-4.2439,-4.1978,-4.1517,0.0,0.0,-4.1896,-4.2127,-4.2059,-4.2656,-4.2887,-4.2887,-4.2887,-4.2887,-4.2806,0.0,0.0,0.0,0.0,0.0,0.0,0.0,-1.6717,-1.7147,-1.7285,-1.7285,-1.7239,-1.7116,-1.7654,-1.7531,0.0,0.0,0.0,0.0,0.0,0.0,0.0,0.0,0.0,0.0,0.0,0.0,0.0,0.0,0.0,0.0,0.0,0.0,0.0,0.0,0.0,0.0,0.0,0.0,0.0,0.0,0.0,0.0,0.0,0.0,0.0,0.0,0.0,0.0,0.0,0.0,-2.7849,-3.0435,-3.5319,-4.0563,-4.3128,0.0,0.0,-5.1222,-5.351,-5.4558,-5.278,-4.9086,-4.4457,-3.9046,0.0,0.0,-2.4246,-2.3266,-2.3717,-2.505,-2.4347,0.0,0.0,0.0,0.0,0.0,0.0,0.0,0.0,0.0,0.0,0.0,0.0,0.0,0.0,0.0,0.0,-4.6469,-4.6192,-4.5659,-4.4835,-4.5103,-4.4825,-4.3983,-4.5009,-4.5285,-4.4868,-4.4759,-4.4406,-4.381,-4.2629,-4.2059,-4.2005,-4.1951,0.0,0.0,-4.2344,-4.248,-4.2059,-4.2656,-4.2887,-4.2887,-4.2887,-4.2887,-4.2806,0.0,0.0,0.0,0.0,0.0,0.0,0.0,-1.6425,-1.6886,-1.77,-1.7807,-1.7807,-1.7807,-1.8053,-1.7669,0.0,0.0,0.0,0.0,0.0,0.0,0.0,0.0,0.0,0.0,0.0,0.0,0.0,0.0,0.0,0.0,0.0,0.0,0.0,0.0,0.0,0.0,0.0,0.0,0.0,0.0,0.0,0.0,0.0,0.0,0.0,0.0,0.0,0.0,0.0,0.0,0.0,-2.359,-2.6733,0.0,0.0,-4.0857,-4.4852,-4.7001,-5.0456,-5.3225,-5.2291,-4.858,-4.3806,-3.8802,0.0,0.0,-2.3672,-2.2382,-2.2274,-2.2794,-2.2778,-2.344,0.0,0.0,0.0,0.0,0.0,0.0,0.0,0.0,0.0,0.0,0.0,0.0,0.0,0.0,0.0,-4.6469,-4.635,-4.5856,-4.499,-4.4929,-4.4731,-4.437,-4.4476,-4.4632,-4.4951,-4.4766,-4.4379,-4.3805,-4.328,-4.2873,-4.2534,-4.2534,0.0,0.0,-4.2697,-4.2751,-4.2561,-4.2806,-4.2887,-4.2887,-4.2887,-4.2887,-4.286,0.0,0.0,0.0,0.0,0.0,-1.4901,-1.5777,-1.6071,-1.6609,-1.7761,-1.79,-1.79,-1.79,-1.7731,-1.7224,-1.6271,0.0,0.0,0.0,0.0,0.0,0.0,0.0,0.0,0.0,0.0,0.0,0.0,0.0,0.0,0.0,0.0,0.0,0.0,0.0,0.0,0.0,0.0,0.0,0.0,0.0,0.0,0.0,0.0,0.0,0.0,0.0,0.0,0.0,0.0,0.0,0.0,0.0,0.0,0.0,0.0,-3.628,-4.0979,-4.3541,-4.7801,-5.1398,-5.0752,-4.7227,-4.2573,0.0,0.0,0.0,-2.2906,-2.1627,-2.1365,-2.1565,-2.1981,-2.2578,0.0,0.0,0.0,0.0,0.0,0.0,0.0,0.0,0.0,0.0,0.0,0.0,0.0,0.0,0.0,0.0,-4.6469,-4.6012,-4.4904,-4.494,-4.4688,-4.4073,-4.414,-4.4374,-4.4711,-4.4523,-4.4108,-4.3511,-4.3511,-4.3185,-4.2629,0.0,0.0,0.0,-4.2887,-4.2887,-4.2887,-4.2887,-4.2887,-4.2887,-4.2887,-4.2887,-4.2887,0.0,0.0,0.0,0.0,0.0,0.0,0.0,-1.5777,-1.644,-1.7116,-1.7208,-1.7208,-1.7208,-1.6609,-1.6223,-1.6194,0.0,0.0,0.0,0.0,0.0,0.0,0.0,0.0,0.0,0.0,-1.7512,-1.8122,-1.8104,0.0,0.0,0.0,0.0,0.0,0.0,0.0,0.0,0.0,0.0,0.0,0.0,0.0,0.0,0.0,0.0,0.0,0.0,0.0,0.0,0.0,0.0,0.0,0.0,0.0,0.0,0.0,-3.2526,-3.674,-4.2128,-4.6603,-4.9404,-4.7978,-4.4595,-4.0401,0.0,0.0,0.0,-2.2012,-2.1304,-2.1504,-2.2166,-2.2305,-2.2732,-2.4071,-2.4317,0.0,0.0,0.0,0.0,0.0,0.0,0.0,0.0,0.0,0.0,0.0,0.0,0.0,0.0,-4.6469,-4.5822,-4.435,-4.514,-4.458,-4.2552,-4.4208,-4.4644,-4.3782,-4.3832,-4.347,-4.29,-4.29,-4.2575,0.0,0.0,0.0,0.0,-4.2887,-4.2887,-4.2887,-4.2887,-4.2887,-4.2887,-4.2887,-4.2887,-4.2887,0.0,0.0,0.0,0.0,0.0,0.0,0.0,-1.5085,-1.5593,-1.5808,-1.6225,-1.6531,-1.6531,-1.6331,-1.6194,-1.6194,0.0,0.0,0.0,0.0,0.0,0.0,0.0,0.0,0.0,0.0,-1.7896,-1.7894,-1.8501,-1.8972,-1.9295,-1.8352,0.0,0.0,0.0,0.0,0.0,0.0,0.0,0.0,0.0,0.0,0.0,0.0,0.0,0.0,0.0,0.0,0.0,0.0,0.0,0.0,0.0,0.0,0.0,0.0,0.0,0.0,-3.4554,-3.7892,-4.0447,-3.9539,-3.6953,-3.386,-3.0982,0.0,0.0,-2.172,-2.0934,-2.0672,-2.0888,-2.1304,-2.2058,-2.3394,-2.401,0.0,0.0,0.0,0.0,0.0,0.0,0.0,0.0,0.0,0.0,0.0,0.0,0.0,0.0,-4.6469,-4.6116,-4.5213,-4.4889,-4.4358,-4.3671,-4.3856,-4.3798,-4.3534,-4.3719,-4.3457,-4.2887,-4.2887,0.0,0.0,0.0,0.0,0.0,-4.2887,-4.2887,-4.2887,-4.2887,-4.2887,-4.2887,-4.2887,-4.2887,-4.2887,0.0,0.0,0.0,0.0,0.0,0.0,0.0,-1.439,-1.4901,-1.5162,-1.5793,-1.6194,-1.6194,-1.6194,-1.6194,-1.6194,0.0,0.0,0.0,0.0,0.0,0.0,0.0,0.0,0.0,-1.6921,-1.7532,-1.7716,-1.8266,-1.8861,-1.9453,-1.8553,-1.7746,-1.7022,0.0,0.0,0.0,0.0,0.0,0.0,0.0,0.0,-1.3886,0.0,0.0,0.0,0.0,0.0,0.0,0.0,0.0,0.0,0.0,0.0,0.0,0.0,-2.3322,0.0,0.0,-3.2167,-3.446,-3.4073,-3.2117,0.0,0.0,0.0,0.0,-2.115,-2.0597,-2.0381,-2.0643,-2.1227,-2.2043,-2.3117,-2.3871,0.0,0.0,0.0,0.0,0.0,0.0,0.0,0.0,0.0,0.0,0.0,0.0,0.0,0.0,-4.6469,-4.6102,-4.5288,-4.4945,-4.4546,-4.4037,-4.371,-4.3413,-4.3197,-4.3394,-4.324,-4.2887,-4.2887,0.0,0.0,0.0,0.0,0.0,-4.2887,-4.2887,-4.2887,-4.2887,-4.2887,-4.2887,-4.2887,-4.2887,-4.2887,0.0,0.0,0.0,0.0,0.0,0.0,0.0,0.0,0.0,-1.4978,-1.5685,-1.6131,-1.6131,-1.6163,-1.6194,-1.6194,0.0,0.0,0.0,0.0,0.0,0.0,0.0,0.0,0.0,-1.624,-1.6711,-1.7621,-1.7711,-1.8273,-1.9249,-1.8883,-1.8322,-1.7622,-1.7279,0.0,0.0,0.0,0.0,0.0,0.0,0.0,0.0,0.0,0.0,0.0,0.0,0.0,0.0,0.0,0.0,0.0,0.0,0.0,0.0,0.0,0.0,0.0,0.0,0.0,0.0,0.0,0.0,0.0,0.0,0.0,0.0,0.0,0.0,-2.0505,-2.118,-2.1812,-2.249,-2.324,-2.3933,0.0,0.0,0.0,0.0,0.0,0.0,0.0,0.0,0.0,0.0,0.0,0.0,0.0,0.0,-4.6306,-4.579,-4.4732,-4.5153,-4.4827,-4.371,-4.3737,-4.3402,-4.2833,-4.2873,-4.2887,-4.2887,-4.2887,0.0,0.0,0.0,0.0,0.0,-4.2887,-4.2887,-4.2887,-4.2887,-4.2887,-4.2887,-4.2887,-4.2887,-4.2873,0.0,0.0,0.0,0.0,0.0,0.0,0.0,0.0,0.0,0.0,-1.4701,-1.5439,-1.5439,-1.5901,-1.6194,0.0,0.0,0.0,0.0,0.0,0.0,0.0,0.0,0.0,0.0,-1.6571,-1.7212,-1.7747,-1.8717,-1.9737,-2.0783,-2.0691,-1.976,-1.814,-1.829,-1.7052,0.0,0.0,0.0,0.0,0.0,0.0,0.0,0.0,0.0,0.0,-1.4515,-1.5666,0.0,0.0,0.0,0.0,0.0,0.0,0.0,0.0,-2.0304,-2.0551,-2.1658,0.0,-2.2906,-2.2906,0.0,0.0,0.0,0.0,0.0,0.0,0.0,0.0,0.0,-2.1427,-2.2089,-2.3794,-2.4641,0.0,0.0,0.0,0.0,0.0,0.0,0.0,0.0,0.0,0.0,0.0,0.0,0.0,0.0,-4.4664,-4.4501,-4.4691,-4.3932,-4.3172,-4.2426,-4.2873,-4.2806,-4.2222,-4.267,-4.2887,-4.2887,-4.2887,0.0,0.0,0.0,0.0,-4.2887,-4.2887,-4.2887,-4.2887,-4.2887,-4.2887,-4.2887,-4.2887,-4.2887,-4.2819,0.0,0.0,0.0,0.0,0.0,0.0,0.0,0.0,0.0,0.0,0.0,0.0,0.0,0.0,0.0,0.0,0.0,0.0,0.0,0.0,0.0,0.0,0.0,0.0,-1.594,-1.6447,-1.715,-1.7987,-1.8667,-1.9728,-2.1111,-2.0825,-1.9931,-1.8478,-1.7276,-1.6298,0.0,0.0,0.0,0.0,-1.4645,0.0,0.0,0.0,0.0,0.0,-1.4637,-1.5563,0.0,-1.8136,-1.909,-1.9842,0.0,0.0,0.0,0.0,-2.0058,-2.0304,-2.0304,-2.0518,-2.0749,-2.0749,-2.0749,-2.0749,0.0,0.0,0.0,0.0,0.0,0.0,0.0,0.0,0.0,0.0,0.0,0.0,0.0,0.0,0.0,0.0,0.0,0.0,0.0,0.0,0.0,0.0,0.0,0.0,0.0,-4.3959,-4.3674,-4.347,-4.3759,-4.3588,-4.2819,-4.2873,-4.2724,-4.2412,-4.2724,-4.2887,-4.2887,-4.2887,-4.2738,0.0,0.0,0.0,-4.2127,-4.2656,-4.2561,-4.21,-4.2371,-4.2317,-4.2073,-4.2073,-4.2249,-4.2439,0.0,0.0,0.0,0.0,0.0,0.0,0.0,0.0,0.0,0.0,0.0,0.0,0.0,0.0,0.0,0.0,0.0,0.0,0.0,0.0,0.0,0.0,0.0,-1.6194,-1.6194,-1.6194,-1.6855,-1.8191,-1.853,-1.9512,-2.1154,-2.0866,-2.0159,-1.9014,-1.5704,-1.5041,0.0,0.0,0.0,0.0,-1.4361,0.0,0.0,0.0,0.0,0.0,0.0,0.0,0.0,-1.7546,-1.8531,-1.9271,-1.9179,0.0,0.0,0.0,0.0,0.0,-2.0181,-2.0643,-2.115,-2.115,-2.1227,-2.1273,0.0,0.0,0.0,0.0,0.0,0.0,0.0,0.0,0.0,0.0,0.0,0.0,0.0,0.0,0.0,0.0,0.0,0.0,0.0,0.0,0.0,0.0,0.0,0.0,0.0,-4.3685,-4.3271,-4.2168,-4.3834,-4.436,-4.3682,-4.3326,-4.2978,-4.2751,-4.2846,-4.2833,-4.2751,-4.2751,-4.2426,-4.1896,0.0,0.0,-4.1205,-4.2195,-4.2019,-4.1164,-4.1793,-4.1731,-4.1295,-4.139,-4.1677,-4.2017,0.0,0.0,0.0,0.0,0.0,0.0,0.0,0.0,0.0,0.0,0.0,0.0,0.0,0.0,0.0,0.0,0.0,0.0,0.0,0.0,0.0,0.0,-1.6194,-1.6194,-1.6194,-1.6194,-1.6855,-1.8191,-1.9962,-2.1314,-2.228,-2.3514,-2.2881,-2.054,-1.593,-1.4584,-1.5624,-1.3651,-1.2891,-1.313,-1.4513,0.0,0.0,0.0,0.0,0.0,0.0,0.0,0.0,-1.6624,-1.7746,-1.9194,-1.8561,0.0,0.0,0.0,0.0,0.0,-1.961,-1.9934,-2.0458,-2.0458,-2.0872,-2.115,-2.058,0.0,0.0,0.0,0.0,0.0,0.0,0.0,0.0,0.0,0.0,0.0,0.0,0.0,0.0,0.0,0.0,0.0,0.0,0.0,0.0,0.0,0.0,0.0,0.0,-4.3302,-4.3258,-4.2786,-4.2583,-4.2651,-4.3009,-4.3737,-4.3432,-4.2141,-4.2656,-4.2629,-4.2141,-4.2141,-4.1815,-4.1259,0.0,-4.1286,-4.1123,-4.1313,-4.1286,-4.117,-4.2025,-4.23,-4.2286,-4.2757,-4.2673,-4.2081,0.0,0.0,0.0,0.0,0.0,0.0,0.0,0.0,0.0,0.0,0.0,0.0,0.0,0.0,0.0,0.0,0.0,0.0,0.0,0.0,0.0,-1.6194,-1.5854,-1.5839,-1.6193,-1.6194,-1.7054,-1.8792,-2.0118,-2.1535,-2.304,-2.2635,-2.165,-2.007,-1.6094,-1.492,-1.5789,-1.3677,-1.2874,-1.3038,0.0,0.0,0.0,0.0,0.0,0.0,0.0,0.0,0.0,0.0,-1.7131,-1.7684,-1.8084,0.0,0.0,0.0,0.0,0.0,-1.9718,-2.0335,-2.0919,-2.1288,-2.1057,-2.0875,-2.1288,0.0,0.0,0.0,0.0,0.0,0.0,0.0,0.0,0.0,0.0,0.0,0.0,0.0,0.0,0.0,0.0,0.0,0.0,0.0,0.0,0.0,0.0,0.0,0.0,0.0,-4.2939,-4.1985,-4.38,-4.4276,-4.3164,-4.4958,-4.4712,-4.248,-4.3286,-4.333,-4.2735,-4.329,-4.2984,-4.2038,0.0,-4.2151,-4.1646,-4.2249,-4.2137,-4.1662,-4.2365,-4.2453,-4.221,-4.231,-4.1458,-4.0112,0.0,0.0,0.0,0.0,0.0,0.0,0.0,0.0,0.0,0.0,0.0,0.0,0.0,0.0,0.0,0.0,0.0,0.0,0.0,0.0,-1.6194,-1.6194,-1.5408,-1.5424,-1.6409,-1.6285,-1.7299,-1.9533,-2.0212,-2.1401,-2.3016,-2.1181,-1.9935,-1.9144,-1.6281,-1.5551,-1.6286,-1.3904,-1.3107,-1.3421,0.0,0.0,0.0,0.0,0.0,0.0,0.0,0.0,0.0,0.0,0.0,0.0,0.0,0.0,0.0,-1.8392,-1.8638,-1.8684,-1.9763,-2.0443,-2.098,-2.1658,0.0,-2.1442,-2.3121,0.0,0.0,0.0,0.0,0.0,0.0,0.0,0.0,0.0,0.0,0.0,0.0,0.0,0.0,0.0,0.0,0.0,0.0,0.0,0.0,0.0,0.0,0.0,0.0,0.0,-4.3119,-4.1521,-4.4486,-4.5127,-4.3008,-4.4923,-4.5125,-4.3566,-4.4125,-4.4086,-4.3432,-4.389,-4.3486,-4.2371,-4.2662,-4.2314,-4.1587,-4.2632,-4.2429,-4.1558,-4.2167,-4.204,-4.1459,-4.1325,-4.0152,-3.86,0.0,0.0,0.0,0.0,0.0,0.0,0.0,0.0,0.0,0.0,0.0,0.0,0.0,0.0,0.0,0.0,0.0,0.0,0.0,0.0,-1.6194,-1.6194,-1.4962,-1.5162,-1.7085,-1.6531,-1.753,-2.0227,-2.0888,-2.1405,-2.1695,-2.0562,-1.9501,-1.849,-1.6516,-1.6186,-1.6947,-1.4301,-1.3532,-1.4067,-1.3452,0.0,0.0,0.0,0.0,0.0,0.0,0.0,0.0,0.0,0.0,0.0,0.0,0.0,-1.7961,-1.7485,-1.8238,-1.924,-1.9333,-1.941,-1.9595,-2.0289,0.0,0.0,-2.6426,-2.6995,0.0,0.0,0.0,0.0,0.0,0.0,0.0,0.0,0.0,0.0,0.0,0.0,0.0,0.0,0.0,0.0,0.0,0.0,0.0,0.0,0.0,0.0,0.0,0.0,0.0,-4.2638,-4.2866,-4.2648,-4.1845,-4.2013,-4.327,-4.5584,-4.505,-4.4442,-4.382,-4.2576,-4.1649,-4.101,-4.0419,-4.0144,-4.0115,-4.0796,-4.0665,-4.013,-4.0928,-4.0658,-3.9956,-4.0477,-4.0041,-3.9169,0.0,0.0,0.0,0.0,0.0,0.0,0.0,0.0,0.0,0.0,0.0,0.0,0.0,0.0,0.0,0.0,0.0,0.0,0.0,0.0,-1.6194,-1.6194,-1.4916,-1.4947,-1.6532,-1.6331,-1.7345,-1.9672,-2.0782,-2.1121,-2.0774,-1.9695,-1.8872,-1.8243,-1.6863,-1.6382,-1.6471,-1.5055,-1.4113,-1.3571,-1.3298,-1.2801,0.0,0.0,0.0,0.0,0.0,0.0,0.0,0.0,-1.5332,-1.6024,0.0,-1.6379,-1.6623,-1.8069,-1.8561,-1.8808,-1.9671,-2.0826,-2.1951,-2.2609,0.0,0.0,0.0,0.0,0.0,0.0,0.0,0.0,0.0,0.0,0.0,0.0,0.0,0.0,0.0,0.0,0.0,0.0,0.0,0.0,0.0,0.0,0.0,0.0,0.0,0.0,0.0,0.0,0.0,-4.155,-4.307,-4.3509,-4.2695,-4.3215,-4.4253,-4.5653,-4.4403,-4.3463,-4.2784,-4.2865,-4.2582,-4.1927,-4.1708,-4.1829,-4.2175,-4.2025,-4.2296,-4.2739,-4.2147,-4.1364,-4.0531,-4.0153,-3.9225,-3.822,0.0,0.0,0.0,0.0,0.0,0.0,0.0,0.0,0.0,0.0,0.0,0.0,0.0,0.0,0.0,0.0,0.0,0.0,0.0,-1.6194,-1.6194,-1.6194,-1.5116,-1.4947,-1.587,-1.5872,-1.7007,-1.9302,-2.0428,-2.0518,-1.9623,-1.9128,-1.8534,-1.7854,-1.7333,-1.7,-1.6763,-1.567,-1.4778,-1.4113,-1.3682,-1.3247,0.0,0.0,0.0,0.0,0.0,0.0,0.0,0.0,-1.4701,0.0,0.0,0.0,-1.5654,-1.7961,-1.8269,-1.8192,-1.9594,-2.1304,-2.2778,0.0,0.0,0.0,0.0,0.0,0.0,0.0,0.0,0.0,0.0,0.0,0.0,0.0,0.0,0.0,0.0,0.0,0.0,0.0,0.0,0.0,0.0,0.0,0.0,0.0,0.0,0.0,0.0,0.0,0.0,0.0,-4.3259,-4.3891,-4.3089,-4.3677,-4.4187,-4.4649,-4.3532,-4.2967,-4.293,-4.3371,-4.3362,-4.2894,-4.2694,-4.2863,-4.3248,-4.3017,-4.3322,-4.3808,-4.2762,-4.1735,-4.0742,-4.0192,-3.9228,-3.825,0.0,0.0,0.0,0.0,0.0,0.0,0.0,0.0,0.0,0.0,0.0,0.0,0.0,0.0,0.0,0.0,0.0,0.0,-1.6148,-1.6194,-1.6194,-1.6194,-1.5562,-1.5193,-1.5193,-1.5193,-1.653,-1.9271,-1.9934,-1.9546,-1.8222,-1.8931,-1.8531,-1.7224,-1.7884,-1.8192,-1.8053,-1.607,-1.5593,-1.6071,-1.4732,-1.4206,-1.4129,0.0,0.0,0.0,0.0,0.0,0.0,0.0,-1.3652,-1.4098,0.0,0.0,0.0,-1.6809,-1.7224,-1.7546,-1.8947,-2.032,0.0,0.0,0.0,0.0,0.0,0.0,0.0,0.0,0.0,0.0,0.0,0.0,0.0,0.0,0.0,0.0,0.0,0.0,0.0,0.0,0.0,0.0,0.0,0.0,0.0,0.0,0.0,0.0,0.0,0.0,0.0,0.0,-4.3202,-4.327,-4.2602,-4.2602,-4.2602,-4.2602,-4.2602,-4.3294,-4.4579,-4.3901,-4.3593,-4.3562,-4.2879,-4.2602,-4.2663,-4.3347,-4.3145,-4.2389,-4.2312,-4.1429,-4.0259,-4.0476,-4.021,-3.9662,0.0,0.0,0.0,0.0,0.0,0.0,0.0,0.0,0.0,0.0,0.0,0.0,0.0,0.0,0.0,0.0,0.0,0.0,-1.6193,-1.6194,-1.6194,-1.6194,-1.5562,-1.4978,-1.4501,-1.4498,-1.5591,-1.7807,-1.7546,-1.7684,-1.8176,-1.7454,-1.7146,-1.7208,-1.7408,-1.7239,-1.6747,-1.6148,-1.5747,-1.5455,-1.5055,-1.4609,-1.4175,0.0,0.0,0.0,0.0,0.0,0.0,0.0,0.0,0.0,0.0,0.0,0.0,-1.7085,-1.8576,-2.0177,-2.058,-2.3106,0.0,0.0,0.0,0.0,0.0,0.0,0.0,0.0,0.0,0.0,0.0,0.0,0.0,0.0,0.0,0.0,0.0,0.0,0.0,0.0,0.0,0.0,0.0,0.0,0.0,0.0,0.0,0.0,0.0,0.0,0.0,0.0,-4.037,-4.0863,-4.1105,-4.1648,-4.1909,-4.1909,-4.1909,-4.2355,-4.3187,-4.2987,-4.2894,-4.2879,-4.2694,-4.2863,-4.3377,-4.404,-4.3874,-4.3129,-4.1917,-4.146,-4.1288,-3.9646,-3.9196,-3.9429,0.0,0.0,0.0,0.0,0.0,0.0,0.0,0.0,0.0,0.0,0.0,0.0,0.0,0.0,0.0,0.0,0.0,0.0,0.0,0.0,-1.6194,-1.6194,-1.5808,-1.5162,-1.4221,-1.3944,-1.4406,-1.5608,-1.5747,-1.6486,-1.7777,-1.6701,-1.6701,-1.7592,-1.7316,-1.6978,-1.6578,-1.6302,-1.6117,-1.5979,-1.5979,-1.5916,-1.5731,0.0,0.0,0.0,0.0,0.0,0.0,0.0,0.0,0.0,0.0,0.0,0.0,-1.6717,-1.8346,-2.0193,-2.0749,0.0,0.0,0.0,0.0,0.0,0.0,0.0,0.0,0.0,0.0,0.0,0.0,0.0,0.0,0.0,0.0,0.0,0.0,0.0,0.0,0.0,0.0,0.0,0.0,0.0,0.0,0.0,0.0,0.0,0.0,0.0,0.0,0.0,-3.9536,-4.0074,-4.0489,-4.1232,-4.1601,-4.1601,-4.1878,-4.2217,-4.2586,-4.2032,-4.194,-4.2217,-4.2494,-4.2833,-4.3233,-4.3947,-4.3775,-4.2978,-4.1971,-4.1613,-4.1461,-3.9871,-3.9369,-3.942,0.0,0.0,0.0,0.0,0.0,0.0,0.0,0.0,0.0,0.0,0.0,0.0,0.0,0.0,0.0,0.0,0.0,0.0,0.0,0.0,-1.6102,-1.6102,-1.5993,-1.5362,-1.4144,-1.3452,-1.3109,-1.3109,-1.439,-1.5701,-1.6993,-1.6394,-1.6793,-1.7992,-1.7439,-1.7162,-1.707,-1.6455,-1.6578,-1.7208,-1.7208,-1.7577,-1.7992,-1.6747,0.0,0.0,0.0,0.0,0.0,0.0,0.0,0.0,-1.4098,-1.4747,-1.5408,-1.601,-1.7193,-1.8606,0.0,0.0,0.0,0.0,0.0,0.0,0.0,0.0,0.0,0.0,0.0,0.0,0.0,0.0,0.0,0.0,0.0,0.0,0.0,0.0,0.0,0.0,0.0,0.0,0.0,0.0,0.0,0.0,0.0,0.0,0.0,0.0,0.0,-3.9354,-3.9951,-4.0274,-4.0213,-4.1155,-4.154,0.0,-4.2032,-4.2355,-4.2371,-4.1212,-4.1078,-4.1724,-4.2279,-4.254,-4.2648,-4.3285,-4.3038,-4.2323,-4.2186,-4.1675,-4.0968,-4.0602,-4.0027,-3.9494,0.0,0.0,0.0,0.0,0.0,0.0,0.0,0.0,0.0,0.0,0.0,0.0,0.0,0.0,0.0,0.0,0.0,0.0,0.0,0.0,-1.5424,-1.5424,-1.4421,-1.3713,-1.3421,-1.2754,-1.2416,-1.2416,-1.3232,-1.4313,-1.5624,-1.5485,-1.5854,-1.664,-1.7024,-1.6916,-1.6408,-1.6256,-1.6578,-1.7208,-1.7208,-1.7285,-1.7377,-1.7101,-1.6332,0.0,0.0,0.0,0.0,0.0,0.0,0.0,-1.4932,-1.5455,-1.6024,-1.6148,-1.7561,-1.9471,0.0,0.0,0.0,0.0,0.0,0.0,0.0,0.0,0.0,0.0,0.0,0.0,0.0,0.0,0.0,0.0,0.0,0.0,0.0,0.0,0.0,0.0,0.0,0.0,0.0,0.0,0.0,0.0,0.0,0.0,0.0,0.0,0.0,-3.7938,-3.8585,-3.8692,-3.8154,-4.0447,-4.1047,0.0,-4.0108,-4.0428,-4.0966,-4.1766,-4.2248,-4.2371,-4.1986,-4.2109,-4.2617,-4.2756,-4.2692,-4.241,-4.1137,-4.0562,-4.0313,-3.9522,-3.8783,-3.8276,0.0,0.0,0.0,0.0,0.0,0.0,0.0,0.0,0.0,0.0,0.0,0.0,0.0,0.0,0.0,0.0,0.0,0.0,0.0,0.0,0.0,-1.4716,-1.3744,-1.3201,-1.3201,-1.2539,-1.22,-1.22,-1.2878,0.0,0.0,0.0,0.0,-1.7162,-1.7193,-1.7009,-1.6655,-1.6332,-1.6578,-1.7208,-1.7208,-1.7393,-1.7638,-1.7316,-1.6763,-1.6071,-1.5424,0.0,0.0,0.0,0.0,0.0,0.0,0.0,-1.6194,-1.6194,-1.7408,-1.9223,0.0,0.0,0.0,0.0,0.0,0.0,0.0,0.0,0.0,0.0,0.0,0.0,0.0,0.0,0.0,0.0,0.0,0.0,0.0,0.0,0.0,0.0,0.0,0.0,0.0,0.0,0.0,0.0,0.0,0.0,0.0,-3.8077,-3.7353,-3.703,-3.7353,-3.7369,-3.7015,-3.8754,-3.9277,-3.8554,-3.8877,-3.9216,-3.9567,-4.0612,-4.1124,-4.1124,-4.1109,-4.1258,-4.1632,-4.1986,-4.1878,-4.1386,-4.0553,-3.9943,-3.9574,-3.8993,-3.8368,-3.783,0.0,0.0,0.0,0.0,0.0,0.0,0.0,0.0,0.0,0.0,0.0,0.0,0.0,0.0,0.0,0.0,0.0,0.0,0.0,0.0,0.0,0.0,-1.3313,-1.3032,-1.3032,-1.2477,-1.22,-1.22,0.0,0.0,0.0,0.0,0.0,-1.8161,-1.75,-1.7208,-1.7162,-1.6471,-1.6578,-1.7208,-1.7208,-1.7531,-1.7976,-1.7408,-1.7131,-1.6886,-1.5777,-1.5378,-1.5378,-1.5378,0.0,0.0,0.0,0.0,-1.6194,-1.6194,-1.6993,-1.8299,0.0,0.0,0.0,0.0,0.0,0.0,0.0,0.0,0.0,0.0,0.0,0.0,0.0,0.0,0.0,0.0,0.0,0.0,0.0,0.0,0.0,0.0,0.0,0.0,0.0,0.0,0.0,0.0,0.0,0.0,-3.7677,-3.7569,-3.7246,-3.6676,-3.6661,-3.6615,-3.6492,-3.7277,-3.7615,-3.7507,-3.8185,-3.8446,-3.8354,-3.9031,-3.9367,-3.9521,-4.0074,-4.0382,-4.0536,-4.117,-4.0964,-4.0222,-4.0102,-3.9654,-3.9054,-3.8921,-3.8424,-3.7862,0.0,0.0,0.0,0.0,0.0,0.0,0.0,0.0,0.0,0.0,0.0,0.0,0.0,0.0,0.0,0.0,0.0,0.0,-1.4206,0.0,0.0,-1.2493,-1.2385,-1.2323,-1.2323,-1.2257,-1.22,-1.22,0.0,0.0,0.0,0.0,0.0,-1.8161,0.0,-1.7208,-1.7162,-1.6471,-1.6578,-1.7208,-1.7208,-1.7254,-1.7316,-1.7239,-1.684,-1.6302,-1.6131,-1.607,-1.607,-1.607,-1.607,0.0,0.0,0.0,-1.6194,-1.6194,-1.6331,-1.6915,0.0,0.0,0.0,0.0,0.0,0.0,0.0,0.0,0.0,0.0,0.0,0.0,0.0,0.0,0.0,0.0,0.0,0.0,0.0,0.0,0.0,0.0,0.0,0.0,0.0,0.0,0.0,0.0,0.0,0.0,-3.8369,-3.7815,-3.7461,-3.7369,-3.7369,-3.7092,-3.6492,-3.7738,-3.8077,-3.7507,-3.8185,-3.82,-3.7661,-3.8338,-3.897,-3.949,-3.9582,-3.9951,-4.0505,-4.0597,-4.0558,-4.0412,-3.983,-3.9531,-3.9429,-3.9401,-3.8903,-3.8286,0.0,0.0,0.0,0.0,0.0,0.0,0.0,0.0,0.0,0.0,0.0,0.0,0.0,0.0,0.0,-1.2647,-1.2908,-1.3078,-1.3078,-1.2801,-1.2508,-1.22,-1.22,-1.22,-1.22,-1.22,-1.22,0.0,0.0,0.0,0.0,-1.7207,-1.8638,0.0,0.0,0.0,0.0,0.0,0.0,-1.664,-1.664,0.0,0.0,-1.664,-1.6455,-1.6194,-1.6194,-1.6194,-1.6194,-1.6194,-1.6194,-1.6194,-1.6194,0.0,0.0,0.0,-1.6194,0.0,0.0,0.0,0.0,0.0,0.0,0.0,0.0,0.0,0.0,0.0,0.0,0.0,0.0,0.0,0.0,0.0,0.0,0.0,0.0,0.0,0.0,0.0,0.0,0.0,0.0,0.0,0.0,0.0,0.0,-3.7384,-3.7384,-3.7092,-3.6938,-3.6938,-3.6938,-3.6799,-3.6492,-3.7076,-3.723,-3.6953,-3.7631,-3.7584,-3.6969,-3.8031,-3.8877,-3.949,-3.949,-3.9859,-4.0489,-4.0489,-4.0489,-4.0459,-4.0166,-4.0043,-4.0009,-3.9564,-3.8886,-3.8135,0.0,0.0,0.0,0.0,0.0,0.0,0.0,0.0,0.0,0.0,0.0,0.0,0.0,0.0,0.0,0.0,-1.22,-1.22,-1.22,-1.2354,-1.2369,-1.221,-1.22,-1.22,-1.22,-1.22,0.0,0.0,0.0,0.0,-1.5516,-1.8084,-1.9919,0.0,-2.1227,0.0,0.0,0.0,0.0,0.0,0.0,0.0,0.0,0.0,-1.6194,-1.6194,-1.6194,-1.6194,-1.6194,-1.6194,-1.6194,-1.6194,-1.6194,-1.6194,0.0,0.0,0.0,0.0,0.0,0.0,0.0,0.0,0.0,0.0,0.0,0.0,0.0,0.0,0.0,0.0,0.0,0.0,0.0,0.0,0.0,0.0,0.0,0.0,0.0,0.0,0.0,0.0,0.0,0.0,0.0,0.0,0.0,-3.6492,-3.6492,-3.6492,-3.6415,-3.6245,-3.6399,-3.6415,-3.6245,-3.6399,-3.6492,-3.6492,-3.7015,-3.6984,-3.6522,-3.7538,-3.8369,-3.9016,-3.9152,-3.9521,-3.9982,-4.0166,-4.0243,-4.0259,-4.0428,-4.0489,-4.042,-3.9849,-3.9088,-3.8273,0.0,0.0,0.0,0.0,0.0,0.0,0.0,0.0,0.0,0.0,0.0,0.0,-1.22,-1.22,-1.22,-1.22,-1.22,-1.22,-1.22,-1.2801,-1.2862,-1.2241,-1.22,0.0,-1.22,-1.22,0.0,0.0,0.0,0.0,-1.6193,-1.8315,-1.9672,-2.0381,-2.1011,-2.0903,-2.0165,0.0,0.0,0.0,0.0,0.0,0.0,0.0,0.0,0.0,0.0,0.0,-1.6194,-1.6194,-1.6194,-1.6194,-1.6194,-1.6194,-1.6194,0.0,0.0,0.0,0.0,0.0,0.0,0.0,0.0,0.0,0.0,0.0,0.0,0.0,0.0,0.0,0.0,0.0,0.0,0.0,0.0,0.0,0.0,0.0,0.0,0.0,0.0,0.0,0.0,0.0,0.0,0.0,0.0,-3.6492,-3.6492,-3.6492,-3.6199,-3.5553,-3.6153,-3.6184,-3.5568,-3.6168,-3.6492,-3.6492,-3.6538,-3.6522,-3.6492,-3.6569,-3.6969,-3.7646,-3.8292,-3.8585,-3.8662,-3.9308,-3.9536,-3.9598,-4.0243,-4.0489,-4.0489,-4.0455,-3.992,-3.9035,0.0,0.0,0.0,0.0,0.0,0.0,0.0,0.0,0.0,0.0,0.0,0.0,0.0,-1.22,-1.22,-1.22,-1.22,-1.22,-1.22,-1.2416,-1.2446,-1.22,-1.22,-1.22,-1.22,-1.22,0.0,0.0,0.0,-1.4667,-1.5608,-1.7638,-1.8484,-1.8407,-2.041,-2.0441,-1.8915,-1.8407,0.0,0.0,0.0,0.0,0.0,0.0,0.0,0.0,0.0,0.0,0.0,-1.8531,-1.8223,-1.7485,-1.7485,-1.6886,-1.6194,-1.6194,-1.6194,0.0,0.0,0.0,0.0,0.0,0.0,0.0,0.0,0.0,0.0,0.0,0.0,0.0,0.0,0.0,0.0,0.0,0.0,0.0,0.0,0.0,0.0,0.0,0.0,0.0,0.0,0.0,0.0,0.0,0.0,0.0,-3.5229,-3.5229,-3.5121,-3.4874,-3.5106,-3.5106,-3.4874,-3.5537,-3.5845,-3.5845,-3.6276,-3.6492,-3.6492,-3.6492,-3.6615,-3.6861,-3.7107,-3.7707,-3.8523,-3.8769,-3.8877,-3.8893,-3.9105,-3.9231,-3.9231,-3.9231,-3.8713,-3.7948,0.0,0.0,0.0,0.0,0.0,0.0,0.0,0.0,0.0,0.0,0.0,0.0,0.0,0.0,-1.22,-1.22,-1.24,-1.2431,-1.22,-1.24,-1.2431,-1.22,-1.22,-1.22,-1.22,-1.22,0.0,0.0,0.0,0.0,0.0,-1.6793,-1.7285,-1.6947,-1.9008,-1.9423,0.0,0.0,0.0,-1.6824,0.0,0.0,-1.6609,0.0,0.0,0.0,0.0,0.0,0.0,0.0,0.0,-1.8561,-1.8561,-1.7484,-1.6194,-1.6194,-1.6194,0.0,0.0,0.0,0.0,0.0,0.0,0.0,0.0,0.0,0.0,0.0,0.0,0.0,0.0,0.0,0.0,0.0,0.0,0.0,0.0,0.0,0.0,0.0,0.0,0.0,0.0,0.0,0.0,0.0,0.0,0.0,-3.3812,-3.3812,-3.3812,-3.3812,-3.3581,-3.3581,-3.3796,-3.4258,-3.4552,-3.4783,-3.5491,-3.5938,-3.6153,-3.6384,-3.6492,-3.6492,-3.6492,-3.6999,-3.7861,-3.8077,-3.8169,-3.82,-3.8415,-3.8508,-3.8508,-3.8508,-3.7998,-3.7246,0.0,0.0,0.0,0.0,0.0,0.0,0.0,0.0,0.0,-1.22,0.0,0.0,0.0,0.0,0.0,-1.2262,-1.2847,-1.2955,-1.2292,-1.2862,-1.2939,-1.2292,-1.2231,-1.2231,-1.2262,-1.2215,0.0,0.0,0.0,0.0,0.0,0.0,-1.6194,-1.6239,-1.6901,-1.7946,-1.921,0.0,-1.8808,-1.8053,0.0,-1.6671,-1.75,0.0,0.0,0.0,-2.284,-2.3332,0.0,-2.2644,0.0,0.0,0.0,0.0,-1.6194,-1.6194,0.0,0.0,0.0,0.0,0.0,0.0,0.0,0.0,0.0,0.0,0.0,0.0,0.0,0.0,0.0,0.0,0.0,0.0,0.0,0.0,0.0,0.0,0.0,0.0,0.0,0.0,0.0,0.0,0.0,0.0,0.0,-3.2336,-3.2336,-3.2336,-3.2336,-3.2336,-3.1705,-3.1674,-3.2321,-3.2351,-3.269,-3.3352,-3.4135,-3.4844,-3.5476,-3.6184,-3.6492,-3.6492,-3.6492,-3.6492,-3.6538,-3.7169,-3.743,-3.7477,-3.8154,-3.8415,-3.8415,-3.8446,-3.7953,-3.7093,0.0,0.0,0.0,0.0,0.0,0.0,0.0,0.0,0.0,0.0,0.0,0.0,-1.2878,-1.3355,-1.3652,-1.3652,-1.3821,-1.3836,-1.3652,-1.3821,-1.3836,-1.3652,-1.3175,-1.3155,-1.3636,-1.2693,0.0,0.0,0.0,0.0,0.0,0.0,0.0,0.0,-1.6901,-1.7161,-1.7099,-1.7592,0.0,0.0,-1.8177,-1.8546,0.0,0.0,0.0,0.0,0.0,-2.4025,-2.4148,0.0,-2.3583,-2.1042,0.0,0.0,0.0,0.0,0.0,0.0,-1.6194,0.0,0.0,0.0,0.0,0.0,0.0,0.0,0.0,0.0,0.0,0.0,0.0,0.0,0.0,0.0,0.0,0.0,0.0,0.0,0.0,0.0,0.0,0.0,0.0,0.0,0.0,0.0,-3.094,-3.094,-3.094,-3.094,-3.094,-3.094,-3.0755,-3.0782,-3.094,-3.1428,-3.1767,-3.1967,-3.3688,-3.4597,-3.4828,-3.5953,-3.6492,-3.6492,-3.6492,-3.6492,-3.6476,-3.6168,-3.5783,-3.5414,-3.6061,-3.6322,-3.6384,-3.6861,-3.6904,-3.6682,0.0,0.0,0.0,0.0,0.0,0.0,0.0,0.0,0.0,0.0,0.0,0.0,-1.3544,-1.3975,-1.4206,-1.4206,-1.4206,-1.4206,-1.4206,-1.4206,-1.4206,-1.4206,-1.3821,-1.3806,-1.419,-1.3436,0.0,0.0,0.0,0.0,0.0,0.0,0.0,0.0,0.0,0.0,0.0,0.0,0.0,0.0,-1.79,0.0,0.0,-2.1951,-2.2809,0.0,0.0,0.0,-2.6865,-2.7149,-2.541,0.0,0.0,0.0,0.0,0.0,0.0,0.0,0.0,0.0,0.0,0.0,0.0,0.0,0.0,-1.7807,0.0,0.0,0.0,0.0,0.0,0.0,0.0,0.0,0.0,0.0,0.0,0.0,0.0,0.0,0.0,0.0,0.0,0.0,0.0,-2.9541,-2.9556,-2.9556,-2.9556,-2.9556,-2.9556,-2.9556,-2.9556,-2.9556,-2.9556,-2.995,-3.0289,-3.0582,-3.2074,-3.3075,-3.3673,-3.4706,-3.5522,-3.6076,-3.6076,-3.6076,-3.6045,-3.5645,-3.5414,-3.5367,-3.5475,-3.566,-3.5953,-3.603,-3.6245,-3.646,0.0,0.0,0.0,0.0,0.0,0.0,0.0,0.0,0.0,0.0,-1.297,-1.3652,-1.4252,-1.4375,-1.4409,-1.4409,-1.4409,-1.4409,-1.4409,-1.4409,-1.4409,-1.4409,-1.436,-1.436,-1.4409,-1.4283,0.0,0.0,0.0,0.0,0.0,0.0,0.0,0.0,0.0,0.0,0.0,0.0,0.0,-1.8115,-1.7224,-1.8469,0.0,0.0,-2.4564,0.0,-2.8295,-2.9602,-2.994,-2.8458,-2.638,0.0,0.0,0.0,0.0,0.0,-1.6331,0.0,0.0,0.0,0.0,0.0,0.0,0.0,-1.6408,-1.7285,-1.8515,0.0,0.0,0.0,0.0,0.0,0.0,0.0,0.0,0.0,0.0,0.0,0.0,0.0,0.0,0.0,0.0,-2.7334,-2.7534,-2.8134,-2.8258,-2.8319,-2.8411,-2.8411,-2.8411,-2.8411,-2.8411,-2.8411,-2.8411,-2.8411,-2.8704,-2.9294,-3.0033,-3.1048,-3.2305,-3.3059,-3.4075,-3.529,-3.5414,-3.5475,-3.5414,-3.5568,-3.5845,-3.6107,-3.566,-3.5753,-3.6091,-3.5645,-3.5891,-3.6291,-1.22,0.0,0.0,0.0,0.0,0.0,0.0,0.0,0.0,0.0,0.0,-1.4855,-1.4993,-1.5485,-1.5808,-1.5808,-1.5808,-1.5808,-1.5808,-1.5808,-1.5808,-1.5808,-1.5285,-1.5255,-1.5808,-1.4747,0.0,0.0,0.0,0.0,0.0,0.0,0.0,0.0,0.0,0.0,0.0,0.0,0.0,-1.8376,-2.0331,0.0,-2.4564,-2.6626,-2.7226,-2.7057,-2.7596,-2.8227,-2.8427,-2.5933,-2.5102,-2.4466,0.0,0.0,0.0,0.0,0.0,0.0,0.0,0.0,0.0,0.0,0.0,0.0,-1.77,-1.7592,-1.7946,0.0,0.0,0.0,0.0,0.0,0.0,0.0,0.0,0.0,0.0,0.0,0.0,0.0,0.0,0.0,0.0,-2.6903,-2.6641,-2.6765,-2.7288,-2.7827,-2.8381,-2.8411,-2.8411,-2.8411,-2.8411,-2.8411,-2.8411,-2.8411,-2.8473,-2.8611,-2.9817,-3.0828,-3.1655,-3.2844,-3.3552,-3.3875,-3.4999,-3.5198,-3.4782,-3.5845,-3.5399,-3.4106,-3.5121,-3.4876,-3.4121,-3.5122,-3.5568,-3.5599,-1.22,0.0,0.0,0.0,0.0,0.0,0.0,0.0,0.0,0.0,0.0,0.0,0.0,-1.6008,-1.6194,-1.6194,-1.6194,-1.6194,-1.6194,-1.6194,-1.6194,-1.6194,-1.5885,-1.5854,-1.6193,-1.5547,-1.5531,0.0,0.0,0.0,0.0,0.0,0.0,0.0,0.0,0.0,0.0,0.0,-1.8376,-2.0268,-2.0657,0.0,-2.4025,-2.6087,-2.6857,-2.6949,-2.7657,-2.8119,-2.8088,-2.5988,-2.5296,0.0,0.0,-2.0595,-1.9657,0.0,-1.7777,-1.6701,0.0,0.0,0.0,-1.7024,0.0,0.0,0.0,-1.7178,-1.7285,0.0,0.0,0.0,0.0,0.0,0.0,0.0,0.0,0.0,0.0,0.0,0.0,0.0,0.0,0.0,0.0,-2.6057,-2.5995,-2.6334,-2.6995,-2.755,-2.7888,-2.8227,-2.8411,-2.8411,-2.8411,-2.8411,-2.8411,-2.8411,-2.8411,-2.8411,-2.9064,-2.974,-3.0428,-3.1105,-3.1951,-3.2936,-3.3644,-3.4166,-3.4582,-3.5598,-3.5183,-3.4044,-3.5076,-3.506,-3.4475,-3.4874,-3.5013,-3.4951,-1.22,0.0,0.0,0.0,0.0,0.0,0.0,0.0,0.0,0.0,0.0,0.0,0.0,0.0,0.0,-1.7146,-1.6823,-1.6654,0.0,0.0,-1.6379,-1.6379,-1.6271,-1.6194,-1.6194,-1.6194,-1.6194,0.0,0.0,0.0,0.0,0.0,0.0,0.0,0.0,0.0,0.0,0.0,0.0,-2.2012,0.0,-2.1381,-2.3271,-2.5195,-2.605,-2.648,-2.7904,-2.8319,-2.8011,-2.6726,0.0,-2.5496,-2.3209,-2.175,0.0,0.0,0.0,0.0,0.0,0.0,0.0,0.0,0.0,-1.6655,0.0,0.0,0.0,0.0,0.0,0.0,0.0,0.0,0.0,0.0,0.0,0.0,0.0,0.0,0.0,0.0,0.0,0.0,0.0,-2.4964,-2.5389,-2.6065,-2.6672,-2.7057,-2.7196,-2.7719,-2.8073,-2.8211,-2.8211,-2.8273,-2.8411,-2.8411,-2.8411,-2.8411,-2.8411,-2.8765,-2.9387,-2.9387,-3.0304,-3.1844,-3.2228,-3.298,-3.3981,-3.4782,-3.4951,-3.4767,-3.5444,-3.546,-3.5059,-3.4659,-3.4412,-3.4274,-1.22,-1.22,0.0,0.0,0.0,0.0,0.0,0.0,0.0,0.0,0.0,0.0,0.0,0.0,0.0,0.0,0.0,0.0,-1.8917,0.0,0.0,-1.7085,-1.6531,-1.6194,-1.6194,-1.6194,-1.6194,-1.6194,0.0,0.0,0.0,0.0,0.0,0.0,-1.6194,0.0,0.0,0.0,-1.9437,0.0,-2.3102,-2.4594,0.0,-2.7503,-2.7311,-2.648,-2.7904,-2.8027,-2.7396,0.0,-2.708,-2.7488,0.0,-2.3086,-2.249,0.0,0.0,0.0,0.0,0.0,0.0,0.0,-1.7654,0.0,0.0,0.0,0.0,0.0,0.0,0.0,0.0,0.0,0.0,0.0,0.0,0.0,0.0,0.0,0.0,0.0,0.0,0.0,0.0,0.0,-2.4702,-2.5358,-2.5481,-2.5826,-2.6472,-2.6603,-2.6888,-2.7488,-2.7503,-2.7796,-2.8396,-2.8411,-2.8411,-2.8411,-2.8411,-2.8765,-2.9387,-2.9387,-2.951,-2.9833,-3.1628,-3.2136,-3.1855,-3.3106,-3.4321,-3.546,-3.6107,-3.526,-3.3706,-3.4305,-3.4104,-3.3444,-1.2862,-1.2785,0.0,0.0,0.0,0.0,0.0,0.0,0.0,0.0,0.0,0.0,0.0,0.0,0.0,0.0,0.0,-2.0716,0.0,0.0,0.0,0.0,0.0,0.0,-1.7992,-1.7577,-1.6978,-1.6194,-1.6578,0.0,0.0,0.0,0.0,0.0,-1.7009,0.0,-1.833,0.0,0.0,0.0,0.0,0.0,0.0,-2.7272,-2.7796,-2.7026,-2.7611,-2.7642,-2.7349,0.0,-2.7034,0.0,0.0,0.0,0.0,0.0,0.0,0.0,0.0,0.0,0.0,0.0,0.0,0.0,-1.7085,0.0,-1.664,0.0,0.0,0.0,0.0,0.0,0.0,0.0,0.0,0.0,0.0,0.0,0.0,0.0,0.0,0.0,0.0,0.0,0.0,0.0,0.0,-2.4271,-2.4579,-2.5718,-2.6672,-2.738,-2.7396,-2.7719,-2.8396,-2.8411,-2.8411,-2.8411,-2.8411,-2.855,-2.8827,-2.8827,-2.9018,-2.9433,-3.0304,-3.0936,-3.1459,-3.2428,-3.3398,-3.4337,-3.5075,-3.5029,-3.4599,-3.4536,-3.4014,-3.3306,-1.3806,0.0,0.0,0.0,0.0,0.0,-1.5455,-1.6455,-1.7208,0.0,0.0,0.0,-2.2063,-2.1793,0.0,0.0,-2.4374,-2.3686,0.0,0.0,-2.1365,0.0,0.0,0.0,0.0,-1.9054,-1.8115,-1.6747,0.0,0.0,0.0,0.0,0.0,0.0,0.0,-1.8345,-1.9222,0.0,0.0,-2.3137,-2.4887,-2.4733,-2.3722,-2.6287,-2.7334,-2.7396,-2.7396,-2.7519,-2.7673,-2.7673,-2.7334,0.0,-2.7072,0.0,0.0,0.0,0.0,0.0,-2.1627,0.0,0.0,0.0,0.0,0.0,0.0,0.0,0.0,0.0,0.0,0.0,0.0,0.0,0.0,0.0,0.0,0.0,0.0,0.0,0.0,0.0,0.0,0.0,0.0,0.0,0.0,-2.0377,-2.1532,-2.2347,-2.2732,-2.4317,-2.5795,-2.7088,-2.7103,-2.7519,-2.8396,-2.8411,-2.8411,-2.8411,-2.8411,-2.8411,-2.8411,-2.8411,-2.8673,-2.915,-2.931,-2.995,-3.0889,-3.1582,-3.2244,-3.2921,-3.3658,-3.4474,-3.5183,-3.469,-3.4166,-3.3629,-1.5009,-1.4609,0.0,0.0,0.0,0.0,-1.6071,-1.6747,-1.7208,0.0,0.0,0.0,0.0,0.0,0.0,0.0,0.0,-2.7226,-2.7226,0.0,-2.2532,0.0,0.0,-2.0225,0.0,0.0,0.0,0.0,0.0,0.0,0.0,0.0,0.0,0.0,0.0,-1.8699,-2.1257,-2.2012,-2.423,-2.7149,-2.658,-2.6341,-2.6118,0.0,-2.5672,-2.7396,-2.7396,0.0,0.0,-2.8365,-2.835,0.0,0.0,0.0,0.0,0.0,0.0,0.0,0.0,0.0,0.0,-2.2274,0.0,0.0,0.0,0.0,-1.6993,0.0,0.0,0.0,0.0,0.0,0.0,0.0,0.0,0.0,0.0,0.0,0.0,0.0,0.0,0.0,0.0,0.0,0.0,-1.8361,-1.8992,-1.9996,-2.1288,-2.2043,-2.366,-2.6356,-2.6357,-2.6988,-2.8396,-2.8411,-2.8411,-2.8411,-2.8411,-2.8411,-2.8411,-2.8411,-2.8411,-2.8473,-2.9135,-2.9417,-2.951,-3.0186,-3.0874,-3.1547,-3.2198,-3.329,-3.4536,-3.452,-3.4489,-3.4459,0.0,0.0,0.0,0.0,0.0,0.0,-1.669,-1.7823,0.0,0.0,0.0,0.0,0.0,-2.8379,-2.9179,0.0,0.0,-2.9718,-2.9718,-2.7514,0.0,0.0,0.0,-2.3691,0.0,0.0,0.0,0.0,0.0,0.0,0.0,0.0,0.0,0.0,0.0,-1.9145,0.0,0.0,0.0,0.0,0.0,-2.4071,-2.3763,0.0,0.0,-2.6734,-2.6734,-2.7165,0.0,-2.8258,-2.8411,-2.8319,-2.7873,-2.7103,-2.6264,-2.5549,-2.4841,0.0,0.0,0.0,-2.4302,-2.4302,0.0,0.0,0.0,0.0,0.0,0.0,0.0,0.0,0.0,0.0,0.0,0.0,0.0,0.0,0.0,0.0,0.0,0.0,0.0,0.0,0.0,0.0,0.0,-1.6824,-1.71,-1.8053,0.0,-2.1026,-2.289,-2.5595,-2.6118,-2.6811,-2.7734,-2.8181,-2.8411,-2.8411,-2.8411,-2.8411,-2.8411,-2.8411,-2.8411,-2.8411,-2.8642,-2.8996,-2.9433,-3.0125,-3.0525,-3.0859,-3.1967,-3.2675,-3.3152,-3.3598,-3.4352,-3.5106,-1.707,0.0,0.0,0.0,0.0,0.0,0.0,0.0,0.0,0.0,-2.4183,0.0,-3.0117,0.0,-3.149,0.0,-3.2955,-3.215,-3.1665,-2.9874,0.0,-2.9516,-2.7692,0.0,0.0,0.0,0.0,0.0,0.0,-1.8822,0.0,0.0,0.0,0.0,0.0,0.0,0.0,0.0,-2.4594,0.0,0.0,-2.324,0.0,0.0,-2.5179,-2.6072,0.0,-2.718,-2.7827,-2.8258,-2.8411,-2.8411,-2.8411,-2.7811,-2.7103,-2.7103,-2.6472,-2.5964,-2.6857,-2.6226,0.0,-2.5604,-2.364,0.0,-2.0549,0.0,0.0,0.0,0.0,0.0,0.0,0.0,0.0,0.0,0.0,0.0,0.0,-1.5132,0.0,0.0,0.0,0.0,0.0,0.0,-1.436,-1.4747,-1.5224,-1.6485,0.0,0.0,-2.227,-2.5204,-2.601,-2.6718,-2.738,-2.8057,-2.8411,-2.8411,-2.8411,-2.8411,-2.8411,-2.8411,-2.8411,-2.8411,-2.8411,-2.8658,-2.9119,-2.9756,-3.0033,-3.0171,-3.152,-3.2182,-3.2505,-3.3444,-3.4506,-3.5444,0.0,0.0,0.0,0.0,-1.73,0.0,0.0,0.0,-2.2639,0.0,-2.522,-2.8474,-2.9756,-3.1207,-3.3048,-3.5477,-3.5227,0.0,-3.312,-3.1134,0.0,0.0,-2.8351,-2.7315,-2.7372,0.0,0.0,0.0,0.0,0.0,0.0,0.0,0.0,0.0,-1.793,0.0,-2.052,-2.3071,-2.4995,-2.6248,-2.4918,-2.401,-2.3394,-2.344,-2.4241,-2.5527,-2.6903,-2.7827,-2.8411,-2.8411,-2.8411,-2.8411,-2.8411,-2.8411,-2.8411,-2.8411,-2.8411,-2.8411,-2.8411,-2.6919,-2.5512,-2.6188,0.0,0.0,0.0,0.0,-2.2074,0.0,0.0,0.0,0.0,0.0,0.0,0.0,0.0,0.0,0.0,0.0,0.0,0.0,0.0,0.0,0.0,-1.4221,-1.3652,-1.2339,-1.339,0.0,0.0,0.0,-2.172,-2.505,-2.5964,-2.6688,-2.7334,-2.8057,-2.8411,-2.8411,-2.8411,-2.8411,-2.8411,-2.8411,-2.8411,-2.8411,-2.8411,-2.8411,-2.8458,-2.911,-2.9371,-2.9504,-3.0859,-3.184,-3.2613,-3.3996,-3.4874,-3.5367,-1.8623,-1.8608,-1.8562,0.0,-1.8747,-1.8792,0.0,0.0,0.0,0.0,-2.7327,-3.0087,-3.2287,-3.3741,-3.4851,-3.5494,-3.4553,0.0,0.0,0.0,0.0,-3.0806,-3.0262,-2.9113,-2.7223,-2.5686,0.0,-2.2305,0.0,0.0,-2.0027,0.0,0.0,0.0,0.0,0.0,-2.1088,-2.1781,-2.3425,-2.5588,-2.5727,-2.5373,0.0,0.0,-2.578,-2.6226,-2.7088,-2.7827,-2.8411,-2.8411,-2.8411,-2.8411,-2.8411,-2.8411,-2.8411,-2.8411,-2.8411,-2.8411,-2.8411,-2.7288,-2.6272,-2.6949,-2.4687,-2.2443,0.0,0.0,0.0,0.0,0.0,0.0,0.0,0.0,0.0,0.0,0.0,0.0,0.0,0.0,0.0,-1.5393,0.0,0.0,-1.4932,-1.4498,-1.3852,-1.3016,-1.2801,0.0,0.0,0.0,0.0,-2.2978,-2.5195,-2.6441,-2.6641,-2.7811,-2.8411,-2.8411,-2.8411,-2.8411,-2.8411,-2.8411,-2.8411,-2.8411,-2.8411,-2.8411,-2.8458,-2.911,-2.9095,-2.8842,-3.0674,-3.2105,-3.3244,-3.4166,-3.395,-3.3336,-1.9163,0.0,0.0,-1.9842,0.0,0.0,-2.1304,0.0,0.0,-2.6436,-2.9467,0.0,-3.2542,-3.4352,-3.5504,-3.5504,-3.485,0.0,-3.3713,0.0,0.0,-3.1055,-3.0776,-2.9809,-2.807,-2.6474,0.0,-2.3163,0.0,0.0,-2.0289,0.0,0.0,0.0,0.0,-1.9331,0.0,-2.1997,-2.3302,-2.4518,-2.5465,0.0,0.0,-2.5727,-2.6434,-2.7319,-2.7703,-2.8088,-2.8411,-2.8411,-2.8411,-2.8411,-2.8411,-2.8411,-2.8411,-2.8411,-2.8411,-2.8411,-2.8411,-2.7411,-2.6549,-2.7226,-2.5487,-2.3717,-2.4087,-2.3825,-2.3445,0.0,0.0,0.0,0.0,0.0,0.0,0.0,0.0,0.0,0.0,0.0,0.0,0.0,-1.4883,0.0,-1.4747,-1.4409,-1.3929,-1.3263,0.0,0.0,0.0,0.0,0.0,-2.2212,-2.4625,-2.5472,-2.4631,-2.7426,-2.8411,-2.7534,-2.8119,-2.8411,-2.8411,-2.8411,-2.8411,-2.8411,-2.8411,-2.8411,-2.8427,-2.8827,-2.8919,-2.9012,-3.072,-3.2028,-3.3013,-3.3413,-3.326,-3.2998,0.0,0.0,0.0,0.0,0.0,0.0,0.0,-2.5757,0.0,-2.7866,0.0,-3.3201,-3.1884,-3.3933,-3.537,-3.537,0.0,-3.4813,-3.3683,-3.3697,-3.2936,-3.1113,-3.0476,-2.9883,-2.9195,-2.7341,-2.5703,0.0,0.0,0.0,0.0,0.0,0.0,0.0,0.0,0.0,0.0,-2.2978,-2.4071,0.0,-2.5066,-2.5619,-2.5696,-2.5604,-2.6765,-2.8411,-2.8411,-2.8411,-2.8411,-2.8411,-2.8411,-2.8411,-2.8411,-2.8411,-2.8411,-2.8411,-2.8411,-2.8411,-2.8411,-2.7488,-2.6657,-2.7242,-2.6411,-2.5435,-2.5419,-2.601,-2.6318,-2.5588,-2.4518,-2.3625,0.0,0.0,0.0,0.0,0.0,0.0,0.0,0.0,0.0,0.0,0.0,0.0,0.0,-1.4283,-1.4052,0.0,0.0,0.0,0.0,0.0,0.0,-2.167,-2.3994,0.0,-2.284,0.0,-2.8488,-2.6934,-2.7934,-2.8411,-2.8411,-2.8411,-2.8411,-2.8411,-2.8411,-2.8411,-2.8411,-2.8411,-2.8812,-2.951,-3.0782,-3.1674,-3.2275,-3.2367,-3.2767,-3.3383,0.0,0.0,0.0,0.0,0.0,-2.4888,-2.9056,-2.8511,-2.8071,-2.941,-3.1892,-3.344,-3.3185,-3.4053,-3.4698,-3.4698,-3.3787,0.0,0.0,0.0,0.0,-3.1201,-3.0422,-2.9753,-2.921,-2.7255,-2.5599,0.0,0.0,0.0,0.0,0.0,0.0,0.0,0.0,0.0,-2.1889,-2.3579,0.0,-2.594,-2.6718,-2.7365,-2.7811,-2.7242,-2.7596,-2.8411,-2.8411,-2.8411,-2.8411,-2.8411,-2.8411,-2.8411,-2.8411,-2.8411,-2.8411,-2.8411,-2.8411,-2.8411,-2.8411,-2.7827,-2.7242,-2.7365,-2.6795,-2.6195,-2.6142,-2.6703,-2.7026,-2.6349,-2.601,-2.5318,-2.3609,0.0,0.0,0.0,0.0,0.0,0.0,0.0,0.0,0.0,0.0,0.0,0.0,0.0,0.0,0.0,0.0,0.0,0.0,0.0,0.0,0.0,-2.2528,0.0,0.0,0.0,-2.8965,-2.9679,-2.8827,-2.8411,-2.8411,-2.8411,-2.8411,-2.8411,-2.8411,-2.8411,-2.8411,-2.8411,-2.8812,-2.9464,-3.0263,-3.0982,-3.1655,-3.2198,-3.2459,-3.2752,0.0,0.0,0.0,0.0,0.0,0.0,0.0,-3.0797,0.0,-3.1754,-3.293,-3.3517,-3.3021,-3.395,-3.4463,-3.4117,-3.3698,-3.3362,-3.3115,-3.2865,-3.2252,-3.1228,-3.0555,0.0,-2.9195,-2.7983,-2.6328,-2.4302,0.0,0.0,0.0,0.0,0.0,0.0,0.0,-2.1704,0.0,0.0,0.0,-2.6441,-2.7503,-2.8119,-2.8365,-2.8042,-2.8119,-2.8411,-2.8411,-2.8411,-2.8411,-2.8411,-2.8411,-2.8411,-2.8411,-2.8411,-2.8411,-2.8411,-2.8411,-2.8411,-2.8411,-2.7919,-2.7473,-2.7827,-2.7149,-2.6472,-2.6811,-2.6872,-2.6672,-2.598,-2.5841,-2.5195,-2.3148,-2.1439,0.0,0.0,0.0,0.0,0.0,0.0,0.0,0.0,0.0,0.0,0.0,0.0,0.0,0.0,0.0,0.0,0.0,0.0,0.0,0.0,0.0,0.0,0.0,0.0,0.0,-2.7234,-2.8042,-2.8411,-2.8411,-2.8411,-2.8411,-2.8411,-2.8411,-2.8411,-2.8411,-2.8411,-2.9012,-2.994,-3.0263,-3.1028,-3.1951,-3.2275,-3.2398,-3.2536,0.0,-2.6265,0.0,0.0,-2.7889,0.0,-3.0594,-3.2583,-3.3985,-3.4028,-3.4227,-3.4046,-3.3306,-3.4044,-3.4347,-3.3789,-3.3756,-3.3551,-3.3016,-3.3113,-3.2604,-3.1297,-3.0687,-3.0053,-2.9261,-2.8701,-2.7196,0.0,0.0,0.0,0.0,0.0,0.0,0.0,0.0,0.0,0.0,0.0,-2.648,-2.6834,-2.7965,-2.8411,-2.8411,-2.8411,-2.8411,-2.8411,-2.8411,-2.8411,-2.8411,-2.8411,-2.8411,-2.8411,-2.8411,-2.8411,-2.8411,-2.8411,-2.8411,-2.8411,-2.8411,-2.8011,-2.7734,-2.8273,-2.7611,-2.6949,-2.7488,-2.7088,-2.6411,-2.5687,-2.5296,-2.461,-2.3009,-2.2609,0.0,0.0,0.0,0.0,0.0,0.0,0.0,0.0,0.0,0.0,0.0,0.0,0.0,0.0,0.0,0.0,0.0,0.0,0.0,0.0,0.0,-2.2182,-2.1165,0.0,-2.768,-2.5604,-2.7503,-2.8411,-2.8411,-2.8411,-2.8411,-2.8411,-2.8411,-2.8411,-2.8411,-2.8411,-2.9002,-3.0002,-3.0279,-3.1059,-3.2013,-3.229,-3.2398,-3.2475,0.0,0.0,0.0,0.0,0.0,0.0,0.0,-3.3643,-3.4546,-3.5624,-3.5791,-3.5761,-3.5669,-3.4698,-3.4046,-3.3985,-3.3006,-3.2359,-3.2298,-3.2422,-3.2151,-3.1413,-3.074,-3.0079,-2.9402,-2.8725,-2.7634,0.0,0.0,0.0,0.0,0.0,0.0,0.0,0.0,0.0,0.0,-2.6272,-2.7088,-2.8227,-2.835,-2.8411,-2.8411,-2.8411,-2.8411,-2.8411,-2.8411,-2.8411,-2.8411,-2.8411,-2.8411,-2.8411,-2.8411,-2.8411,-2.8411,-2.8411,-2.8411,-2.8411,-2.8411,-2.835,-2.8319,-2.8381,-2.8304,-2.8227,-2.8288,-2.7796,-2.7103,-2.6426,-2.5287,-2.4348,-2.4148,-2.3625,-2.2578,0.0,0.0,0.0,0.0,0.0,0.0,0.0,0.0,0.0,0.0,0.0,0.0,0.0,0.0,0.0,0.0,0.0,0.0,-1.8345,0.0,-2.1658,-2.3902,-2.5696,-2.768,-2.9817,-2.8873,-2.8411,-2.8411,-2.8411,-2.8411,-2.8411,-2.8411,-2.8411,-2.8411,-2.8411,-2.8473,-2.8719,-2.9925,-3.0479,-3.0725,-3.1951,-3.2398,-3.2398,0.0,0.0,0.0,0.0,0.0,0.0,0.0,-3.4713,-3.5569,-3.604,-3.6116,-3.578,-3.4896,-3.4379,-3.3799,-3.2991,-3.2553,-3.2315,-3.2315,-3.237,-3.2275,-3.1997,-3.0982,-3.0263,-3.0002,-2.8965,-2.7734,0.0,0.0,0.0,0.0,0.0,0.0,0.0,0.0,-2.5296,-2.6411,-2.7242,-2.7919,-2.8411,-2.8411,-2.8411,-2.8411,-2.8411,-2.8411,-2.8411,-2.8411,-2.8411,-2.8411,-2.8411,-2.8411,-2.8411,-2.8411,-2.8411,-2.8411,-2.8411,-2.8411,-2.8411,-2.8411,-2.8411,-2.8411,-2.8411,-2.8411,-2.8411,-2.8411,-2.7888,-2.7211,-2.6556,-2.5287,-2.4302,-2.4302,-2.4087,-2.364,0.0,0.0,0.0,0.0,0.0,0.0,0.0,0.0,0.0,0.0,0.0,0.0,0.0,0.0,0.0,0.0,0.0,0.0,-1.9423,0.0,-2.2413,-2.4287,-2.5619,-2.6865,-2.7996,-2.8273,-2.8411,-2.8411,-2.8411,-2.8411,-2.8411,-2.8411,-2.8411,-2.8411,-2.8411,-2.8889,-2.9648,-3.0186,-3.0878,-3.1674,-3.2198,-3.2398,-3.2398,-3.3336,0.0,-3.2471,0.0,-3.3284,-3.3672,-3.4191,-3.537,-3.6211,-3.6274,-3.6136,-3.56,-3.4561,-3.4147,-3.3563,-3.2658,-3.2465,-3.2398,-3.2398,-3.2398,-3.2398,-3.2398,-3.1305,0.0,-3.0678,-2.9556,-2.8535,-2.758,-2.6195,0.0,0.0,0.0,0.0,0.0,-2.628,-2.6834,-2.7265,-2.8049,-2.8411,-2.8411,-2.8411,-2.8411,-2.8411,-2.8411,-2.8411,-2.8411,-2.8411,-2.8411,-2.8411,-2.8411,-2.8411,-2.8411,-2.8411,-2.8411,-2.8411,-2.8411,-2.8411,-2.8411,-2.8411,-2.8411,-2.8411,-2.8411,-2.8411,-2.8411,-2.8411,-2.7888,-2.7219,-2.6571,-2.5336,-2.4421,-2.4626,-2.4636,-2.4451,-2.381,0.0,0.0,0.0,0.0,0.0,0.0,-2.0058,-2.0136,-1.9641,0.0,0.0,0.0,0.0,0.0,0.0,0.0,0.0,0.0,0.0,0.0,0.0,-2.5127,-2.6127,-2.6995,-2.795,-2.8411,-2.8411,-2.8411,-2.8411,-2.8411,-2.8411,-2.8411,-2.8411,-2.8411,-2.9064,-3.0125,-3.0325,-3.1105,-3.2121,-3.2321,-3.2398,-3.2398,-3.6184,-3.5383,-3.4474,-3.4474,-3.4312,-3.4252,-3.446,-3.5477,-3.6274,-3.646,-3.5907,-3.5491,-3.5476,-3.4245,-3.3413,-3.3398,-3.2782,-3.2398,-3.2398,-3.2398,-3.2398,0.0,0.0,-3.1393,-3.1393,-3.0735,-3.0371,-3.034,0.0,0.0,-2.8319,0.0,-2.7057,-2.8319,-2.7673,-2.8119,-2.931,-2.8673,-2.8411,-2.8411,-2.8411,-2.8411,-2.8411,-2.8411,-2.8411,-2.8411,-2.8411,-2.8411,-2.8411,-2.8411,-2.8411,-2.8411,-2.8411,-2.8411,-2.8411,-2.8411,-2.8411,-2.8411,-2.8411,-2.8411,-2.8411,-2.8411,-2.8411,-2.8411,-2.8411,-2.7888,-2.7242,-2.6614,-2.5428,-2.4699,-2.5356,-2.549,-2.4797,-2.2659,0.0,0.0,0.0,0.0,0.0,0.0,-1.9504,-2.0356,-2.0289,0.0,0.0,0.0,0.0,0.0,0.0,0.0,0.0,-1.924,-1.8622,0.0,-2.3271,-2.3994,-2.5687,-2.8381,-2.8396,-2.8411,-2.8411,-2.8411,-2.8411,-2.8411,-2.8411,-2.8411,-2.8411,-2.8411,-2.8812,-2.9464,-3.014,-3.0812,-3.1501,-3.2151,-3.2398,-3.2398,-3.623,-3.6153,-3.5845,-3.5845,-3.5815,-3.5769,-3.5845,-3.6168,-3.6414,-3.6492,-3.5537,-3.4828,-3.4828,-3.3967,-3.3213,0.0,-3.2521,-3.2398,0.0,-3.2398,-3.2398,-3.2398,-3.1751,-3.1409,-3.1409,-3.0751,-3.0402,-3.0402,0.0,0.0,0.0,-2.8904,-2.9341,-2.974,-2.9525,-2.9679,-3.0033,-2.9381,-2.9064,-2.9058,-2.8596,-2.8411,-2.8411,-2.8411,-2.8411,-2.8411,-2.8411,-2.8411,-2.8411,-2.8411,-2.8411,-2.8411,-2.8411,-2.8411,-2.8411,-2.8411,-2.8411,-2.8411,-2.8411,-2.8411,-2.8411,-2.8411,-2.8411,-2.8411,-2.8411,-2.7944,-2.7458,-2.7157,-2.6701,-2.6136,-2.5478,-2.5707,-2.5339,-2.3417,-2.4276,0.0,0.0,0.0,0.0,0.0,-2.039,-2.0763,0.0,-2.0547,0.0,0.0,0.0,0.0,0.0,0.0,0.0,0.0,-2.2682,0.0,-2.6072,-2.5804,-2.6573,-2.8411,-2.8411,-2.8411,-2.8411,-2.8411,-2.8658,-2.9048,-2.8611,-2.8673,-2.9058,-2.8596,-2.9048,-3.0094,-3.0309,-3.1105,-3.2105,-3.2321,-3.2398,-3.2398,-3.6322,-3.6492,-3.6492,-3.6492,-3.6492,-3.6492,-3.6492,-3.6492,-3.6492,-3.6492,-3.5337,-3.4505,-3.4505,-3.3614,0.0,-3.2428,-3.2398,-3.2398,-3.2398,-3.2398,-3.2398,-3.2398,-3.1982,-3.1794,-3.1794,-3.1366,0.0,-3.1166,-3.032,-2.9904,-2.992,-3.0766,-3.1166,-3.1151,-3.0905,-3.0782,-3.0735,-2.9797,-2.9387,-2.9325,-2.8673,-2.8411,-2.8411,-2.8411,-2.8411,-2.8411,-2.8411,-2.8411,-2.8411,-2.8411,-2.8411,-2.8411,-2.8411,-2.8411,-2.8411,-2.8411,-2.8411,-2.8411,-2.8411,-2.8411,-2.8411,-2.8411,-2.8411,-2.8396,-2.8468,-2.7999,-2.7674,-2.8107,-2.7662,-2.6968,-2.624,-2.6192,-2.5759,-2.4173,-2.4616,-2.4559,-2.2792,0.0,0.0,0.0,0.0,0.0,0.0,-2.175,-2.137,0.0,0.0,0.0,0.0,0.0,0.0,-2.2886,-2.3979,0.0,-2.698,-2.6565,-2.7042,-2.8411,-2.8658,-2.8781,-2.8796,-2.9058,-2.9258,-2.9371,-2.9218,-2.9119,-2.9027,-2.8833,-2.9427,-3.0402,-3.0402,-3.1228,-3.2425,-3.2453,-3.2425,-3.2425,-3.6492,-3.6492,0.0,0.0,-3.6492,0.0,-3.6492,-3.6492,-3.6476,-3.643,-3.5306,-3.4489,-3.4428,-3.3198,-3.2398,-3.2398,0.0,0.0,0.0,-3.2398,-3.2398,-3.2398,-3.2398,-3.2398,-3.2398,-3.2398,-3.2398,-3.2398,-3.2398,-3.2398,-3.2398,-3.2398,-3.2398,-3.2367,-3.1736,-3.1455,-3.1332,-3.0027,-2.9433,-2.9325,-2.8673,-2.8411,-2.8411,-2.8411,-2.8411,-2.8411,-2.8411,-2.8411,-2.8411,-2.8411,-2.8411,-2.8411,-2.8411,-2.8411,-2.8411,-2.8411,-2.8411,-2.8411,-2.8411,-2.8411,-2.8411,-2.8411,-2.842,-2.8493,-2.8597,-2.8148,-2.8037,-2.9259,-2.8398,-2.7428,-2.7459,-2.6924,-2.6098,-2.4878,-2.4641,-2.4126,-2.2789,0.0,0.0,0.0,0.0,0.0,0.0,-2.2739,-2.2671,0.0,0.0,0.0,0.0,0.0,-2.1935,-2.2548,-2.3271,-2.4564,-2.6434,-2.6503,-2.7165,-2.8411,-2.9089,-2.9387,-2.9417,-3.014,-3.0125,-2.9556,-3.014,-2.971,-2.8658,-2.9196,-2.9817,-3.0463,-3.0463,-3.1274,-3.2425,-3.2551,-3.2523,-3.248,0.0,0.0,-3.6492,-3.6492,-3.6492,-3.6492,-3.6492,-3.6492,-3.6307,-3.5784,-3.5013,-3.4289,-3.3706,-3.2906,-3.2398,-3.2398,-3.2398,-3.2398,-3.2398,-3.2398,-3.2398,-3.2398,-3.2398,-3.2398,-3.2398,-3.2398,-3.2398,-3.2398,-3.2398,-3.2398,-3.2398,-3.2398,-3.2398,-3.2382,-3.2228,-3.1859,-3.1362,-3.052,-2.9863,-2.9325,-2.8673,-2.8411,-2.8411,-2.8411,-2.8411,-2.8411,-2.8411,-2.8411,-2.8411,-2.8411,-2.8411,-2.8411,-2.8411,-2.8411,-2.8411,-2.8411,-2.8411,-2.8411,-2.8411,-2.8411,-2.8411,-2.8411,-2.8724,-2.9005,-2.8997,-2.9243,-2.9545,-2.9772,-2.9626,-2.921,-2.833,-2.7687,-2.6894,-2.5639,-2.4973,-2.4142,-2.2786,-2.2823,0.0,0.0,-2.253,-2.3158,-2.4186,-2.4182,-2.3666,0.0,0.0,0.0,0.0,-2.3672,-2.5302,-2.5342,-2.6565,-2.7426,-2.7904,-2.7919,-2.8088,-2.8411,-2.9089,-2.9387,-2.9433,-3.0628,-3.1074,-3.0905,-3.054,-3.052,-3.0612,-2.9766,-3.0104,-3.1151,-3.1151,-3.1728,-3.2551,-3.2578,-3.2676,-3.2773,-3.6492,-3.6492,-3.6492,-3.6492,-3.6492,-3.6492,-3.6492,-3.623,-3.5891,-3.5568,-3.4921,-3.4227,-3.3475,-3.3075,-3.2736,-3.2428,-3.2398,-3.2398,-3.2398,-3.2398,-3.2398,-3.2398,-3.2398,-3.2398,-3.2398,-3.2398,-3.2398,-3.2398,-3.2398,-3.2398,-3.2398,-3.2398,-3.2398,-3.2398,-3.2398,-3.2198,-3.1797,-3.1136,-3.0489,-2.9787,-2.9135,-2.8673,-2.8411,-2.8411,-2.8411,-2.8411,-2.8411,-2.8411,-2.842,-2.8668,-2.8573,-2.8444,-2.8653,-2.8573,-2.8411,-2.8411,-2.8411,-2.8411,-2.8411,-2.8444,-2.8541,-2.8763,-2.9152,-2.9489,-2.9534,-2.9783,-3.0069,-3.0344,-3.0272,-2.9927,-2.9219,-2.8388,-2.7462,-2.6333,-2.4937,-2.3699,-2.286,-2.2658,0.0,-2.3028,-2.3504,-2.4147,-2.5031,-2.5109,-2.4776,-2.4024,-2.4168,0.0,-2.3176,-2.4925,-2.5827,-2.554,-2.7466,-2.8517,-2.858,-2.8517,-2.8493,-2.8508,-2.9113,-2.976,-3.0444,-3.1409,-3.1898,-3.194,-3.184,-3.1486,-3.101,-3.0515,-3.0762,-3.1477,-3.1477,-3.199,-3.2746,-3.2827,-3.2854,-3.2924,-3.6492,-3.6492,-3.6492,-3.6492,-3.6492,-3.6492,-3.6492,-3.603,-3.5629,-3.5521,-3.4921,-3.4227,-3.3475,-3.3306,-3.3013,-3.2444,-3.2398,-3.2398,-3.2398,-3.2398,-3.2398,-3.2398,-3.2398,-3.2398,-3.2398,-3.2398,-3.2398,-3.2398,-3.2398,-3.2398,-3.2398,-3.2398,-3.2398,-3.2398,-3.2398,-3.2336,-3.2198,-3.1655,-3.1012,-3.034,-2.9664,-2.9048,-2.855,-2.8442,-2.8411,-2.8411,-2.8411,-2.8411,-2.8468,-2.885,-2.8724,-2.8493,-2.8951,-2.8795,-2.842,-2.8573,-2.8573,-2.8525,-2.8525,-2.8668,-2.8897,-2.9289,-2.9661,-3.0011,-3.0166,-3.0175,-3.0344,-3.0965,-3.0625,-3.0199,-3.0085,-2.8951,-2.7715,-2.6688,-2.4671,-2.309,-2.2687,0.0,-2.2992,-2.3517,-2.4528,-2.5317,-2.5724,-2.5851,-2.5947,-2.5973,-2.5243,-2.5174,-2.6114,-2.5845,-2.5406,-2.4837,-2.7262,-2.8612,-2.8747,-2.8636,-2.8565,-2.8589,-2.9138,-3.0109,-3.1475,-3.2125,-3.2523,-3.2679,-3.3141,-3.2427,-3.0985,-3.133,-3.1592,-3.1796,-3.1796,-3.226,-3.2951,-3.3058,-3.3032,-3.3005,-3.6492,-3.6492,-3.6492,-3.6492,-3.6492,-3.6492,-3.6492,-3.6399,-3.6122,-3.5553,-3.4921,-3.4227,-3.3475,-3.289,-3.2505,-3.2398,-3.2398,-3.2398,-3.2398,-3.2398,-3.2398,-3.2398,-3.2398,-3.2398,-3.2398,-3.2398,-3.2398,-3.2398,-3.2398,-3.2398,-3.2398,-3.2398,-3.2398,-3.2398,-3.2398,-3.2074,-3.1563,-3.1428,-3.1012,-3.034,-2.9664,-2.9325,-2.9171,-2.8627,-2.8411,-2.8411,-2.8411,-2.8411,-2.8396,-2.8493,-2.8468,-2.8493,-2.8951,-2.8795,-2.8573,-2.9429,-2.9384,-2.9097,-2.9097,-2.9384,-2.9723,-2.9789,-3.0234,-3.0645,-3.0686,-3.1024,-3.1372,-3.1468,-3.1162,-3.0871,-3.0912,-2.9185,-2.7315,-2.5904,-2.4055,-2.2475,-2.1601,0.0,-2.3381,-2.3869,-2.5106,-2.6191,-2.6877,-2.6893,-2.6987,-2.7274,-2.707,-2.6365,-2.5117,-2.661,-2.6967,-2.582,-2.7503,-2.8444,-2.846,-2.8444,-2.842,-2.8436,-2.9089,-2.9863,-3.082,-3.2006,-3.2676,-3.2843,-3.2952,-3.2812,-3.2511,-3.1971,-3.2126,-3.2714,-3.2714,-3.2857,-3.3069,-3.3096,-3.315,-3.3256,-3.6492,-3.6492,-3.6492,-3.6492,-3.6492,-3.6492,-3.6492,-3.6184,-3.583,-3.5552,-3.4921,-3.4227,-3.3475,-3.3121,-3.2782,-3.2428,-3.2398,-3.2398,-3.2398,-3.2398,-3.2398,-3.2398,-3.2398,-3.2547,-3.2815,-3.2841,-3.2841,-3.2841,-3.2841,-3.2668,-3.2398,-3.2398,-3.2398,-3.2398,-3.2398,-3.2213,-3.1921,-3.1921,-3.1551,-3.0946,-3.0933,-3.0701,-3.0342,-3.0029,-2.9742,-2.9437,-2.9058,-2.8753,-2.8541,-2.8724,-2.8795,-2.885,-2.9325,-2.9332,-2.9309,-2.9751,-2.9767,-2.9613,-2.9761,-3.0043,-3.0302,-3.0464,-3.0845,-3.1196,-3.1237,-3.1411,-3.1617,-3.169,-3.1353,-3.1142,-3.1411,-3.009,-2.8406,-2.6747,-2.5395,0.0,0.0,-2.3057,-2.4191,-2.4825,-2.5981,-2.7093,-2.8063,-2.822,-2.8296,-2.8441,-2.8709,-2.8377,-2.7322,-2.8189,-2.8496,-2.8072,-2.8521,-2.9074,-2.9683,-2.9002,-2.9252,-3.0398,-2.9872,-3.0627,-3.2491,-3.2676,-3.303,-3.3525,-3.347,-3.3267,-3.2973,-3.2565,-3.2654,-3.3005,-3.3005,-3.3085,-3.3203,-3.3203,-3.3256,-3.3309,-3.6492,-3.6492,-3.6492,-3.6492,-3.6492,-3.6492,-3.6492,-3.6045,-3.5722,-3.5722,-3.5152,-3.4536,-3.3952,-3.3752,-3.3383,-3.269,-3.2628,-3.2607,-3.2574,-3.2602,-3.2602,-3.2602,-3.2711,-3.2949,-3.3381,-3.3261,-3.3182,-3.3182,-3.3066,-3.2788,-3.2398,-3.2398,-3.2398,-3.2398,-3.2398,-3.2398,-3.2425,-3.2547,-3.2292,-3.1849,-3.225,-3.2022,-3.1422,-3.1297,-3.0782,-3.0109,-2.9704,-2.9304,-2.9014,-2.9229,-2.9398,-2.9601,-2.993,-3.0,-2.9989,-3.0218,-3.026,-3.0318,-3.0522,-3.0686,-3.0868,-3.1083,-3.1332,-3.1538,-3.1634,-3.1653,-3.1671,-3.1781,-3.1523,-3.1372,-3.1727,-3.0832,-2.9458,-2.7742,0.0,0.0,0.0,-2.4377,-2.5443,-2.6466,-2.7265,-2.8171,-2.929,-2.9482,-2.9559,-2.9646,-3.0055,-3.0133,-2.9673,-2.9651,-2.9845,-3.0257,-2.9761,-2.9925,-3.0791,-2.9828,-3.0159,-3.1783,-3.0601,-3.1289,-3.3603,-3.3005,-3.3146,-3.3924,-3.3815,-3.3544,-3.3123,-3.3032,-3.3058,-3.315,-3.315,-3.3203,-3.3277,-3.3119,-3.3056,-3.304,-3.6492,-3.6492,-3.6492,-3.6492,-3.6492,-3.6492,-3.6492,-3.6445,-3.6415,-3.6415,-3.583,-3.5429,-3.5337,-3.4797,-3.4106,-3.3398,-3.3336,-3.3268,-3.3166,-3.3145,-3.3145,-3.3145,-3.3614,-3.3894,-3.3944,-3.3443,-3.3182,-3.3182,-3.2695,-3.2437,-3.2398,-3.2398,-3.2398,-3.2398,-3.2398,-3.2398,-3.2437,-3.2933,-3.3114,-3.3056,-3.3103,-3.2715,-3.2086,-3.157,-3.0577,-2.9521,-2.9916,-3.0077,-3.0077,-2.9905,-3.0293,-3.0843,-3.0759,-3.0444,-3.026,-3.1137,-3.1385,-3.1385,-3.1404,-3.1464,-3.1542,-3.156,-3.1579,-3.1634,-3.1763,-3.18,-3.18,-3.18,-3.1764,-3.1746,-3.18,-3.0869,-2.9625,-2.8185,0.0,0.0,-2.6538,-2.6656,-2.7334,-2.9007,-2.9283,-2.9661,-3.0488,-3.0573,-3.0701,-3.0948,-3.0993,-3.0848,-3.0439,-3.0435,-3.0844,-3.1724,-3.1049,-3.0723,-3.0791,-3.0723,-3.0738,-3.0894,-3.0775,-3.1258,-3.2259,-3.2196,-3.2594,-3.3361,-3.3361,-3.333,-3.3266,-3.3282,-3.3282,-3.3282,-3.3282,-3.3309,-3.323,-3.2608,-3.237,-3.2276,-3.6492,-3.6492,-3.6492,-3.6492,-3.6492,-3.6492,-3.6492,-3.6492,-3.6492,-3.6492,-3.5937,-3.5506,-3.5506,-3.5243,-3.4739,-3.3947,-3.4284,-3.4277,-3.3739,-3.3691,-3.3563,-3.3209,-3.3082,-3.3161,-3.3511,-3.3287,-3.3355,-3.3691,-3.3485,-3.3381,-3.3381,-3.3381,-3.3381,-3.3381,-3.3381,-3.3381,-3.3407,-3.37,-3.3777,-3.3726,-3.3876,-3.3901,-3.3673,-3.2487,-3.1879,-3.1554,-3.0536,-3.0197,-3.0222,-2.9979,-3.0292,-3.0745,-3.0626,-3.0784,-3.1041,-3.1464,-3.1632,-3.167,-3.1578,-3.1578,-3.1617,-3.1709,-3.1727,-3.1727,-3.18,-3.18,-3.18,-3.18,-3.18,-3.18,-3.18,-3.1449,-3.0599,-2.8899,0.0,-2.8866,-2.7691,-2.8268,-2.9172,-3.0126,-3.0231,-3.0541,-3.13,-3.1369,-3.1306,-3.1108,-3.1103,-3.0788,-3.0097,-3.0629,-3.1093,-3.1445,-3.2045,-3.2348,-3.2348,-3.1483,-3.1703,-3.2972,-3.2137,-3.2336,-3.3461,-3.3024,-3.3003,-3.3309,-3.3309,-3.3309,-3.3309,-3.3309,-3.3309,-3.3309,-3.3309,-3.3309,-3.3277,-3.3008,-3.2914,-3.2866,-3.6754,-3.6631,-3.6554,-3.6754,-3.6647,-3.6492,-3.6492,-3.6492,-3.6585,-3.6754,-3.6366,-3.6161,-3.6354,-3.6131,-3.5669,-3.4892,-3.5009,-3.4899,-3.4284,-3.426,-3.402,-3.3469,-3.3108,-3.3145,-3.3675,-3.3537,-3.37,-3.426,-3.4086,-3.4011,-3.4011,-3.4011,-3.4011,-3.4011,-3.4011,-3.4011,-3.4036,-3.4276,-3.4268,-3.4111,-3.4258,-3.4343,-3.4189,-3.2902,-3.2425,-3.2315,-3.1134,-3.0756,-3.0791,-3.0796,-3.102,-3.1298,-3.1261,-3.1365,-3.1557,-3.1634,-3.1709,-3.1727,-3.1671,-3.1671,-3.1673,-3.1781,-3.18,-3.18,-3.18,-3.18,-3.18,-3.18,-3.18,-3.18,-3.18,-3.18,-3.1364,-3.0082,-3.0691,-3.0825,-2.9329,-2.9957,-3.0678,-3.1023,-3.1041,-3.1231,-3.1748,-3.18,-3.1671,-3.1334,-3.1334,-3.1064,-3.046,-3.1342,-3.1789,-3.1622,-3.2882,-3.3477,-3.3309,-3.2345,-3.2582,-3.3972,-3.3066,-3.3114,-3.3972,-3.3514,-3.3309,-3.3309,-3.3309,-3.3309,-3.3309,-3.3309,-3.3309,-3.3309,-3.3309,-3.3309,-3.3277,-3.3056,-3.2977,-3.2914,-3.7298,-3.6922,-3.6693,-3.7298,-3.6892,-3.6492,-3.6492,-3.6492,-3.6723,-3.7328,-3.7401,-3.7637,-3.8222,-3.7635,-3.6939,-3.6254,-3.5467,-3.4951,-3.4818,-3.4793,-3.4553,-3.4036,-3.4011,-3.426,-3.4769,-3.4284,-3.426,-3.4793,-3.4284,-3.4011,-3.4011,-3.4011,-3.4011,-3.4011,-3.4011,-3.4011,-3.4061,-3.4577,-3.4593,-3.4292,-3.4216,-3.3848,-3.3237,-3.2607,-3.1845,-3.1161,-3.1627,-3.1855,-3.2001,-3.2573,-3.2784,-3.2803,-3.2865,-3.2294,-3.1617,-3.1746,-3.1709,-3.1635,-3.1764,-3.18,-3.18,-3.18,-3.18,-3.18,-3.18,-3.18,-3.18,-3.18,-3.18,-3.18,-3.18,-3.18,-3.18,-3.18,-3.18,-3.18,-3.18,-3.18,-3.18,-3.18,-3.18,-3.18,-3.18,-3.18,-3.18,-3.18,-3.18,-3.18,-3.18,-3.2747,-3.305,-3.2513,-3.3526,-3.3832,-3.3293,-3.3309,-3.3309,-3.3293,-3.3309,-3.3309,-3.3293,-3.3309,-3.3309,-3.3309,-3.3309,-3.3309,-3.3309,-3.3293,-3.3293,-3.3293,-3.3293,-3.3293,-3.3214,-3.2544,-3.2291,-3.2102,-3.7895,-3.7549,-3.7178,-3.7358,-3.6892,-3.6492,-3.6492,-3.6861,-3.7208,-3.7387,-3.7767,-3.8096,-3.8278,-3.8019,-3.7538,-3.6805,-3.6455,-3.6028,-3.5389,-3.4998,-3.4721,-3.4577,-3.421,-3.4086,-3.4235,-3.4086,-3.426,-3.4793,-3.4649,-3.4745,-3.5131,-3.5131,-3.5131,-3.5131,-3.5131,-3.5178,-3.527,-3.5521,-3.5278,-3.47,-3.443,-3.4026,-3.3443,-3.2116,-3.1912,-3.2192,-3.1453,-3.1447,-3.1829,-3.1922,-3.1958,-3.196,-3.1979,-3.1806,-3.1617,-3.1746,-3.1764,-3.1746,-3.18,-3.18,-3.18,-3.18,-3.18,-3.18,-3.18,-3.18,-3.18,-3.18,-3.18,-3.18,-3.18,-3.18,-3.18,-3.18,-3.18,-3.18,-3.18,-3.18,-3.18,-3.18,-3.18,-3.18,-3.18,-3.18,-3.1671,-3.1334,-3.1044,-3.1103,-3.1627,-3.1892,-3.1803,-3.1313,-3.2562,-3.3042,-3.2592,-3.3056,-3.3056,-3.2608,-3.3072,-3.304,-3.2608,-3.3087,-3.3309,-3.3309,-3.3309,-3.3309,-3.3261,-3.2797,-3.2608,-3.256,-3.2029,-3.2139,-3.2513,-3.1792,-3.1864,-3.2165,-3.8238,-3.7825,-3.746,-3.7709,-3.7268,-3.6952,-3.7163,-3.7282,-3.7521,-3.8051,-3.8191,-3.8313,-3.8529,-3.8258,-3.772,-3.6985,-3.6599,-3.622,-3.579,-3.5424,-3.5201,-3.5201,-3.4816,-3.4529,-3.4333,-3.4309,-3.4577,-3.5131,-3.5131,-3.527,-3.56,-3.56,-3.56,-3.56,-3.5644,-3.5711,-3.58,-3.5625,-3.5211,-3.4584,-3.3808,-3.3326,-3.2971,-3.1688,-3.1702,-3.2342,-3.1869,-3.1745,-3.1886,-3.2414,-3.2378,-3.2068,-3.1776,-3.169,-3.169,-3.1781,-3.18,-3.18,-3.18,-3.18,-3.18,-3.18,-3.18,-3.18,-3.18,-3.18,-3.18,-3.18,-3.18,-3.18,-3.18,-3.18,-3.18,-3.18,-3.18,-3.18,-3.18,-3.18,-3.18,-3.18,-3.18,-3.18,-3.18,-3.18,-3.169,-3.1391,-3.1142,-3.1207,-3.1665,-3.1928,-3.1851,-3.1358,-3.2757,-3.3184,-3.2538,-3.2978,-3.2892,-3.2307,-3.2977,-3.2945,-3.2323,-3.2993,-3.3309,-3.3309,-3.3309,-3.3309,-3.3245,-3.2576,-3.2291,-3.2228,-3.1492,-3.1476,-3.1808,-3.1365,-3.1492,-3.1744,-3.8446,-3.7982,-3.7738,-3.8278,-3.7835,-3.7571,-3.8113,-3.7674,-3.7715,-3.8844,-3.8529,-3.8379,-3.8862,-3.8268,-3.7557,-3.6886,-3.6192,-3.5861,-3.5954,-3.5861,-3.5795,-3.5795,-3.5667,-3.5385,-3.4927,-3.4864,-3.5115,-3.56,-3.56,-3.56,-3.56,-3.56,-3.56,-3.56,-3.5751,-3.5795,-3.5766,-3.5168,-3.4666,-3.4165,-3.2748,-3.2181,-3.209,-3.1433,-3.143,-3.1903,-3.2645,-3.2472,-3.211,-3.3507,-3.3455,-3.2679,-3.2007,-3.18,-3.18,-3.18,-3.18,-3.18,-3.18,-3.18,-3.18,-3.18,-3.18,-3.18,-3.18,-3.18,-3.18,-3.18,-3.18,-3.18,-3.18,-3.18,-3.18,-3.18,-3.18,-3.18,-3.18,-3.18,-3.18,-3.18,-3.18,-3.18,-3.18,-3.1852,-3.1921,-3.199,-3.2007,-3.2007,-3.2007,-3.2645,-3.2762,-3.2236,-3.3571,-3.3834,-3.283,-3.2862,-3.269,-3.2307,-3.2835,-3.2819,-3.2323,-3.2929,-3.3245,-3.3309,-3.3309,-3.3261,-3.3166,-3.2481,-3.2165,-3.2038,-3.1302,-3.104,-3.1112,-3.1024,-3.104,-3.1018,-3.9627,-3.9216,-3.8838,-3.8974,-3.8035,-3.7291,-3.7413,-3.7692,-3.7791,-3.7498,-3.8238,-3.8661,-3.8245,-3.7555,-3.7109,-3.7047,-3.6281,-3.5773,-3.5689,-3.5667,-3.5689,-3.5795,-3.5773,-3.5756,-3.5739,-3.5538,-3.547,-3.56,-3.56,-3.56,-3.56,-3.56,-3.56,-3.56,-3.5751,-3.5861,-3.5902,-3.5257,-3.4669,-3.4071,-3.3108,-3.2389,-3.1876,-3.1721,-3.1709,-3.1903,-3.2645,-3.28,-3.2714,-3.3041,-3.2662,-3.2007,-3.1852,-3.18,-3.18,-3.18,-3.18,-3.18,-3.18,-3.18,-3.18,-3.18,-3.18,-3.18,-3.18,-3.18,-3.18,-3.18,-3.18,-3.18,-3.18,-3.18,-3.18,-3.18,-3.18,-3.18,-3.18,-3.18,-3.18,-3.18,-3.18,-3.18,-3.18,-3.2317,-3.2921,-3.3542,-3.3613,-3.3613,-3.3613,-3.3751,-3.3365,-3.231,-3.3098,-3.3122,-3.2197,-3.215,-3.22,-3.2291,-3.1855,-3.1887,-3.2291,-3.2449,-3.2813,-3.3309,-3.3309,-3.2993,-3.2465,-3.1729,-3.1128,-3.0583,-2.9825,-2.9911,-3.0338,-2.9761,-2.9927,-3.0306,-3.9833,-3.9601,-3.9375,-3.9375,-3.8523,-3.7913,-3.8216,-3.7895,-3.7614,-3.758,-3.7872,-3.7959,-3.7603,-3.7212,-3.6921,-3.6674,-3.6193,-3.591,-3.5937,-3.591,-3.5927,-3.5993,-3.5586,-3.5569,-3.5997,-3.5526,-3.5443,-3.58,-3.5734,-3.5706,-3.5689,-3.5622,-3.5622,-3.5689,-3.5465,-3.5424,-3.5467,-3.4438,-3.383,-3.3455,-3.2697,-3.2145,-3.1834,-3.2179,-3.2317,-3.2421,-3.3197,-3.3473,-3.3404,-3.3024,-3.2645,-3.2265,-3.1903,-3.18,-3.18,-3.18,-3.18,-3.18,-3.18,-3.18,-3.18,-3.18,-3.18,-3.18,-3.18,-3.18,-3.1903,-3.2248,-3.2041,-3.1903,-3.2265,-3.2041,-3.18,-3.18,-3.2093,-3.2196,-3.1852,-3.2093,-3.2196,-3.1834,-3.18,-3.2093,-3.2817,-3.3886,-3.4542,-3.4631,-3.4303,-3.4113,-3.4113,-3.3731,-3.3409,-3.3177,-3.3495,-3.3334,-3.2624,-3.2054,-3.1862,-3.2101,-3.148,-3.1413,-3.1776,-3.1776,-3.2329,-3.3293,-3.2945,-3.2623,-3.2228,-3.1507,-3.0796,-3.0141,-2.9382,-2.9335,-2.9643,-2.924,-2.9335,-2.9627,-3.9817,-3.9765,-3.9765,-3.9765,-3.9135,-3.8814,-3.9279,-3.8173,-3.7456,-3.7888,-3.745,-3.7024,-3.6932,-3.6937,-3.6764,-3.6255,-3.6101,-3.6105,-3.6237,-3.6208,-3.6114,-3.5998,-3.5313,-3.5168,-3.5647,-3.5086,-3.5168,-3.5997,-3.5905,-3.5839,-3.5839,-3.5593,-3.5525,-3.5618,-3.4998,-3.4744,-3.4723,-3.3431,-3.2904,-3.2852,-3.2231,-3.1903,-3.1903,-3.2766,-3.3024,-3.3024,-3.3938,-3.4303,-3.4165,-3.3214,-3.2904,-3.2766,-3.2024,-3.18,-3.18,-3.18,-3.18,-3.18,-3.18,-3.18,-3.18,-3.18,-3.18,-3.1834,-3.1955,-3.199,-3.2196,-3.2955,-3.2507,-3.2214,-3.2972,-3.249,-3.2024,-3.2162,-3.2697,-3.2886,-3.2283,-3.2714,-3.2886,-3.2265,-3.2179,-3.2731,-3.4165,-3.5387,-3.5904,-3.5421,-3.4818,-3.4372,-3.4113,-3.3593,-3.3473,-3.3889,-3.3886,-3.3654,-3.3132,-3.206,-3.1544,-3.1667,-3.1262,-3.1117,-3.1198,-3.1198,-3.1855,-3.2914,-3.2355,-3.2054,-3.188,-3.127,-3.0622,-2.9943,-2.9335,-2.9098,-2.9098,-2.9098,-2.9098,-2.9098,-4.0395,-4.037,-4.037,-4.037,-3.9756,-3.9279,-3.9224,-3.857,-3.7803,-3.7085,-3.6944,-3.6735,-3.6198,-3.6307,-3.6337,-3.6204,-3.6165,-3.6144,-3.6041,-3.6041,-3.5771,-3.5187,-3.5046,-3.4778,-3.4364,-3.4243,-3.4799,-3.5997,-3.5975,-3.5975,-3.5975,-3.5305,-3.4998,-3.5002,-3.4336,-3.4034,-3.3985,-3.3244,-3.2904,-3.2904,-3.28,-3.2369,-3.1955,-3.3406,-3.3507,-3.3093,-3.4525,-3.5042,-3.4818,-3.3386,-3.2904,-3.2766,-3.2024,-3.18,-3.18,-3.18,-3.18,-3.18,-3.18,-3.18,-3.18,-3.18,-3.18,-3.1972,-3.261,-3.2748,-3.2972,-3.3766,-3.33,-3.299,-3.3803,-3.3283,-3.2972,-3.3682,-3.3872,-3.3906,-3.3783,-3.3872,-3.3906,-3.3803,-3.3803,-3.4111,-3.4956,-3.5232,-3.5559,-3.6111,-3.6059,-3.5439,-3.4182,-3.4594,-3.4318,-3.3093,-3.3059,-3.2865,-3.2446,-3.1587,-3.1009,-3.0691,-3.0627,-3.08,-3.1198,-3.1198,-3.1293,-3.1467,-3.1397,-3.1018,-3.0489,-3.0378,-2.9911,-2.924,-2.9146,-2.9098,-2.9098,-2.9098,-2.9098,-2.9098,-4.0704,-4.0728,-4.0728,-4.0728,-4.0068,-3.9416,-3.8951,-3.8254,-3.7482,-3.664,-3.6559,-3.6448,-3.6204,-3.6212,-3.6251,-3.6255,-3.6208,-3.6015,-3.5568,-3.5534,-3.5229,-3.4533,-3.4086,-3.3916,-3.4113,-3.3645,-3.3933,-3.4954,-3.4854,-3.4833,-3.4816,-3.4428,-3.4497,-3.4901,-3.3777,-3.3562,-3.3948,-3.2781,-3.2524,-3.2904,-3.2904,-3.2972,-3.3197,-3.4303,-3.449,-3.4335,-3.5421,-3.5542,-3.5094,-3.4404,-3.3904,-3.3421,-3.2662,-3.2127,-3.18,-3.18,-3.18,-3.18,-3.18,-3.2093,-3.2421,-3.2421,-3.2748,-3.3266,-3.4024,-3.418,-3.4283,-3.4628,-3.4093,-3.38,-3.4559,-3.4076,-3.368,-3.4044,-3.4458,-3.4559,-3.4165,-3.4458,-3.4697,-3.4697,-3.5476,-3.6305,-3.7025,-3.7456,-3.768,-3.7577,-3.6784,-3.6008,-3.5352,-3.5249,-3.5076,-3.4818,-3.4404,-3.3894,-3.3302,-3.2295,-3.1446,-3.0845,-3.1399,-3.178,-3.1969,-3.1586,-3.1862,-3.2562,-3.2163,-3.1433,-3.0549,-3.0549,-3.0064,-2.9305,-2.9167,-2.9098,-2.9098,-2.9098,-2.9098,-2.9098]},{"header":{"parameterUnit":"m.s-1","parameterCategory":1,"la1":30.6,"la2":28.766,"lo1":-90.7593,"lo2":-88.6598,"dy":0.0162,"dx":0.0183,"nx":116,"ny":114,"refTime":"2023-08-17T06:00:00:Z","depth":0,"parameterNumber":3,"parameterNumberName":"V-component_of_WINDS"},"data":[0.0,0.0,0.0,0.0,0.0,0.0,0.0,0.0,0.0,0.0,0.0,0.0,0.0,0.0,0.0,0.0,0.0,0.0,0.0,0.0,0.0,0.0,0.0,0.0,0.0,0.0,0.0,0.0,0.0,0.0,0.0,0.0,0.0,0.0,0.0,0.0,0.0,0.0,0.0,0.0,0.0,0.0,0.0,0.0,0.0,0.0,0.0,0.0,0.0,0.0,0.0,0.0,0.0,0.0,0.0,0.0,0.0,0.0,0.0,0.0,0.0,0.0,0.0,0.0,0.0,0.0,0.0,0.0,0.0,0.0,0.0,0.0,0.0,0.0,0.0,0.0,0.0,0.0,0.0,0.0,0.0,0.0,0.0,0.0,0.0,0.0,0.0,0.0,0.0,0.0,0.0,0.0,0.0,0.0,0.0,0.0,0.0,0.0,0.0,0.0,0.0,0.0,0.0,0.0,0.0,0.0,0.0,0.0,0.0,0.0,0.0,0.0,0.0,0.0,0.0,0.0,0.0,0.0,0.0,0.0,0.0,0.0,0.0,0.0,0.0,0.0,0.0,0.0,0.0,0.0,0.0,0.0,0.0,0.0,0.0,0.0,0.0,0.0,0.0,0.0,0.0,0.0,0.0,0.0,0.0,0.0,0.0,0.0,0.0,0.0,0.0,0.0,0.0,0.0,0.0,0.0,0.0,0.0,0.0,0.0,0.0,0.0,0.0,0.0,0.0,0.0,0.0,0.0,0.0,0.0,0.0,0.0,0.0,0.0,0.0,0.0,0.0,0.0,0.0,0.0,0.0,0.0,0.0,0.0,0.0,0.0,0.0,0.0,0.0,0.0,0.0,0.0,0.0,0.0,0.0,0.0,0.0,0.0,0.0,0.0,0.0,0.0,0.0,0.0,0.0,0.0,0.0,0.0,0.0,0.0,0.0,0.0,0.0,0.0,0.0,0.0,0.0,0.0,0.0,0.0,0.0,0.0,0.0,0.0,0.0,0.0,0.0,0.0,0.0,0.0,0.0,0.0,0.0,0.0,0.0,0.0,0.0,0.0,0.0,0.0,0.0,0.0,0.0,0.0,0.0,0.0,0.0,0.0,0.0,0.0,0.0,0.0,0.0,0.0,0.0,0.0,0.0,0.0,0.0,0.0,0.0,0.0,0.0,0.0,0.0,0.0,0.0,0.0,0.0,0.0,0.0,0.0,0.0,0.0,0.0,0.0,0.0,0.0,0.0,0.0,0.0,0.0,0.0,0.0,0.0,0.0,0.0,0.0,0.0,0.0,0.0,0.0,0.0,0.0,0.0,0.0,0.0,0.0,0.0,0.0,0.0,0.0,0.0,0.0,0.0,0.0,0.0,0.0,0.0,0.0,0.0,0.0,0.0,0.0,0.0,0.0,0.0,0.0,0.0,0.0,0.0,0.0,0.0,0.0,0.0,0.0,0.0,0.0,0.0,0.0,0.0,0.0,0.0,0.0,0.0,0.0,0.0,0.0,0.0,0.0,0.0,0.0,0.0,0.0,0.0,0.0,0.0,0.0,0.0,0.0,0.0,0.0,0.0,0.0,0.0,0.0,0.0,0.0,0.0,0.0,0.0,0.0,0.0,0.0,0.0,0.0,0.0,0.0,0.0,0.0,0.0,0.0,0.0,0.0,0.0,0.0,0.0,0.0,0.0,0.0,0.0,0.0,0.0,0.0,0.0,0.0,0.0,0.0,0.0,0.0,0.0,0.0,0.0,0.0,0.0,0.0,0.0,0.0,0.0,0.0,0.0,0.0,0.0,0.0,0.0,0.0,0.0,0.0,0.0,0.0,0.0,0.0,0.0,0.0,0.0,0.0,0.0,0.0,0.0,0.0,0.0,0.0,0.0,0.0,0.0,0.0,0.0,0.0,0.0,0.0,0.0,0.0,0.0,0.0,0.0,0.0,0.0,0.0,0.0,0.0,0.0,0.0,0.0,0.0,0.0,0.0,0.0,0.0,0.0,0.0,0.0,0.0,0.0,0.0,0.0,0.0,0.0,0.0,0.0,0.0,0.0,0.0,0.0,0.0,0.0,0.0,0.0,0.0,0.0,0.0,0.0,0.0,0.0,0.0,0.0,0.0,0.0,0.0,0.0,0.0,0.0,0.0,0.0,0.0,0.0,0.0,0.0,0.0,0.0,0.0,0.0,0.0,0.0,0.0,0.0,0.0,0.0,0.0,0.0,0.0,0.0,0.0,0.0,0.0,0.0,0.0,0.0,0.0,0.0,0.0,0.0,0.0,0.0,0.0,0.0,0.0,0.0,0.0,0.0,0.0,0.0,0.0,0.0,0.0,0.0,0.0,0.0,0.0,0.0,0.0,0.0,0.0,0.0,0.0,0.0,0.0,0.0,0.0,0.0,0.0,0.0,0.0,0.0,0.0,0.0,0.0,0.0,0.0,0.0,0.0,0.0,0.0,0.0,0.0,0.0,0.0,0.0,0.0,0.0,0.0,0.0,0.0,0.0,0.0,0.0,0.0,0.0,0.0,0.0,0.0,0.0,0.0,0.0,0.0,0.0,0.0,0.0,0.0,0.0,0.0,0.0,0.0,0.0,0.0,0.0,0.0,0.0,0.0,0.0,0.0,0.0,0.0,0.0,0.0,0.0,0.0,0.0,0.0,0.0,0.0,0.0,0.0,0.0,0.0,0.0,0.0,0.0,0.0,0.0,0.0,0.0,0.0,0.0,0.0,0.0,0.0,0.0,0.0,0.0,0.0,0.0,0.0,0.0,0.0,0.0,0.0,0.0,0.0,0.0,0.0,0.0,0.0,0.0,0.0,0.0,0.0,0.0,0.0,0.0,0.0,0.0,0.0,0.0,0.0,0.0,0.0,0.0,0.0,0.0,0.0,0.0,0.0,0.0,0.0,0.0,0.0,0.0,0.0,0.0,0.0,0.0,0.0,0.0,0.0,0.0,0.0,0.0,0.0,0.0,0.0,0.0,0.0,0.0,0.0,0.0,0.0,0.0,0.0,0.0,0.0,0.0,0.0,0.0,0.0,0.0,0.0,0.0,0.0,0.0,0.0,0.0,0.0,0.0,0.0,0.0,0.0,0.0,0.0,0.0,0.0,0.0,0.0,0.0,0.0,0.0,0.0,0.0,0.0,0.0,0.0,0.0,0.0,0.0,0.0,0.0,0.0,0.0,0.0,0.0,0.0,0.0,0.0,0.0,0.0,0.0,0.0,0.0,0.0,0.0,0.0,0.0,0.0,0.0,0.0,0.0,0.0,0.0,0.0,0.0,0.0,0.0,0.0,0.0,0.0,0.0,0.0,0.0,0.0,0.0,0.0,0.0,0.0,0.0,0.0,0.0,0.0,0.0,0.0,0.0,0.0,0.0,0.0,0.0,0.0,0.0,0.0,0.0,0.0,0.0,0.0,0.0,0.0,0.0,0.0,0.0,0.0,0.0,0.0,0.0,0.0,0.0,0.0,0.0,0.0,0.0,0.0,0.0,0.0,0.0,0.0,0.0,0.0,0.0,0.0,0.0,0.0,0.0,0.0,0.0,0.0,0.0,0.0,0.0,0.0,0.0,0.0,0.0,0.0,0.0,0.0,0.0,0.0,0.0,0.0,0.0,0.0,0.0,0.0,0.0,0.0,0.0,0.0,0.0,0.0,0.0,0.0,0.0,0.0,0.0,0.0,0.0,0.0,0.0,0.0,0.0,0.0,0.0,0.0,0.0,0.0,0.0,0.0,0.0,0.0,0.0,0.0,0.0,0.0,0.0,0.0,0.0,0.0,0.0,0.0,0.0,0.0,0.0,0.0,0.0,0.0,0.0,0.0,0.0,0.0,0.0,0.0,0.0,0.0,0.0,0.0,0.0,0.0,0.0,0.0,0.0,0.0,0.0,0.0,0.0,0.0,0.0,0.0,0.0,0.0,0.0,0.0,0.0,0.0,0.0,0.0,0.0,0.0,0.0,0.0,0.0,0.0,0.0,0.0,0.0,0.0,0.0,0.0,0.0,0.0,0.0,0.0,0.0,0.0,0.0,0.0,0.0,0.0,0.0,0.0,0.0,0.0,0.0,0.0,0.0,0.0,0.0,0.0,0.0,0.0,0.0,0.0,0.0,0.0,0.0,0.0,0.0,0.0,0.0,0.0,0.0,0.0,0.0,0.0,0.0,0.0,0.0,0.0,0.0,0.0,0.0,0.0,0.0,0.0,0.0,0.0,0.0,0.0,0.0,0.0,0.0,0.0,0.0,0.0,0.0,0.0,0.0,0.0,0.0,0.0,0.0,0.0,0.0,0.0,0.0,0.0,0.0,0.0,0.0,0.0,0.0,0.0,0.0,0.0,0.0,0.0,0.0,0.0,0.0,0.0,0.0,0.0,0.0,0.0,0.0,0.0,0.0,0.0,0.0,0.0,0.0,0.0,0.0,0.0,0.0,0.0,0.0,0.0,0.0,0.0,0.0,0.0,0.0,0.0,0.0,0.0,0.0,0.0,0.0,0.0,0.0,0.0,0.0,0.0,0.0,0.0,0.0,0.0,0.0,0.0,0.0,0.0,0.0,0.0,0.0,0.0,0.0,0.0,0.0,0.0,0.0,0.0,0.0,0.0,0.0,0.0,0.0,0.0,0.0,0.0,0.0,0.0,0.0,0.0,0.0,0.0,0.0,0.0,0.0,0.0,0.0,0.0,0.0,0.0,0.0,0.0,0.0,0.0,0.0,0.0,0.0,0.0,0.0,0.0,0.0,0.0,0.0,0.0,0.0,0.0,0.0,0.0,0.0,0.0,0.0,0.0,0.0,0.0,0.0,0.0,0.0,0.0,0.0,0.0,0.0,0.0,0.0,0.0,0.0,0.0,0.0,0.0,0.0,0.0,0.0,0.0,0.0,0.0,0.0,0.0,0.0,0.0,0.0,0.0,0.0,0.0,0.0,0.0,0.0,0.0,0.0,0.0,0.0,0.0,0.0,0.0,0.0,0.0,0.0,0.0,0.0,0.0,0.0,0.0,0.0,0.0,0.0,0.0,0.0,0.0,0.0,0.0,0.0,0.0,0.0,0.0,0.0,0.0,0.0,0.0,0.0,0.0,0.0,0.0,0.0,0.0,0.0,0.0,0.0,0.0,0.0,0.0,0.0,0.0,0.0,0.0,0.0,0.0,0.0,0.0,0.0,0.0,0.0,0.0,0.0,0.0,0.0,0.0,0.0,0.0,0.0,0.0,0.0,0.0,0.0,0.0,0.0,0.0,0.0,0.0,0.0,0.0,0.0,0.0,0.0,0.0,0.0,0.0,0.0,0.0,0.0,0.0,0.0,0.0,0.0,0.0,0.0,0.0,0.0,0.0,0.0,0.0,0.0,0.0,0.0,0.0,0.0,0.0,0.0,0.0,0.0,0.0,0.0,0.0,0.0,0.0,0.0,0.0,0.0,0.0,0.0,0.0,0.0,0.0,0.0,0.0,0.0,0.0,0.0,0.0,0.0,0.0,0.0,0.0,0.0,0.0,0.0,0.0,0.0,0.0,0.0,0.0,0.0,0.0,0.0,0.0,0.0,0.0,0.0,0.0,0.0,0.0,0.0,0.0,0.0,0.0,0.0,0.0,0.0,0.0,0.0,0.0,0.0,0.0,0.0,0.0,0.0,0.0,0.0,0.0,0.0,0.0,0.0,0.0,0.0,0.0,0.0,0.0,0.0,0.0,0.0,0.0,0.0,0.0,0.0,0.0,0.0,0.0,0.0,0.0,0.0,0.0,0.0,0.0,0.0,0.0,0.0,0.0,0.0,0.0,0.0,0.0,0.0,0.0,0.0,0.0,0.0,0.0,0.0,0.0,0.0,0.0,0.0,0.0,0.0,0.0,0.0,0.0,0.0,0.0,0.0,0.0,0.0,0.0,0.0,0.0,0.0,0.0,0.0,0.0,0.0,0.0,0.0,0.0,0.0,0.0,0.0,0.0,0.0,0.0,0.0,0.0,0.0,0.0,0.0,0.0,0.0,0.0,0.0,0.0,0.0,0.0,0.0,0.0,0.0,0.0,0.0,0.0,0.0,0.0,0.0,0.0,0.0,0.0,0.0,0.0,0.0,0.0,0.0,0.0,0.0,0.0,0.0,0.0,0.0,0.0,-2.4519,0.0,0.0,0.0,0.0,0.0,0.0,0.0,0.0,0.0,0.0,0.0,0.0,0.0,0.0,0.0,0.0,0.0,0.0,0.0,0.0,0.0,0.0,0.0,0.0,0.0,0.0,0.0,0.0,0.0,0.0,0.0,0.0,0.0,0.0,0.0,0.0,0.0,0.0,0.0,0.0,0.0,0.0,0.0,0.0,0.0,0.0,0.0,0.0,0.0,0.0,0.0,0.0,0.0,0.0,0.0,0.0,0.0,0.0,0.0,0.0,0.0,0.0,0.0,0.0,0.0,0.0,0.0,0.0,0.0,0.0,0.0,0.0,0.0,0.0,0.0,0.0,0.0,0.0,0.0,0.0,0.0,0.0,0.0,0.0,0.0,0.0,0.0,0.0,0.0,0.0,0.0,0.0,0.0,0.0,0.0,0.0,0.0,0.0,0.0,0.0,0.0,0.0,0.0,0.0,0.0,0.0,0.0,0.0,0.0,0.0,0.0,0.0,0.0,0.0,0.0,0.0,-2.5781,0.0,0.0,0.0,0.0,0.0,0.0,0.0,0.0,0.0,0.0,0.0,0.0,0.0,0.0,0.0,0.0,0.0,0.0,0.0,0.0,0.0,0.0,0.0,0.0,0.0,0.0,0.0,0.0,0.0,0.0,0.0,0.0,0.0,0.0,0.0,0.0,0.0,0.0,0.0,0.0,0.0,0.0,0.0,0.0,0.0,0.0,0.0,0.0,0.0,0.0,0.0,0.0,0.0,0.0,0.0,0.0,0.0,0.0,0.0,0.0,0.0,0.0,0.0,0.0,0.0,0.0,0.0,0.0,0.0,0.0,0.0,0.0,0.0,0.0,0.0,0.0,0.0,0.0,0.0,0.0,0.0,0.0,0.0,0.0,0.0,0.0,0.0,0.0,0.0,0.0,0.0,0.0,0.0,0.0,0.0,0.0,0.0,0.0,0.0,0.0,0.0,0.0,0.0,0.0,0.0,0.0,0.0,0.0,-3.3775,-3.4323,-3.4568,-3.4568,-3.4337,-3.3719,-3.1331,-2.9996,-2.935,-2.7481,0.0,0.0,0.0,0.0,0.0,0.0,0.0,0.0,0.0,0.0,0.0,0.0,0.0,0.0,0.0,0.0,0.0,0.0,0.0,0.0,0.0,0.0,0.0,0.0,0.0,0.0,0.0,0.0,0.0,0.0,0.0,0.0,0.0,0.0,0.0,0.0,0.0,0.0,-3.1822,-3.294,-3.3213,-3.2625,-2.9785,0.0,0.0,0.0,0.0,0.0,0.0,0.0,0.0,0.0,0.0,0.0,0.0,0.0,0.0,0.0,0.0,0.0,0.0,0.0,0.0,0.0,0.0,0.0,0.0,0.0,0.0,0.0,0.0,0.0,0.0,0.0,0.0,0.0,0.0,0.0,0.0,0.0,0.0,0.0,0.0,0.0,0.0,0.0,-2.062,-2.2218,0.0,0.0,0.0,0.0,0.0,0.0,0.0,0.0,0.0,0.0,0.0,0.0,0.0,-3.2067,-3.4992,-3.6276,-3.7512,-3.8721,-4.0421,-4.0702,-3.9718,-3.9718,-3.9676,-3.9493,-3.754,0.0,-3.2533,-3.0684,0.0,0.0,0.0,0.0,0.0,0.0,0.0,0.0,0.0,0.0,0.0,0.0,0.0,0.0,0.0,0.0,0.0,0.0,0.0,0.0,0.0,0.0,0.0,0.0,0.0,0.0,0.0,0.0,0.0,0.0,0.0,0.0,0.0,0.0,0.0,0.0,-3.0488,-3.3087,-3.5012,-3.6262,-3.7203,-3.7821,-3.681,-3.4393,-3.0979,-2.9617,0.0,0.0,0.0,0.0,0.0,0.0,0.0,0.0,0.0,0.0,0.0,0.0,0.0,0.0,0.0,0.0,0.0,0.0,0.0,0.0,0.0,0.0,0.0,0.0,0.0,0.0,0.0,0.0,0.0,0.0,0.0,0.0,0.0,0.0,0.0,0.0,0.0,0.0,0.0,-2.0492,-2.2846,-2.3468,-2.4493,-2.4757,0.0,0.0,0.0,0.0,0.0,0.0,0.0,0.0,0.0,-3.355,-3.4978,-3.6613,-3.865,-4.0252,-4.1502,-4.2402,-4.3568,-4.4031,-4.3821,-4.3469,-4.3301,-4.3216,-4.1699,-3.9873,-3.7723,-3.4492,-3.2539,-3.1316,0.0,0.0,0.0,0.0,-2.6863,-2.7242,0.0,0.0,0.0,0.0,0.0,0.0,0.0,0.0,0.0,0.0,0.0,0.0,0.0,0.0,0.0,-2.7284,0.0,0.0,0.0,0.0,0.0,0.0,0.0,0.0,0.0,0.0,0.0,0.0,-3.3129,-3.5756,-3.8201,-3.962,-4.0856,-4.191,-4.2528,-3.9564,-3.4014,-3.3073,-3.0965,0.0,0.0,0.0,0.0,0.0,0.0,0.0,0.0,0.0,0.0,0.0,0.0,0.0,0.0,0.0,0.0,0.0,0.0,0.0,0.0,0.0,0.0,0.0,0.0,0.0,0.0,0.0,0.0,0.0,0.0,0.0,0.0,0.0,0.0,0.0,0.0,0.0,0.0,-2.2735,-2.5052,-2.4813,-2.6958,-2.7722,0.0,0.0,0.0,0.0,0.0,0.0,-3.3031,-3.4,-3.5559,-3.7932,-3.9521,-4.0955,-4.2345,-4.375,-4.4748,-4.5366,-4.5781,-4.6125,-4.6279,-4.5802,-4.5394,-4.5043,-4.413,-4.302,-4.1559,-3.7723,-3.5124,-3.3424,-3.1817,-3.0684,-2.9883,-2.9883,-2.9883,-3.0052,0.0,0.0,0.0,0.0,0.0,0.0,0.0,0.0,0.0,0.0,0.0,0.0,0.0,0.0,-2.9265,-3.105,-3.0825,-3.0249,0.0,0.0,0.0,0.0,0.0,0.0,0.0,0.0,0.0,-3.2258,-3.5897,-3.8945,-4.1418,-4.3273,-4.4481,-4.5127,-4.5774,-4.4214,-4.087,-3.733,-3.5419,-3.4225,0.0,0.0,0.0,0.0,0.0,0.0,0.0,0.0,0.0,0.0,0.0,0.0,0.0,0.0,0.0,0.0,0.0,0.0,0.0,0.0,0.0,0.0,0.0,0.0,0.0,0.0,0.0,0.0,0.0,0.0,0.0,0.0,0.0,0.0,0.0,0.0,0.0,0.0,0.0,-2.675,-3.244,0.0,0.0,0.0,0.0,-3.2117,-3.2721,-3.4436,-3.7428,-3.7639,-3.9339,-4.3006,-4.3778,-4.5015,-4.6869,-4.6982,-4.7333,-4.7887,-4.7915,-4.7389,-4.6293,-4.6265,-4.5591,-4.4453,-4.4397,-4.3666,-4.2331,-3.9788,-3.796,-3.6515,-3.4112,-3.3108,-3.3087,-3.3087,-3.3087,-3.3269,0.0,0.0,0.0,0.0,0.0,0.0,0.0,0.0,0.0,0.0,0.0,0.0,0.0,-2.9701,-3.2848,-3.4345,-3.6051,-3.5967,-3.3389,0.0,0.0,0.0,0.0,0.0,0.0,0.0,-3.2258,-3.5349,-3.8271,-4.0772,-4.2851,-4.3919,-4.4959,-4.5984,-4.6602,-4.604,-4.4467,-4.1924,-3.91,-3.6009,-3.2202,-2.8858,0.0,0.0,0.0,0.0,0.0,0.0,0.0,0.0,0.0,0.0,0.0,0.0,0.0,0.0,0.0,0.0,0.0,0.0,0.0,0.0,0.0,0.0,0.0,0.0,0.0,0.0,0.0,0.0,0.0,0.0,0.0,0.0,0.0,0.0,0.0,0.0,0.0,-3.1494,-3.5855,0.0,-3.5503,-3.6445,-3.7203,-3.7161,-3.9212,-4.1292,-4.3202,-4.368,-4.4692,-4.642,-4.6687,-4.7122,-4.7783,-4.7797,-4.7909,-4.812,-4.812,-4.7684,-4.6869,-4.6476,-4.5816,-4.4987,-4.4579,-4.3947,-4.3076,-4.1827,-4.028,-3.8622,-3.6922,-3.6262,-3.6262,-3.6262,-3.6262,-3.6332,0.0,0.0,0.0,0.0,0.0,0.0,0.0,0.0,0.0,0.0,0.0,-2.5078,-2.779,-3.2476,-3.622,-3.8143,-3.9564,-3.8903,-3.5414,0.0,0.0,0.0,0.0,0.0,0.0,-3.164,-3.4843,-3.792,-4.021,-4.2289,-4.413,-4.4748,-4.5717,-4.6926,-4.7347,-4.7291,-4.6813,-4.5366,-4.2598,-3.8917,-3.5798,-3.2707,-2.9434,0.0,0.0,0.0,0.0,0.0,0.0,0.0,0.0,0.0,0.0,0.0,0.0,0.0,0.0,0.0,0.0,0.0,0.0,0.0,0.0,0.0,0.0,0.0,0.0,0.0,0.0,0.0,0.0,0.0,0.0,0.0,0.0,0.0,0.0,0.0,-3.4492,-3.5059,-3.9381,-4.146,-3.9353,-4.0688,-4.1854,-4.2261,-4.4383,-4.6125,-4.7164,-4.7417,-4.7712,-4.812,-4.812,-4.812,-4.812,-4.812,-4.812,-4.812,-4.812,-4.7698,-4.6883,-4.6476,-4.583,-4.4987,-4.4579,-4.4059,-4.3469,-4.3062,-4.2036,-4.0603,-3.9339,-3.8847,-3.8847,-3.8847,-3.8721,-3.8482,0.0,0.0,0.0,0.0,0.0,0.0,0.0,0.0,0.0,0.0,-2.3603,-2.7565,-3.1907,-3.57,-3.917,-4.2261,-4.08,-3.8452,-3.5358,-3.1068,0.0,0.0,0.0,0.0,-3.1513,-3.405,-3.6821,-3.9873,-4.1727,-4.3568,-4.5366,-4.6026,-4.6968,-4.812,-4.812,-4.8134,-4.812,-4.7488,-4.5858,-4.3287,-3.8903,-3.6778,-3.5527,0.0,0.0,0.0,0.0,0.0,0.0,0.0,0.0,0.0,0.0,0.0,0.0,0.0,0.0,0.0,0.0,0.0,0.0,0.0,0.0,0.0,0.0,0.0,0.0,0.0,0.0,0.0,0.0,0.0,0.0,0.0,0.0,0.0,-2.9617,-3.4576,-3.7892,-3.7372,-4.3231,-4.59,-4.2261,-4.5169,-4.7305,-4.7319,-4.7853,-4.8406,-4.9009,-4.8448,-4.8111,-4.8111,-4.8134,-4.812,-4.812,-4.812,-4.812,-4.812,-4.812,-4.7488,-4.6293,-4.6293,-4.5605,-4.4411,-4.4411,-4.4074,-4.3526,-4.3512,-4.3132,-4.2458,-4.1235,-4.0744,-4.073,-4.073,-4.0322,-3.9606,0.0,0.0,0.0,0.0,0.0,0.0,0.0,0.0,0.0,0.0,-2.3702,-2.7888,-3.1359,-3.584,-3.9311,-4.1067,-3.9507,-3.7302,-3.466,0.0,0.0,0.0,0.0,0.0,-3.4106,-3.661,-3.9183,-4.1812,-4.3216,-4.4635,-4.604,-4.6659,-4.7375,-4.812,-4.812,-4.8322,-4.8701,-4.8134,-4.7726,-4.7045,-4.2275,-3.9437,-3.7707,0.0,0.0,0.0,0.0,0.0,0.0,0.0,0.0,0.0,0.0,0.0,0.0,0.0,0.0,0.0,0.0,0.0,0.0,0.0,0.0,0.0,0.0,0.0,0.0,0.0,0.0,0.0,0.0,0.0,0.0,0.0,0.0,-3.3783,-3.3684,-3.844,-4.257,-4.42,-4.7628,-4.9469,-4.8429,-4.8864,-4.9384,-4.9834,-4.9609,-4.9721,-5.034,-4.9356,-4.8729,-4.8729,-4.8308,-4.812,-4.812,-4.812,-4.812,-4.812,-4.812,-4.7488,-4.6293,-4.6293,-4.5605,-4.4411,-4.4411,-4.4326,-4.413,-4.368,-4.3132,-4.2556,-4.2191,-4.1783,-4.1362,-4.1362,-4.0688,-3.9718,0.0,0.0,0.0,0.0,0.0,0.0,0.0,0.0,0.0,0.0,-2.4137,-2.8493,-3.1893,-3.5967,-3.8861,-3.9845,-3.7512,-3.4829,-3.2055,0.0,0.0,0.0,0.0,-3.3649,-3.706,-3.9324,-4.1516,-4.3736,-4.4439,-4.5436,-4.6687,-4.7052,-4.7684,-4.8462,-4.8462,-4.885,-4.9398,-4.9047,-4.9103,-4.9131,-4.5717,-4.3399,-4.1587,-3.7948,-3.5742,-3.4365,-3.2645,-3.1991,-3.1583,-2.9588,0.0,0.0,0.0,0.0,0.0,0.0,0.0,0.0,0.0,0.0,0.0,0.0,0.0,0.0,0.0,0.0,0.0,0.0,0.0,0.0,0.0,0.0,0.0,0.0,-3.6023,-3.9169,-4.0112,-4.3006,-4.5872,-4.8106,-5.0073,-5.1056,-5.059,-5.0688,-5.0716,-5.0547,-5.021,-5.0055,-5.0101,-4.9188,-4.8602,-4.8602,-4.8252,-4.812,-4.812,-4.812,-4.812,-4.812,-4.812,-4.7488,-4.6293,-4.6293,-4.5605,0.0,-4.4411,-4.4411,-4.4383,-4.4031,-4.3512,0.0,0.0,0.0,0.0,0.0,-4.0617,-3.9774,0.0,0.0,0.0,0.0,0.0,0.0,0.0,0.0,0.0,0.0,0.0,-2.8844,-3.2476,-3.5517,-3.7569,-3.8325,-3.4941,-3.1541,0.0,0.0,0.0,-2.9869,-3.3024,-3.6402,-3.9915,-4.1755,-4.3554,-4.5276,-4.5408,-4.604,-4.7207,-4.7347,-4.7993,-4.8995,-4.9066,-4.9483,-5.0111,-5.0041,-5.0055,-4.9999,-4.8724,-4.753,-4.6055,-4.1966,-3.9985,-3.9016,-3.6192,-3.4478,-3.334,-3.1935,0.0,0.0,0.0,0.0,0.0,0.0,0.0,0.0,0.0,0.0,0.0,0.0,0.0,0.0,0.0,0.0,0.0,0.0,0.0,0.0,0.0,0.0,0.0,0.0,-4.0083,-4.4186,-4.7291,-4.767,-4.8232,-4.9914,-5.1028,-5.1253,-5.0224,-5.0986,-5.1126,-5.0097,-4.9943,-4.9623,-4.9023,0.0,0.0,0.0,0.0,-4.812,-4.812,-4.812,-4.812,-4.812,-4.812,-4.7516,-4.6392,-4.6392,-4.5703,-4.4509,-4.4509,-4.4467,-4.4411,-4.4411,-4.4003,-4.3273,-4.2078,-4.1278,-4.0786,-4.073,-4.035,-3.9873,0.0,0.0,0.0,0.0,0.0,0.0,0.0,0.0,0.0,-2.0077,-2.3417,-2.675,-2.9968,-3.2202,-3.3916,-3.5003,-3.1738,-2.8689,0.0,0.0,-2.9757,-3.2483,-3.6051,-3.9002,-4.1207,-4.2612,-4.3975,-4.5276,-4.5858,-4.6476,-4.7235,-4.8181,-4.8771,-4.9009,-4.9567,-5.0168,-5.0716,-5.0224,-5.0294,-5.0593,-4.9356,-4.8364,-4.7516,-4.5155,-4.3568,-4.2458,-4.1362,-4.0814,-4.0266,-3.8018,-3.6908,-3.5939,-3.2848,0.0,0.0,0.0,0.0,0.0,0.0,0.0,0.0,0.0,0.0,0.0,0.0,0.0,0.0,0.0,0.0,0.0,0.0,0.0,0.0,-4.1334,-4.4383,-4.7389,-5.0466,-5.048,-5.0297,-5.0649,-5.0902,-5.0958,-5.0772,-5.0519,-5.0266,-5.0027,-4.9497,-4.9122,-4.8995,-4.8406,-4.812,-4.812,-4.812,-4.812,-4.812,-4.812,-4.812,-4.812,0.0,0.0,-4.7038,-4.7038,-4.635,-4.5108,-4.5108,-4.4874,-4.4411,-4.4411,-4.3764,-4.2683,-4.191,-4.1545,-4.1376,-4.0884,-4.0631,-4.0491,0.0,0.0,0.0,0.0,0.0,0.0,0.0,0.0,0.0,0.0,-2.1861,-2.4556,-2.7017,-2.8394,-2.9265,-2.9574,-2.7326,0.0,0.0,-2.8816,-3.2061,-3.5461,-3.858,-4.0969,-4.2528,-4.3469,-4.4565,-4.5816,-4.6139,-4.6757,-4.7684,-4.856,-4.9202,-4.9525,-5.0143,-5.0815,-5.1309,-5.1,-5.0874,-5.0843,-4.9876,-4.8949,-4.7943,-4.6743,-4.5703,-4.4776,-4.3835,-4.3104,-4.2345,-4.0772,-4.0027,-3.9381,-3.7231,-3.4211,-3.0839,0.0,0.0,0.0,0.0,0.0,0.0,0.0,0.0,0.0,0.0,0.0,0.0,0.0,0.0,-3.419,0.0,0.0,-4.2458,-4.4945,-4.7178,-4.923,-5.107,-5.0857,-5.0575,-5.0885,-5.0874,-5.0635,-5.0016,-4.996,-4.976,-4.9089,-4.9047,-4.8855,-4.8546,-4.8237,-4.812,-4.812,-4.812,-4.812,-4.812,-4.812,-4.812,-4.812,-4.812,-4.7797,-4.7207,-4.7207,-4.6701,-4.5788,-4.5464,-4.5108,-4.4804,-4.3877,-4.295,-4.2036,-4.1404,-4.1151,-4.1109,-4.0814,-4.0505,-4.0238,0.0,0.0,0.0,0.0,0.0,0.0,0.0,0.0,0.0,0.0,0.0,-2.2151,-2.3923,-2.4531,-2.4573,0.0,0.0,0.0,0.0,-2.9996,-3.3972,-3.792,-4.0477,-4.2275,-4.3287,-4.4158,-4.5155,-4.6293,-4.642,-4.7038,-4.8097,-4.8878,-4.9483,-5.0041,-5.0772,-5.1323,-5.1773,-5.166,-5.1323,-5.0871,-5.0073,-4.9117,-4.8035,-4.7164,-4.6532,-4.5942,-4.4692,-4.3132,-4.1643,-4.1488,-4.1109,-4.0645,-4.0266,-3.8693,-3.6107,-3.164,-2.9476,0.0,0.0,0.0,0.0,0.0,0.0,0.0,0.0,0.0,-3.3761,-3.5489,-3.7119,-3.8889,-4.1011,-4.3638,-4.5984,-4.7502,-4.9089,-5.0322,-5.0688,-5.0322,-5.0154,-5.0466,-5.0522,-5.0129,-4.908,-4.9483,-4.9328,-4.8218,-4.8644,-4.8729,-4.8111,-4.812,-4.812,-4.812,-4.812,-4.812,-4.812,-4.812,-4.812,-4.812,-4.812,-4.7867,-4.7389,-4.7389,-4.7052,-4.642,-4.5661,-4.5206,-4.5015,-4.3287,-4.2275,-4.1727,-4.0983,-4.0702,-4.0702,-4.0702,-4.0378,-3.9943,0.0,0.0,0.0,0.0,0.0,0.0,0.0,0.0,0.0,0.0,0.0,0.0,0.0,0.0,0.0,0.0,0.0,0.0,0.0,-3.2103,-3.5967,-3.8677,-4.1137,-4.2528,-4.2683,-4.4355,-4.5577,-4.6293,-4.6841,-4.7459,-4.8148,-4.9314,-4.9943,-5.0055,-5.1169,-5.1731,-5.1745,-5.1211,-5.093,-5.0775,-4.9609,-4.8738,-4.7887,-4.6146,-4.5445,-4.5268,-4.4045,-4.1376,-3.8664,-4.0266,-3.9339,-3.7962,-4.0589,-3.9367,-3.6445,-3.3719,0.0,-2.7313,-2.4613,-2.4922,-2.6399,-2.8071,-2.9785,-3.2651,0.0,0.0,-4.0659,-4.413,-4.5436,-4.6223,-4.7038,-4.8373,-4.945,-4.9675,-5.0336,-5.066,-5.0182,-5.0055,-4.9778,-4.93,-4.9192,-4.9136,-4.8995,-4.9052,-4.8813,-4.8125,-4.8644,-4.8729,-4.8111,-4.812,-4.812,-4.812,-4.812,-4.812,-4.812,-4.812,-4.812,-4.812,-4.812,-4.8078,-4.8021,-4.8021,-4.7684,-4.7038,-4.5844,-4.5029,-4.4411,-4.3118,-4.2542,-4.2359,-4.1165,-4.0702,-4.0702,-4.0702,-4.0659,-4.0519,0.0,0.0,0.0,0.0,0.0,0.0,0.0,0.0,0.0,0.0,0.0,0.0,0.0,0.0,0.0,0.0,0.0,0.0,-2.7059,-3.1541,-3.5686,-3.9296,-4.1081,-4.2359,-4.3104,-4.4214,-4.5282,-4.6293,-4.6546,-4.7164,-4.8148,-4.9384,-5.0013,-5.0055,-5.1239,-5.1787,-5.1745,-5.114,-5.0716,-5.0322,-4.9398,-4.7971,-4.6329,-4.5226,-4.368,-4.1882,-4.028,-3.8257,0.0,0.0,-3.6726,-3.6905,-3.9269,-3.8622,-3.6501,-3.4042,-3.171,0.0,-2.9968,-3.0094,0.0,0.0,-3.6824,-3.9409,-4.2964,-4.4692,-4.6083,-4.8072,-4.9202,-4.9946,-5.0213,-5.0677,-5.0902,0.0,-5.0463,-5.0308,-5.0055,-4.9342,-4.8668,-4.805,-4.7979,-4.812,-4.842,-4.8462,-4.835,-4.8097,-4.8308,-4.835,-4.8134,-4.812,-4.812,-4.812,-4.812,-4.812,-4.812,-4.812,-4.812,-4.812,-4.812,-4.812,-4.812,-4.812,-4.76,-4.6631,-4.5717,-4.4579,-4.3301,-4.2795,-4.2149,-4.1432,-4.0912,-4.0702,-4.0702,-4.0702,-4.0477,-4.0083,0.0,0.0,0.0,0.0,0.0,0.0,0.0,0.0,0.0,0.0,0.0,0.0,0.0,0.0,0.0,0.0,0.0,0.0,0.0,-3.0221,-3.4407,-3.8621,-4.0435,0.0,-4.295,-4.4088,-4.5113,-4.6026,-4.6209,-4.6757,-4.7642,-4.8878,-4.9507,-4.9511,-5.0733,-5.1379,-5.1478,-5.0705,-5.0115,-4.9637,-4.885,-4.7002,-4.472,-4.375,-4.125,-3.8074,-3.6712,-3.4899,0.0,0.0,-3.2595,-3.3206,-3.5597,-3.5686,-3.4632,-3.3031,-3.1555,-3.0867,-3.2687,0.0,0.0,-3.9212,-4.2556,-4.5141,-4.6532,-4.8485,-5.0199,-5.0899,-5.1462,-5.1745,-5.1562,-5.1253,-5.0831,-5.0213,-4.975,-4.9507,-4.9507,-4.8401,-4.7459,-4.701,-4.6645,-4.6673,-4.7241,-4.767,-4.7867,-4.7867,-4.8035,-4.812,-4.812,-4.812,-4.812,-4.812,-4.812,-4.812,-4.812,-4.812,-4.812,-4.812,-4.812,-4.812,-4.812,-4.7951,-4.7291,-4.6265,-4.5605,-4.4467,-4.3062,-4.2725,-4.2036,-4.1179,-4.0842,-4.0702,-4.0702,-4.0702,-4.0308,-3.9676,0.0,0.0,0.0,0.0,0.0,0.0,0.0,0.0,0.0,0.0,0.0,0.0,0.0,0.0,0.0,0.0,0.0,0.0,0.0,-2.8535,-3.2272,-3.6061,-3.91,-4.1025,-4.1657,-4.4013,-4.5262,-4.5304,-4.5984,-4.6321,-4.6378,-4.76,-4.8176,-4.8232,-4.9469,-5.0393,-5.0871,-4.9609,-4.9037,-4.8911,-4.7754,-4.5774,-4.3343,-4.1502,-3.8145,-3.4357,-3.4301,0.0,0.0,0.0,-2.6427,-2.5091,-2.8731,-2.9855,0.0,-3.0427,-2.9321,-2.8326,0.0,0.0,-3.6178,-4.0491,-4.4804,-4.8471,-5.0297,-5.1688,-5.277,-5.3431,-5.2616,-5.1604,-5.1014,-4.9932,-4.8869,-4.8252,-4.819,-4.8176,-4.8176,-4.7122,-4.635,-4.6321,-4.524,-4.4734,0.0,-4.6518,-4.7235,-4.7235,-4.7783,-4.812,-4.812,-4.812,-4.812,-4.812,-4.812,-4.812,-4.812,-4.812,-4.812,-4.812,-4.812,-4.812,-4.8106,-4.7502,-4.6897,-4.6265,-4.5605,-4.4959,-4.4256,-4.3076,-4.2556,-4.2402,-4.1179,-4.0702,-4.0702,-4.0702,-4.0308,-3.9606,0.0,0.0,0.0,0.0,0.0,0.0,0.0,0.0,0.0,0.0,0.0,0.0,0.0,0.0,0.0,0.0,0.0,0.0,0.0,-2.5781,-2.935,-3.2258,-3.615,-3.8721,-3.9774,-4.1404,-4.2669,-4.3512,-4.3722,-4.4045,-4.4467,-4.5689,-4.6216,-4.6321,-4.7572,-4.8246,-4.8387,-4.7572,-4.7459,-4.7614,-4.5141,-4.2893,-4.0786,-3.8496,-3.4674,-3.0347,0.0,0.0,0.0,0.0,0.0,-2.3786,-2.5879,-2.6568,-2.6821,-2.8282,-2.9125,-3.0544,0.0,0.0,-4.1643,-4.5535,-4.9174,-5.2082,-5.3107,-5.3655,-5.3655,-5.263,-5.0143,-4.7698,-4.6251,-4.4284,-4.3245,-4.427,-4.5127,-4.6237,-4.7895,-4.812,-4.7502,-4.5844,-4.6012,0.0,0.0,0.0,0.0,-4.7122,-4.7024,-4.7277,-4.8078,-4.812,-4.812,-4.812,-4.812,-4.812,-4.812,-4.812,-4.812,-4.812,-4.812,-4.812,-4.8092,-4.7066,-4.649,-4.6237,-4.5183,-4.4144,-4.316,-4.2753,-4.2093,-4.1292,-4.087,-4.0702,-4.0702,-4.0702,-4.0561,-4.0266,0.0,0.0,0.0,0.0,0.0,0.0,0.0,0.0,0.0,0.0,0.0,0.0,0.0,0.0,0.0,0.0,0.0,0.0,0.0,0.0,-2.5725,-2.8422,-3.185,-3.4317,-3.5569,-3.6768,-3.7807,-3.8622,-3.9058,-3.9704,-4.0561,-4.1994,-4.2921,-4.3385,-4.4425,-4.5127,-4.5507,-4.465,-4.4144,-4.368,-4.1235,-3.8468,-3.5616,-3.3825,-3.0337,0.0,0.0,0.0,0.0,0.0,0.0,0.0,-2.3544,-2.4922,-2.6371,-2.8212,-3.0066,-3.2799,-3.8889,-4.2303,-4.5197,-4.9567,-5.2349,-5.4105,-5.4498,-5.4245,-5.3135,-5.0396,-4.7235,-4.4116,-4.1348,-3.917,-3.8482,-4.0575,-4.1755,-4.361,-4.6996,-4.7417,-4.6988,-4.6111,-4.6125,0.0,0.0,0.0,0.0,-4.6757,-4.6926,-4.7291,-4.8078,-4.817,-4.8221,-4.812,-4.8207,-4.8221,-4.812,-4.812,-4.812,-4.812,-4.812,-4.8007,-4.7754,-4.6757,-4.6167,-4.5872,-4.4621,-4.3638,-4.2879,-4.243,-4.1896,-4.1348,-4.1123,-4.1165,-4.1376,-4.1376,-4.1221,-4.0898,0.0,0.0,0.0,0.0,0.0,0.0,0.0,0.0,0.0,0.0,0.0,0.0,0.0,0.0,0.0,0.0,0.0,0.0,0.0,0.0,0.0,-2.4491,-2.654,-2.8169,-2.9361,-3.0628,-3.1288,-3.1345,-3.2511,-3.3655,-3.4913,-3.6655,-3.8116,-3.9283,-3.9901,-4.0842,-4.1882,-4.0688,-3.9156,-3.7414,-3.6188,-3.2812,-2.8436,-2.7847,0.0,0.0,0.0,0.0,0.0,0.0,0.0,0.0,0.0,-2.5077,-2.8396,-3.0361,-3.2266,-3.525,-4.1966,-4.4748,-4.7038,-5.2391,-5.4161,-5.4583,-5.454,-5.3416,-5.1183,-4.6968,-4.3919,-4.0716,0.0,0.0,-3.4736,-3.7302,-3.8412,-4.073,-4.5647,-4.5366,-4.5282,0.0,0.0,0.0,0.0,0.0,0.0,-4.6251,0.0,-4.805,-4.812,-4.8358,-4.8344,-4.812,-4.8358,-4.8358,-4.812,-4.812,-4.812,-4.812,-4.812,-4.7797,-4.7193,-4.6574,-4.5928,-4.5164,-4.4017,-4.3455,-4.3315,-4.2107,-4.198,-4.2472,-4.1854,-4.2008,-4.2584,-4.2612,-4.2233,-4.1545,0.0,0.0,0.0,0.0,0.0,0.0,0.0,0.0,0.0,0.0,0.0,0.0,0.0,0.0,0.0,0.0,0.0,0.0,0.0,0.0,0.0,0.0,0.0,0.0,0.0,-2.7462,-2.8464,-2.9406,0.0,-3.0038,-3.0375,-3.1288,-3.1893,-3.223,-3.2848,-3.3297,-3.3578,-3.3255,-3.2799,-3.2224,0.0,-2.8326,-2.5892,0.0,0.0,0.0,0.0,0.0,0.0,0.0,0.0,0.0,0.0,-2.9012,-3.1359,-3.5555,-3.8397,-4.1292,-4.6251,-4.9525,-5.1997,-5.388,-5.447,-5.447,-5.4007,-5.0803,-4.7094,-4.4144,-3.8622,-3.355,0.0,0.0,0.0,-3.4582,-3.8018,0.0,-4.6335,-4.7488,0.0,0.0,0.0,-4.6687,-4.5402,-4.604,0.0,0.0,-4.6841,-4.7164,-4.8078,-4.817,-4.817,-4.812,-4.817,-4.817,-4.812,-4.812,-4.812,-4.812,-4.812,-4.7797,-4.7193,-4.6574,-4.5689,-4.4607,-4.3835,-4.2964,-4.2078,-4.1741,-4.1713,-4.184,-4.1685,-4.2008,-4.2626,-4.309,-4.316,-4.2978,0.0,0.0,0.0,0.0,0.0,0.0,0.0,0.0,0.0,0.0,0.0,0.0,0.0,0.0,0.0,0.0,0.0,0.0,0.0,0.0,0.0,0.0,0.0,0.0,0.0,-2.1912,-2.2662,0.0,0.0,0.0,0.0,-2.6455,-2.7186,-2.7987,-2.8338,-2.8647,-2.8827,0.0,0.0,0.0,0.0,0.0,0.0,0.0,0.0,0.0,0.0,0.0,0.0,0.0,0.0,-2.9125,-3.1963,-3.4267,-3.6796,-4.1221,0.0,-4.5549,-4.9876,-5.2531,-5.4161,-5.4498,-5.4386,-5.3459,-5.0649,-4.7071,-4.2911,-3.7961,-3.2803,0.0,0.0,0.0,0.0,0.0,0.0,0.0,-4.4788,-4.6552,-4.7656,0.0,-4.8246,0.0,-4.6609,-4.7193,-4.76,0.0,-4.7291,-4.7403,-4.8078,-4.8207,-4.8207,-4.812,-4.8322,-4.8409,-4.8258,-4.8258,-4.8207,-4.812,-4.7853,-4.7403,-4.6771,-4.5886,-4.4931,-4.3961,0.0,-4.2275,-4.1615,-4.1615,-4.1783,-4.2064,-4.2331,-4.2823,-4.3427,-4.3764,-4.3891,-4.3863,0.0,0.0,0.0,0.0,0.0,0.0,0.0,0.0,0.0,0.0,0.0,0.0,0.0,0.0,0.0,0.0,0.0,0.0,0.0,0.0,0.0,0.0,0.0,0.0,0.0,0.0,0.0,0.0,0.0,0.0,0.0,0.0,0.0,0.0,0.0,0.0,0.0,0.0,0.0,0.0,0.0,0.0,0.0,0.0,0.0,0.0,0.0,0.0,0.0,0.0,-3.1668,-3.4407,-3.7119,-3.9985,-4.3048,-4.6546,-4.7698,-4.8682,-5.2602,-5.4175,-5.4695,-5.4611,-5.388,-5.1773,-4.6322,-4.2773,-3.853,-3.0918,0.0,-2.5051,-2.3287,0.0,-2.5948,-2.8865,0.0,-3.7642,-4.2404,-4.4462,-4.6518,-4.9422,-4.8836,-4.8167,-4.8134,-4.812,-4.812,-4.812,-4.812,-4.812,-4.812,-4.8308,-4.8358,-4.817,-4.861,-4.8745,-4.8481,-4.8481,-4.8316,-4.7993,-4.7459,-4.6883,-4.6251,-4.4987,-4.4074,-4.3427,-4.2261,0.0,-4.1502,-4.1671,-4.2078,-4.264,-4.3259,-4.3877,-4.4411,-4.4411,-4.4411,-4.4326,0.0,0.0,0.0,0.0,0.0,0.0,0.0,0.0,0.0,0.0,-1.2838,-1.282,0.0,0.0,0.0,0.0,0.0,0.0,0.0,0.0,0.0,0.0,0.0,0.0,0.0,0.0,0.0,0.0,0.0,0.0,0.0,0.0,0.0,0.0,0.0,0.0,0.0,0.0,0.0,0.0,0.0,0.0,0.0,0.0,0.0,0.0,0.0,0.0,0.0,0.0,-3.3803,-3.7807,-4.1854,-4.4565,-4.6659,-4.8888,-5.0199,-5.1393,-5.3178,-5.4484,-5.5215,-5.4709,-5.2574,-4.9487,-4.492,-3.9236,0.0,0.0,0.0,-2.231,-2.2358,-2.351,0.0,-2.9925,0.0,0.0,0.0,0.0,-4.6701,0.0,0.0,0.0,0.0,0.0,0.0,0.0,0.0,-4.812,-4.812,-4.812,-4.8258,-4.8445,-4.8545,-4.8545,-4.8481,-4.8481,-4.8104,-4.7361,-4.7263,-4.6883,-4.6251,-4.4987,-4.4074,-4.3455,-4.2725,0.0,-4.094,-4.198,-4.2486,-4.264,-4.3259,-4.3877,-4.4411,-4.4411,-4.4411,-4.4326,0.0,0.0,0.0,0.0,0.0,0.0,0.0,0.0,-1.3086,-1.3476,-1.3529,-1.3324,-1.2752,-1.2709,0.0,0.0,0.0,0.0,0.0,0.0,0.0,0.0,0.0,0.0,0.0,0.0,0.0,0.0,0.0,0.0,0.0,0.0,0.0,0.0,0.0,0.0,0.0,0.0,0.0,0.0,0.0,0.0,0.0,0.0,0.0,0.0,0.0,0.0,0.0,0.0,-3.1878,-3.6978,-4.2626,-4.6139,-4.8274,-4.8836,-5.0101,-5.152,-5.2433,-5.3838,-5.4678,-5.3125,-5.0768,-4.6956,-3.9952,0.0,0.0,0.0,0.0,-2.0024,-2.0811,0.0,0.0,0.0,0.0,0.0,0.0,0.0,0.0,0.0,0.0,0.0,0.0,0.0,0.0,0.0,0.0,-4.812,-4.812,-4.812,-4.8272,-4.8695,-4.8695,-4.8695,-4.8695,-4.8418,-4.8042,-4.7684,-4.7038,-4.6574,-4.6251,-4.4987,-4.4074,-4.3469,-4.2851,0.0,-4.1755,-4.2683,-4.3062,-4.3118,-4.3736,-4.4158,-4.4411,-4.4411,-4.4411,-4.4326,0.0,0.0,0.0,0.0,0.0,0.0,0.0,-1.2806,-1.318,-1.4012,-1.412,-1.3807,-1.2963,-1.2975,-1.295,0.0,0.0,0.0,0.0,0.0,0.0,0.0,0.0,0.0,0.0,0.0,0.0,0.0,0.0,0.0,0.0,0.0,0.0,0.0,0.0,0.0,0.0,0.0,0.0,0.0,0.0,0.0,0.0,0.0,0.0,0.0,0.0,0.0,0.0,0.0,-2.8774,-3.3824,-3.9494,-4.4023,-4.7185,-4.6837,-4.814,-4.9844,-5.0628,-5.2195,-5.3016,-5.0783,-4.8232,-4.4057,-3.5325,-3.0919,0.0,0.0,-1.8496,-1.853,-1.9615,0.0,0.0,0.0,0.0,0.0,0.0,0.0,0.0,0.0,0.0,0.0,0.0,0.0,0.0,0.0,0.0,0.0,-4.812,-4.817,-4.8352,-4.8695,-4.8873,-4.8816,-4.8495,-4.8281,-4.8034,-4.7712,-4.6757,-4.6223,-4.604,-4.479,-4.3947,-4.3469,-4.2992,0.0,0.0,-4.3385,-4.3624,-4.3554,-4.4172,-4.4411,-4.4411,-4.4411,-4.4411,-4.4326,0.0,0.0,0.0,0.0,0.0,0.0,0.0,-1.3119,-1.3457,-1.3565,-1.3565,-1.3529,-1.3433,-1.3855,-1.3758,0.0,0.0,0.0,0.0,0.0,0.0,0.0,0.0,0.0,0.0,0.0,0.0,0.0,0.0,0.0,0.0,0.0,0.0,0.0,0.0,0.0,0.0,0.0,0.0,0.0,0.0,0.0,0.0,0.0,0.0,0.0,0.0,0.0,0.0,0.0,0.0,-2.8713,-3.0635,-3.5941,-4.1549,-4.2105,0.0,0.0,-4.7453,-4.9033,-4.9884,-4.8153,-4.4783,-4.0293,-3.4242,0.0,0.0,-1.9373,-1.8219,-1.853,-1.9615,-1.9151,0.0,0.0,0.0,0.0,0.0,0.0,0.0,0.0,0.0,0.0,0.0,0.0,0.0,0.0,0.0,0.0,-4.812,-4.8358,-4.8326,-4.7975,-4.8792,-4.8597,-4.7166,-4.8266,-4.8034,-4.6462,-4.635,-4.5984,-4.5366,-4.4144,-4.3554,-4.3497,-4.3441,0.0,0.0,-4.3849,-4.3989,-4.3554,-4.4172,-4.4411,-4.4411,-4.4411,-4.4411,-4.4326,0.0,0.0,0.0,0.0,0.0,0.0,0.0,-1.289,-1.3252,-1.3891,-1.3975,-1.3975,-1.3975,-1.4168,-1.3867,0.0,0.0,0.0,0.0,0.0,0.0,0.0,0.0,0.0,0.0,0.0,0.0,0.0,0.0,0.0,0.0,0.0,0.0,0.0,0.0,0.0,0.0,0.0,0.0,0.0,0.0,0.0,0.0,0.0,0.0,0.0,0.0,0.0,0.0,0.0,0.0,0.0,-2.3283,-2.627,0.0,0.0,-3.8434,-4.1826,-4.3069,-4.5831,-4.7924,-4.5858,-4.2417,-3.7996,-3.2057,0.0,0.0,-1.862,-1.7447,-1.7363,-1.7808,-1.7796,-1.8313,0.0,0.0,0.0,0.0,0.0,0.0,0.0,0.0,0.0,0.0,0.0,0.0,0.0,0.0,0.0,-4.812,-4.8207,-4.8112,-4.7722,-4.8181,-4.8178,-4.7581,-4.7695,-4.7549,-4.7059,-4.656,-4.5956,-4.5262,-4.4818,-4.4397,-4.4045,-4.4045,0.0,0.0,-4.4214,-4.427,-4.4074,-4.4326,-4.4411,-4.4411,-4.4411,-4.4411,-4.4383,0.0,0.0,0.0,0.0,0.0,-1.1668,-1.2354,-1.2613,-1.3035,-1.3939,-1.4048,-1.4048,-1.4048,-1.3915,-1.3517,-1.277,0.0,0.0,0.0,0.0,0.0,0.0,0.0,0.0,0.0,0.0,0.0,0.0,0.0,0.0,0.0,0.0,0.0,0.0,0.0,0.0,0.0,0.0,0.0,0.0,0.0,0.0,0.0,0.0,0.0,0.0,0.0,0.0,0.0,0.0,0.0,0.0,0.0,0.0,0.0,0.0,-3.2738,-3.6655,-3.8269,-4.1736,-4.4385,-4.2492,-3.9278,-3.5251,0.0,0.0,0.0,-1.7856,-1.6859,-1.6655,-1.6811,-1.7135,-1.764,0.0,0.0,0.0,0.0,0.0,0.0,0.0,0.0,0.0,0.0,0.0,0.0,0.0,0.0,0.0,0.0,-4.812,-4.7855,-4.7319,-4.7877,-4.7818,-4.7056,-4.7127,-4.7068,-4.691,-4.6306,-4.5675,-4.5057,-4.5057,-4.472,-4.4144,0.0,0.0,0.0,-4.4411,-4.4411,-4.4411,-4.4411,-4.4411,-4.4411,-4.4411,-4.4411,-4.4411,0.0,0.0,0.0,0.0,0.0,0.0,0.0,-1.2354,-1.2902,-1.3433,-1.3505,-1.3505,-1.3505,-1.3035,-1.2704,-1.2709,0.0,0.0,0.0,0.0,0.0,0.0,0.0,0.0,0.0,0.0,-1.4467,-1.6389,-1.6409,0.0,0.0,0.0,0.0,0.0,0.0,0.0,0.0,0.0,0.0,0.0,0.0,0.0,0.0,0.0,0.0,0.0,0.0,0.0,0.0,0.0,0.0,0.0,0.0,0.0,0.0,0.0,-2.7051,-3.0353,-3.3286,-3.6411,-3.8599,-3.7569,-3.492,-3.1565,0.0,0.0,0.0,-1.7159,-1.6607,-1.6763,-1.7279,-1.7387,-1.776,-1.8806,-1.8999,0.0,0.0,0.0,0.0,0.0,0.0,0.0,0.0,0.0,0.0,0.0,0.0,0.0,0.0,-4.812,-4.7658,-4.6633,-4.809,-4.7598,-4.484,-4.6687,-4.6839,-4.5338,-4.529,-4.5015,-4.4425,-4.4425,-4.4088,0.0,0.0,0.0,0.0,-4.4411,-4.4411,-4.4411,-4.4411,-4.4411,-4.4411,-4.4411,-4.4411,-4.4411,0.0,0.0,0.0,0.0,0.0,0.0,0.0,-1.1813,-1.221,-1.2379,-1.2733,-1.2944,-1.2944,-1.2788,-1.2709,-1.2709,0.0,0.0,0.0,0.0,0.0,0.0,0.0,0.0,0.0,0.0,-1.446,-1.5317,-1.6404,-1.6933,-1.6921,-1.7996,0.0,0.0,0.0,0.0,0.0,0.0,0.0,0.0,0.0,0.0,0.0,0.0,0.0,0.0,0.0,0.0,0.0,0.0,0.0,0.0,0.0,0.0,0.0,0.0,0.0,0.0,-2.7057,-2.9605,-3.1601,-3.0891,-2.8871,-2.6454,-2.4206,0.0,0.0,-1.6931,-1.6319,-1.6114,-1.6283,-1.6607,-1.7195,-1.8277,-1.8758,0.0,0.0,0.0,0.0,0.0,0.0,0.0,0.0,0.0,0.0,0.0,0.0,0.0,0.0,-4.812,-4.7754,-4.7024,-4.7199,-4.6949,-4.612,-4.6214,-4.6053,-4.5576,-4.5372,-4.5001,-4.4411,-4.4411,0.0,0.0,0.0,0.0,0.0,-4.4411,-4.4411,-4.4411,-4.4411,-4.4411,-4.4411,-4.4411,-4.4411,-4.4411,0.0,0.0,0.0,0.0,0.0,0.0,0.0,-1.1243,-1.1668,-1.1873,-1.2367,-1.2709,-1.2709,-1.2709,-1.2709,-1.2709,0.0,0.0,0.0,0.0,0.0,0.0,0.0,0.0,0.0,-1.3459,-1.4071,-1.4833,-1.5843,-1.6468,-1.6799,-1.776,-1.7553,-1.6366,0.0,0.0,0.0,0.0,0.0,0.0,0.0,0.0,-1.4039,0.0,0.0,0.0,0.0,0.0,0.0,0.0,0.0,0.0,0.0,0.0,0.0,0.0,-1.818,0.0,0.0,-2.5131,-2.6923,-2.6561,-2.5036,0.0,0.0,0.0,0.0,-1.6487,-1.602,-1.5852,-1.6056,-1.6547,-1.7183,-1.8061,-1.865,0.0,0.0,0.0,0.0,0.0,0.0,0.0,0.0,0.0,0.0,0.0,0.0,0.0,0.0,-4.812,-4.774,-4.6897,-4.6848,-4.6635,-4.6203,-4.576,-4.5449,-4.5223,-4.5034,-4.4776,-4.4411,-4.4411,0.0,0.0,0.0,0.0,0.0,-4.4411,-4.4411,-4.4411,-4.4411,-4.4411,-4.4411,-4.4411,-4.4411,-4.4411,0.0,0.0,0.0,0.0,0.0,0.0,0.0,0.0,0.0,-1.1728,-1.2282,-1.2631,-1.2631,-1.2685,-1.2709,-1.2709,0.0,0.0,0.0,0.0,0.0,0.0,0.0,0.0,0.0,-1.2745,-1.3472,-1.4885,-1.496,-1.5745,-1.718,-1.7725,-1.7578,-1.6869,-1.7468,0.0,0.0,0.0,0.0,0.0,0.0,0.0,0.0,0.0,0.0,0.0,0.0,0.0,0.0,0.0,0.0,0.0,0.0,0.0,0.0,0.0,0.0,0.0,0.0,0.0,0.0,0.0,0.0,0.0,0.0,0.0,0.0,0.0,0.0,-1.5948,-1.6511,-1.7003,-1.7531,-1.8157,-1.8698,0.0,0.0,0.0,0.0,0.0,0.0,0.0,0.0,0.0,0.0,0.0,0.0,0.0,0.0,-4.7951,-4.7417,-4.6321,-4.6757,-4.642,-4.5164,-4.5192,-4.4945,-4.4355,-4.4397,-4.4411,-4.4411,-4.4411,0.0,0.0,0.0,0.0,0.0,-4.4411,-4.4411,-4.4411,-4.4411,-4.4411,-4.4411,-4.4411,-4.4411,-4.4397,0.0,0.0,0.0,0.0,0.0,0.0,0.0,0.0,0.0,0.0,-1.1512,-1.209,-1.209,-1.2451,-1.2709,0.0,0.0,0.0,0.0,0.0,0.0,0.0,0.0,0.0,0.0,-1.324,-1.3814,-1.4826,-1.5706,-1.6343,-1.6792,-1.8877,-1.8588,-1.6369,-1.817,-1.739,0.0,0.0,0.0,0.0,0.0,0.0,0.0,0.0,0.0,0.0,-1.3301,-1.3891,0.0,0.0,0.0,0.0,0.0,0.0,0.0,0.0,-1.5792,-1.5984,-1.6883,0.0,-1.7856,-1.7856,0.0,0.0,0.0,0.0,0.0,0.0,0.0,0.0,0.0,-1.6703,-1.7219,-1.859,-1.9251,0.0,0.0,0.0,0.0,0.0,0.0,0.0,0.0,0.0,0.0,0.0,0.0,0.0,0.0,-4.6251,-4.6083,-4.6279,-4.5493,-4.4706,-4.3933,-4.4397,-4.4326,-4.3722,-4.4186,-4.4411,-4.4411,-4.4411,0.0,0.0,0.0,0.0,-4.4411,-4.4411,-4.4411,-4.4411,-4.4411,-4.4411,-4.4411,-4.4411,-4.4411,-4.434,0.0,0.0,0.0,0.0,0.0,0.0,0.0,0.0,0.0,0.0,0.0,0.0,0.0,0.0,0.0,0.0,0.0,0.0,0.0,0.0,0.0,0.0,0.0,0.0,-1.2965,-1.3083,-1.3611,-1.4565,-1.5184,-1.6262,-1.7714,-1.8874,-1.8749,-1.7612,-1.7389,-1.6157,0.0,0.0,0.0,0.0,-1.3245,0.0,0.0,0.0,0.0,0.0,-1.2724,-1.3175,0.0,-1.4785,-1.5219,-1.5432,0.0,0.0,0.0,0.0,-1.56,-1.5792,-1.5792,-1.5994,-1.6175,-1.6175,-1.6175,-1.6175,0.0,0.0,0.0,0.0,0.0,0.0,0.0,0.0,0.0,0.0,0.0,0.0,0.0,0.0,0.0,0.0,0.0,0.0,0.0,0.0,0.0,0.0,0.0,0.0,0.0,-4.5521,-4.5226,-4.5015,-4.4433,-4.4163,-4.434,-4.4397,-4.4242,-4.3919,-4.4242,-4.4411,-4.4411,-4.4411,-4.4256,0.0,0.0,0.0,-4.3624,-4.4172,-4.4074,-4.3596,-4.3877,-4.3821,-4.3568,-4.3568,-4.375,-4.3947,0.0,0.0,0.0,0.0,0.0,0.0,0.0,0.0,0.0,0.0,0.0,0.0,0.0,0.0,0.0,0.0,0.0,0.0,0.0,0.0,0.0,0.0,0.0,-1.2709,-1.2709,-1.2709,-1.3228,-1.4309,-1.4542,-1.6156,-1.9005,-1.8829,-1.9047,-1.9433,-1.6086,-1.4368,0.0,0.0,0.0,0.0,-1.2595,0.0,0.0,0.0,0.0,0.0,0.0,0.0,0.0,-1.377,-1.4478,-1.4989,-1.4917,0.0,0.0,0.0,0.0,0.0,-1.5696,-1.6056,-1.6487,-1.6487,-1.6547,-1.6583,0.0,0.0,0.0,0.0,0.0,0.0,0.0,0.0,0.0,0.0,0.0,0.0,0.0,0.0,0.0,0.0,0.0,0.0,0.0,0.0,0.0,0.0,0.0,0.0,0.0,-4.4942,-4.4419,-4.3666,-4.3643,-4.4166,-4.5136,-4.4475,-4.4214,-4.427,-4.4369,-4.4355,-4.427,-4.427,-4.3933,-4.3385,0.0,0.0,-4.2669,-4.3694,-4.3512,-4.2626,-4.2996,-4.2838,-4.239,-4.2488,-4.2782,-4.3132,0.0,0.0,0.0,0.0,0.0,0.0,0.0,0.0,0.0,0.0,0.0,0.0,0.0,0.0,0.0,0.0,0.0,0.0,0.0,0.0,0.0,0.0,-1.2709,-1.2709,-1.2709,-1.2709,-1.3228,-1.4309,-1.5596,-1.7222,-1.9113,-2.0849,-2.1198,-2.0228,-1.5723,-1.36,-1.3314,-1.1685,-1.101,-1.1091,-1.1779,0.0,0.0,0.0,0.0,0.0,0.0,0.0,0.0,-1.3047,-1.3864,-1.4929,-1.4534,0.0,0.0,0.0,0.0,0.0,-1.5253,-1.5504,-1.5912,-1.5912,-1.6271,-1.6487,-1.6042,0.0,0.0,0.0,0.0,0.0,0.0,0.0,0.0,0.0,0.0,0.0,0.0,0.0,0.0,0.0,0.0,0.0,0.0,0.0,0.0,0.0,0.0,0.0,0.0,-4.3208,-4.2976,-4.421,-4.3808,-4.3878,-4.4537,-4.3546,-4.3243,-4.3638,-4.4172,-4.4144,-4.3638,-4.3638,-4.3301,-4.2725,0.0,-4.2753,-4.2584,-4.2781,-4.2753,-4.2539,-4.175,-4.1387,-4.1374,-4.1926,-4.1844,-4.1443,0.0,0.0,0.0,0.0,0.0,0.0,0.0,0.0,0.0,0.0,0.0,0.0,0.0,0.0,0.0,0.0,0.0,0.0,0.0,0.0,0.0,-1.2709,-1.2415,-1.2403,-1.268,-1.2709,-1.3354,-1.4682,-1.5682,-1.7322,-1.9548,-2.0425,-1.9969,-1.8311,-1.5273,-1.3582,-1.2872,-1.135,-1.0636,-1.0558,0.0,0.0,0.0,0.0,0.0,0.0,0.0,0.0,0.0,0.0,-1.3414,-1.3816,-1.4192,0.0,0.0,0.0,0.0,0.0,-1.5336,-1.5816,-1.6307,-1.6595,-1.6415,-1.6236,-1.6595,0.0,0.0,0.0,0.0,0.0,0.0,0.0,0.0,0.0,0.0,0.0,0.0,0.0,0.0,0.0,0.0,0.0,0.0,0.0,0.0,0.0,0.0,0.0,0.0,0.0,-4.2381,-4.3381,-4.2113,-4.1925,-4.307,-4.1741,-4.2061,-4.3989,-4.3665,-4.3235,-4.2642,-4.2079,-4.1328,-4.0507,0.0,-4.0616,-4.0042,-4.0711,-4.0602,-3.9969,-3.9853,-3.9588,-3.9447,-4.0591,-4.074,-4.0376,0.0,0.0,0.0,0.0,0.0,0.0,0.0,0.0,0.0,0.0,0.0,0.0,0.0,0.0,0.0,0.0,0.0,0.0,0.0,0.0,-1.2709,-1.2709,-1.2065,-1.2078,-1.2878,-1.2752,-1.3516,-1.5193,-1.572,-1.7176,-1.9485,-1.9324,-1.8227,-1.635,-1.4756,-1.3608,-1.2782,-1.1259,-1.0567,-1.0485,0.0,0.0,0.0,0.0,0.0,0.0,0.0,0.0,0.0,0.0,0.0,0.0,0.0,0.0,0.0,-1.4337,-1.4562,-1.463,-1.5406,-1.59,-1.6355,-1.6883,0.0,-1.6715,-1.8024,0.0,0.0,0.0,0.0,0.0,0.0,0.0,0.0,0.0,0.0,0.0,0.0,0.0,0.0,0.0,0.0,0.0,0.0,0.0,0.0,0.0,0.0,0.0,0.0,0.0,-4.1187,-4.1702,-4.0232,-3.9925,-4.0992,-3.9832,-4.072,-4.3662,-4.2704,-4.1927,-4.1396,-4.0306,-3.9241,-3.8319,-3.8667,-3.8267,-3.7527,-3.8555,-3.8372,-3.7501,-3.805,-3.8103,-3.8073,-3.9474,-3.9977,-3.9971,0.0,0.0,0.0,0.0,0.0,0.0,0.0,0.0,0.0,0.0,0.0,0.0,0.0,0.0,0.0,0.0,0.0,0.0,0.0,0.0,-1.2709,-1.2709,-1.1716,-1.1873,-1.3409,-1.2944,-1.3696,-1.5732,-1.6283,-1.7141,-1.8325,-1.8232,-1.7367,-1.5792,-1.4044,-1.3343,-1.33,-1.1198,-1.0596,-1.099,-1.051,0.0,0.0,0.0,0.0,0.0,0.0,0.0,0.0,0.0,0.0,0.0,0.0,0.0,-1.4096,-1.3722,-1.4249,-1.4965,-1.5037,-1.5097,-1.5241,-1.578,0.0,0.0,-2.0646,-2.1091,0.0,0.0,0.0,0.0,0.0,0.0,0.0,0.0,0.0,0.0,0.0,0.0,0.0,0.0,0.0,0.0,0.0,0.0,0.0,0.0,0.0,0.0,0.0,0.0,0.0,-3.9071,-3.8937,-3.8654,-3.826,-3.8162,-3.9218,-4.1406,-4.0831,-4.028,-3.9629,-3.8588,-3.7749,-3.7088,-3.6634,-3.6385,-3.6359,-3.6975,-3.6857,-3.6372,-3.6771,-3.7502,-3.8333,-3.9003,-3.9867,-4.0561,0.0,0.0,0.0,0.0,0.0,0.0,0.0,0.0,0.0,0.0,0.0,0.0,0.0,0.0,0.0,0.0,0.0,0.0,0.0,0.0,-1.2709,-1.2709,-1.168,-1.1704,-1.2975,-1.2788,-1.3552,-1.5301,-1.6164,-1.665,-1.671,-1.6636,-1.5976,-1.4839,-1.4087,-1.3474,-1.2926,-1.1789,-1.1027,-1.0579,-1.0389,-0.9978,0.0,0.0,0.0,0.0,0.0,0.0,0.0,0.0,-1.2005,-1.2547,0.0,-1.2854,-1.3017,-1.4117,-1.4502,-1.4694,-1.5334,-1.6235,-1.7111,-1.7664,0.0,0.0,0.0,0.0,0.0,0.0,0.0,0.0,0.0,0.0,0.0,0.0,0.0,0.0,0.0,0.0,0.0,0.0,0.0,0.0,0.0,0.0,0.0,0.0,0.0,0.0,0.0,0.0,0.0,-3.7742,-3.6785,-3.6508,-3.6951,-3.6342,-3.6561,-3.7717,-3.784,-3.7616,-3.7028,-3.5968,-3.518,-3.4715,-3.4458,-3.4558,-3.4844,-3.4719,-3.4943,-3.5388,-3.5759,-3.6515,-3.7467,-3.8354,-3.9054,-3.9578,0.0,0.0,0.0,0.0,0.0,0.0,0.0,0.0,0.0,0.0,0.0,0.0,0.0,0.0,0.0,0.0,0.0,0.0,0.0,-1.2709,-1.2709,-1.2709,-1.1837,-1.1704,-1.2427,-1.2456,-1.3287,-1.5013,-1.5888,-1.5994,-1.5331,-1.5421,-1.4975,-1.4043,-1.413,-1.3797,-1.3155,-1.227,-1.1572,-1.1027,-1.069,-1.0327,0.0,0.0,0.0,0.0,0.0,0.0,0.0,0.0,-1.1512,0.0,0.0,0.0,-1.2258,-1.4001,-1.4305,-1.4277,-1.5274,-1.6607,-1.7796,0.0,0.0,0.0,0.0,0.0,0.0,0.0,0.0,0.0,0.0,0.0,0.0,0.0,0.0,0.0,0.0,0.0,0.0,0.0,0.0,0.0,0.0,0.0,0.0,0.0,0.0,0.0,0.0,0.0,0.0,0.0,-3.503,-3.4835,-3.5362,-3.4665,-3.4523,-3.4883,-3.5252,-3.5419,-3.531,-3.4422,-3.3802,-3.3513,-3.3356,-3.3489,-3.3789,-3.3609,-3.4075,-3.5003,-3.5329,-3.5882,-3.6684,-3.8058,-3.8634,-3.8839,0.0,0.0,0.0,0.0,0.0,0.0,0.0,0.0,0.0,0.0,0.0,0.0,0.0,0.0,0.0,0.0,0.0,0.0,-1.2673,-1.2709,-1.2709,-1.2709,-1.2186,-1.1897,-1.1897,-1.1897,-1.2914,-1.4989,-1.5504,-1.5271,-1.4301,-1.4758,-1.4445,-1.3517,-1.4067,-1.4277,-1.4168,-1.2583,-1.221,-1.2613,-1.1536,-1.1099,-1.1039,0.0,0.0,0.0,0.0,0.0,0.0,0.0,-1.0666,-1.1015,0.0,0.0,0.0,-1.3192,-1.3517,-1.3739,-1.4737,-1.5804,0.0,0.0,0.0,0.0,0.0,0.0,0.0,0.0,0.0,0.0,0.0,0.0,0.0,0.0,0.0,0.0,0.0,0.0,0.0,0.0,0.0,0.0,0.0,0.0,0.0,0.0,0.0,0.0,0.0,0.0,0.0,0.0,-3.3753,-3.373,-3.3284,-3.3284,-3.3284,-3.3284,-3.3284,-3.3825,-3.4751,-3.4222,-3.3982,-3.3958,-3.3501,-3.3284,-3.3332,-3.379,-3.455,-3.5411,-3.5504,-3.5698,-3.617,-3.8411,-3.883,-3.8553,0.0,0.0,0.0,0.0,0.0,0.0,0.0,0.0,0.0,0.0,0.0,0.0,0.0,0.0,0.0,0.0,0.0,0.0,-1.268,-1.2709,-1.2709,-1.2709,-1.2186,-1.1728,-1.1355,-1.1327,-1.2181,-1.3944,-1.3739,-1.3848,-1.4297,-1.3667,-1.3426,-1.3505,-1.3662,-1.3529,-1.3143,-1.2673,-1.233,-1.2102,-1.1789,-1.1439,-1.1075,0.0,0.0,0.0,0.0,0.0,0.0,0.0,0.0,0.0,0.0,0.0,0.0,-1.3409,-1.4546,-1.5764,-1.6042,-1.8012,0.0,0.0,0.0,0.0,0.0,0.0,0.0,0.0,0.0,0.0,0.0,0.0,0.0,0.0,0.0,0.0,0.0,0.0,0.0,0.0,0.0,0.0,0.0,0.0,0.0,0.0,0.0,0.0,0.0,0.0,0.0,0.0,-3.1541,-3.1925,-3.2187,-3.2539,-3.2743,-3.2743,-3.2743,-3.3092,-3.3741,-3.3585,-3.3513,-3.3501,-3.3356,-3.3489,-3.3814,-3.433,-3.451,-3.4538,-3.5879,-3.6761,-3.7421,-3.9045,-3.9799,-4.0035,0.0,0.0,0.0,0.0,0.0,0.0,0.0,0.0,0.0,0.0,0.0,0.0,0.0,0.0,0.0,0.0,0.0,0.0,0.0,0.0,-1.2709,-1.2709,-1.2379,-1.1873,-1.1111,-1.0894,-1.1255,-1.2222,-1.233,-1.2938,-1.3951,-1.3107,-1.3107,-1.3807,-1.359,-1.3324,-1.3011,-1.2794,-1.2649,-1.254,-1.254,-1.2463,-1.2318,0.0,0.0,0.0,0.0,0.0,0.0,0.0,0.0,0.0,0.0,0.0,0.0,-1.3119,-1.4365,-1.5776,-1.6175,0.0,0.0,0.0,0.0,0.0,0.0,0.0,0.0,0.0,0.0,0.0,0.0,0.0,0.0,0.0,0.0,0.0,0.0,0.0,0.0,0.0,0.0,0.0,0.0,0.0,0.0,0.0,0.0,0.0,0.0,0.0,0.0,0.0,-3.0958,-3.138,-3.1705,-3.2214,-3.2503,-3.2503,-3.2719,-3.2984,-3.3272,-3.2839,-3.2767,-3.2984,-3.32,-3.3464,-3.3777,-3.4258,-3.451,-3.4725,-3.5846,-3.6735,-3.7578,-3.9011,-3.9627,-3.9852,0.0,0.0,0.0,0.0,0.0,0.0,0.0,0.0,0.0,0.0,0.0,0.0,0.0,0.0,0.0,0.0,0.0,0.0,0.0,0.0,-1.2637,-1.2637,-1.2523,-1.2029,-1.1051,-1.051,-1.0219,-1.0219,-1.1243,-1.2294,-1.3336,-1.2866,-1.318,-1.4152,-1.3686,-1.3469,-1.3397,-1.2914,-1.3011,-1.3505,-1.3505,-1.3795,-1.412,-1.3143,0.0,0.0,0.0,0.0,0.0,0.0,0.0,0.0,-1.1015,-1.1548,-1.2065,-1.2565,-1.3493,-1.4602,0.0,0.0,0.0,0.0,0.0,0.0,0.0,0.0,0.0,0.0,0.0,0.0,0.0,0.0,0.0,0.0,0.0,0.0,0.0,0.0,0.0,0.0,0.0,0.0,0.0,0.0,0.0,0.0,0.0,0.0,0.0,0.0,0.0,-3.0747,-3.1284,-3.1536,-3.1488,-3.2154,-3.2454,0.0,-3.2839,-3.3092,-3.3104,-3.2271,-3.2094,-3.2599,-3.3032,-3.3236,-3.332,-3.3742,-3.4464,-3.5278,-3.532,-3.5831,-3.6726,-3.8278,-3.857,-3.839,0.0,0.0,0.0,0.0,0.0,0.0,0.0,0.0,0.0,0.0,0.0,0.0,0.0,0.0,0.0,0.0,0.0,0.0,0.0,0.0,-1.2078,-1.2078,-1.1267,-1.0714,-1.0485,-0.9942,-0.9678,-0.9678,-1.0315,-1.1183,-1.2234,-1.2126,-1.2415,-1.3059,-1.336,-1.3276,-1.2848,-1.2758,-1.3011,-1.3505,-1.3505,-1.3565,-1.3638,-1.3421,-1.2818,0.0,0.0,0.0,0.0,0.0,0.0,0.0,-1.1692,-1.2102,-1.2547,-1.2673,-1.372,-1.5178,0.0,0.0,0.0,0.0,0.0,0.0,0.0,0.0,0.0,0.0,0.0,0.0,0.0,0.0,0.0,0.0,0.0,0.0,0.0,0.0,0.0,0.0,0.0,0.0,0.0,0.0,0.0,0.0,0.0,0.0,0.0,0.0,0.0,-2.9641,-3.0146,-3.023,-2.9809,-3.1601,-3.207,0.0,-3.1336,-3.1657,-3.2078,-3.2704,-3.3008,-3.3104,-3.2803,-3.2899,-3.3296,-3.3404,-3.358,-3.381,-3.4138,-3.4338,-3.4659,-3.5821,-3.6563,-3.7205,0.0,0.0,0.0,0.0,0.0,0.0,0.0,0.0,0.0,0.0,0.0,0.0,0.0,0.0,0.0,0.0,0.0,0.0,0.0,0.0,0.0,-1.1524,-1.0738,-1.0291,-1.0291,-0.9774,-0.951,-0.951,-1.0039,0.0,0.0,0.0,0.0,-1.3469,-1.3493,-1.3348,-1.3071,-1.2818,-1.3011,-1.3505,-1.3505,-1.365,-1.3843,-1.359,-1.3155,-1.2613,-1.2078,0.0,0.0,0.0,0.0,0.0,0.0,0.0,-1.2709,-1.2709,-1.3631,-1.5019,0.0,0.0,0.0,0.0,0.0,0.0,0.0,0.0,0.0,0.0,0.0,0.0,0.0,0.0,0.0,0.0,0.0,0.0,0.0,0.0,0.0,0.0,0.0,0.0,0.0,0.0,0.0,0.0,0.0,0.0,0.0,-2.9749,-2.9184,-2.8931,-2.9184,-2.9196,-2.8919,-3.0278,-3.0687,-3.0122,-3.0374,-3.0639,-3.0983,-3.1801,-3.213,-3.213,-3.2118,-3.2307,-3.2527,-3.2803,-3.3162,-3.3588,-3.3802,-3.419,-3.4706,-3.5966,-3.649,-3.6852,0.0,0.0,0.0,0.0,0.0,0.0,0.0,0.0,0.0,0.0,0.0,0.0,0.0,0.0,0.0,0.0,0.0,0.0,0.0,0.0,0.0,0.0,-1.0401,-1.0159,-1.0159,-0.9726,-0.951,-0.951,0.0,0.0,0.0,0.0,0.0,-1.4285,-1.3734,-1.3505,-1.3469,-1.2926,-1.3011,-1.3505,-1.3505,-1.3758,-1.4108,-1.3662,-1.3445,-1.3252,-1.2354,-1.2041,-1.2041,-1.2041,0.0,0.0,0.0,0.0,-1.2709,-1.2709,-1.3336,-1.4361,0.0,0.0,0.0,0.0,0.0,0.0,0.0,0.0,0.0,0.0,0.0,0.0,0.0,0.0,0.0,0.0,0.0,0.0,0.0,0.0,0.0,0.0,0.0,0.0,0.0,0.0,0.0,0.0,0.0,0.0,-2.9436,-2.9352,-2.91,-2.8655,-2.8643,-2.8607,-2.851,-2.9124,-2.9388,-2.9304,-2.9833,-3.0037,-2.9965,-3.0494,-3.0826,-3.0946,-3.138,-3.1621,-3.1741,-3.2166,-3.2804,-3.3527,-3.3427,-3.3868,-3.4705,-3.5899,-3.6146,-3.6087,0.0,0.0,0.0,0.0,0.0,0.0,0.0,0.0,0.0,0.0,0.0,0.0,0.0,0.0,0.0,0.0,0.0,0.0,-1.1099,0.0,0.0,-0.9738,-0.9654,-0.9606,-0.9606,-0.9533,-0.951,-0.951,0.0,0.0,0.0,0.0,0.0,-1.4285,0.0,-1.3505,-1.3469,-1.2926,-1.3011,-1.3505,-1.3505,-1.3541,-1.359,-1.3529,-1.3216,-1.2794,-1.2631,-1.2583,-1.2583,-1.2583,-1.2583,0.0,0.0,0.0,-1.2709,-1.2709,-1.2788,-1.3246,0.0,0.0,0.0,0.0,0.0,0.0,0.0,0.0,0.0,0.0,0.0,0.0,0.0,0.0,0.0,0.0,0.0,0.0,0.0,0.0,0.0,0.0,0.0,0.0,0.0,0.0,0.0,0.0,0.0,0.0,-2.9977,-2.9544,-2.9268,-2.9196,-2.9196,-2.8979,-2.851,-2.9484,-2.9749,-2.9304,-2.9833,-2.9845,-2.9424,-2.9953,-3.0446,-3.0922,-3.0995,-3.1284,-3.1717,-3.1789,-3.1902,-3.193,-3.147,-3.1374,-3.1504,-3.1694,-3.2212,-3.3062,0.0,0.0,0.0,0.0,0.0,0.0,0.0,0.0,0.0,0.0,0.0,0.0,0.0,0.0,0.0,-0.9858,-1.0063,-1.0195,-1.0195,-0.9978,-0.975,-0.951,-0.951,-0.951,-0.951,-0.951,-0.951,0.0,0.0,0.0,0.0,-1.3444,-1.4562,0.0,0.0,0.0,0.0,0.0,0.0,-1.3059,-1.3059,0.0,0.0,-1.3059,-1.2914,-1.2709,-1.2709,-1.2709,-1.2709,-1.2709,-1.2709,-1.2709,-1.2709,0.0,0.0,0.0,-1.2709,0.0,0.0,0.0,0.0,0.0,0.0,0.0,0.0,0.0,0.0,0.0,0.0,0.0,0.0,0.0,0.0,0.0,0.0,0.0,0.0,0.0,0.0,0.0,0.0,0.0,0.0,0.0,0.0,0.0,0.0,-2.9208,-2.9208,-2.8979,-2.8859,-2.8859,-2.8859,-2.8751,-2.851,-2.8967,-2.9088,-2.8871,-2.94,-2.9364,-2.8883,-2.9713,-3.0374,-3.0922,-3.0922,-3.1211,-3.1705,-3.1705,-3.1705,-3.1681,-3.1452,-3.1356,-3.1399,-3.1896,-3.2629,-3.3591,0.0,0.0,0.0,0.0,0.0,0.0,0.0,0.0,0.0,0.0,0.0,0.0,0.0,0.0,0.0,0.0,-0.951,-0.951,-0.951,-0.963,-0.9642,-0.9497,-0.951,-0.951,-0.951,-0.951,0.0,0.0,0.0,0.0,-1.215,-1.4097,-1.5492,0.0,-1.6547,0.0,0.0,0.0,0.0,0.0,0.0,0.0,0.0,0.0,-1.2709,-1.2709,-1.2709,-1.2709,-1.2709,-1.2709,-1.2709,-1.2709,-1.2709,-1.2709,0.0,0.0,0.0,0.0,0.0,0.0,0.0,0.0,0.0,0.0,0.0,0.0,0.0,0.0,0.0,0.0,0.0,0.0,0.0,0.0,0.0,0.0,0.0,0.0,0.0,0.0,0.0,0.0,0.0,0.0,0.0,0.0,0.0,-2.851,-2.851,-2.851,-2.845,-2.8318,-2.8438,-2.845,-2.8318,-2.8438,-2.851,-2.851,-2.8919,-2.8895,-2.8534,-2.9328,-2.9977,-3.0482,-3.0657,-3.0946,-3.1308,-3.1452,-3.1512,-3.1524,-3.1657,-3.1705,-3.1793,-3.2413,-3.3237,-3.4085,0.0,0.0,0.0,0.0,0.0,0.0,0.0,0.0,0.0,0.0,0.0,0.0,-0.951,-0.951,-0.951,-0.951,-0.951,-0.951,-0.951,-0.9978,-1.0027,-0.9521,-0.951,0.0,-0.951,-0.951,0.0,0.0,0.0,0.0,-1.268,-1.4277,-1.5301,-1.5852,-1.6379,-1.6295,-1.5684,0.0,0.0,0.0,0.0,0.0,0.0,0.0,0.0,0.0,0.0,0.0,-1.2709,-1.2709,-1.2709,-1.2709,-1.2709,-1.2709,-1.2709,0.0,0.0,0.0,0.0,0.0,0.0,0.0,0.0,0.0,0.0,0.0,0.0,0.0,0.0,0.0,0.0,0.0,0.0,0.0,0.0,0.0,0.0,0.0,0.0,0.0,0.0,0.0,0.0,0.0,0.0,0.0,0.0,-2.851,-2.851,-2.851,-2.8282,-2.7777,-2.8246,-2.827,-2.7726,-2.8258,-2.851,-2.851,-2.8546,-2.8534,-2.851,-2.857,-2.8883,-2.9412,-2.9917,-3.0146,-3.0206,-3.0711,-3.0958,-3.1007,-3.1512,-3.1705,-3.1705,-3.1749,-3.2326,-3.3119,0.0,0.0,0.0,0.0,0.0,0.0,0.0,0.0,0.0,0.0,0.0,0.0,0.0,-0.951,-0.951,-0.951,-0.951,-0.951,-0.951,-0.9678,-0.9702,-0.951,-0.951,-0.951,-0.951,-0.951,0.0,0.0,0.0,-1.1459,-1.2222,-1.3811,-1.4474,-1.4381,-1.591,-1.5934,-1.4811,-1.4446,0.0,0.0,0.0,0.0,0.0,0.0,0.0,0.0,0.0,0.0,0.0,-1.4478,-1.4269,-1.3722,-1.3722,-1.3252,-1.2709,-1.2709,-1.2709,0.0,0.0,0.0,0.0,0.0,0.0,0.0,0.0,0.0,0.0,0.0,0.0,0.0,0.0,0.0,0.0,0.0,0.0,0.0,0.0,0.0,0.0,0.0,0.0,0.0,0.0,0.0,0.0,0.0,0.0,0.0,-2.7462,-2.7462,-2.7378,-2.7186,-2.7366,-2.7366,-2.7186,-2.7702,-2.8005,-2.8005,-2.8342,-2.851,-2.851,-2.851,-2.8607,-2.8799,-2.8991,-2.946,-3.0098,-3.029,-3.0374,-3.0386,-3.0621,-3.0651,-3.0651,-3.0651,-3.1209,-3.1984,0.0,0.0,0.0,0.0,0.0,0.0,0.0,0.0,0.0,0.0,0.0,0.0,0.0,0.0,-0.951,-0.951,-0.9666,-0.969,-0.951,-0.9666,-0.969,-0.951,-0.951,-0.951,-0.951,-0.951,0.0,0.0,0.0,0.0,0.0,-1.318,-1.3565,-1.33,-1.485,-1.5175,0.0,0.0,0.0,-1.3204,0.0,0.0,-1.3035,0.0,0.0,0.0,0.0,0.0,0.0,0.0,0.0,-1.4534,-1.4534,-1.3691,-1.2709,-1.2709,-1.2709,0.0,0.0,0.0,0.0,0.0,0.0,0.0,0.0,0.0,0.0,0.0,0.0,0.0,0.0,0.0,0.0,0.0,0.0,0.0,0.0,0.0,0.0,0.0,0.0,0.0,0.0,0.0,0.0,0.0,0.0,0.0,-2.6357,-2.6357,-2.6357,-2.6357,-2.6177,-2.6177,-2.6345,-2.6705,-2.6995,-2.7176,-2.7729,-2.8077,-2.8246,-2.8426,-2.851,-2.851,-2.851,-2.8907,-2.9581,-2.9749,-2.9821,-2.9845,-3.0013,-3.0086,-3.0086,-3.0086,-3.0633,-3.1392,0.0,0.0,0.0,0.0,0.0,0.0,0.0,0.0,0.0,-0.951,0.0,0.0,0.0,0.0,0.0,-0.9558,-1.0015,-1.0099,-0.9582,-1.0027,-1.0087,-0.9582,-0.9534,-0.9534,-0.9558,-0.9522,0.0,0.0,0.0,0.0,0.0,0.0,-1.2709,-1.2716,-1.3264,-1.4021,-1.4941,0.0,-1.4694,-1.42,0.0,-1.3083,-1.3703,0.0,0.0,0.0,-1.7845,-1.8229,0.0,-1.7651,0.0,0.0,0.0,0.0,-1.2709,-1.2709,0.0,0.0,0.0,0.0,0.0,0.0,0.0,0.0,0.0,0.0,0.0,0.0,0.0,0.0,0.0,0.0,0.0,0.0,0.0,0.0,0.0,0.0,0.0,0.0,0.0,0.0,0.0,0.0,0.0,0.0,0.0,-2.5264,-2.5264,-2.5264,-2.5264,-2.5264,-2.4771,-2.4747,-2.5252,-2.5276,-2.554,-2.6057,-2.6609,-2.7162,-2.7717,-2.827,-2.851,-2.851,-2.851,-2.851,-2.8546,-2.9039,-2.9244,-2.928,-2.9809,-3.0013,-3.0013,-3.0037,-3.0597,-3.1332,0.0,0.0,0.0,0.0,0.0,0.0,0.0,0.0,0.0,0.0,0.0,0.0,-1.0039,-1.0411,-1.0666,-1.0666,-1.0798,-1.081,-1.0666,-1.0798,-1.081,-1.0666,-1.0293,-1.0255,-1.0654,-0.9894,0.0,0.0,0.0,0.0,0.0,0.0,0.0,0.0,-1.3264,-1.3438,-1.3359,-1.3744,0.0,0.0,-1.4201,-1.4457,0.0,0.0,0.0,0.0,0.0,-1.877,-1.8867,0.0,-1.8384,-1.6403,0.0,0.0,0.0,0.0,0.0,0.0,-1.2709,0.0,0.0,0.0,0.0,0.0,0.0,0.0,0.0,0.0,0.0,0.0,0.0,0.0,0.0,0.0,0.0,0.0,0.0,0.0,0.0,0.0,0.0,0.0,0.0,0.0,0.0,0.0,-2.4227,-2.4227,-2.4227,-2.4227,-2.4227,-2.4227,-2.4083,-2.4049,-2.4227,-2.4554,-2.4819,-2.4975,-2.6261,-2.697,-2.715,-2.8089,-2.851,-2.851,-2.851,-2.851,-2.8498,-2.8258,-2.7894,-2.7606,-2.8174,-2.8378,-2.8426,-2.8799,-2.9093,-2.9309,0.0,0.0,0.0,0.0,0.0,0.0,0.0,0.0,0.0,0.0,0.0,0.0,-1.0582,-1.0918,-1.1099,-1.1099,-1.1099,-1.1099,-1.1099,-1.1099,-1.1099,-1.1099,-1.0798,-1.0786,-1.1087,-1.0497,0.0,0.0,0.0,0.0,0.0,0.0,0.0,0.0,0.0,0.0,0.0,0.0,0.0,0.0,-1.3985,0.0,0.0,-1.7111,-1.782,0.0,0.0,0.0,-2.1036,-2.1211,-1.9853,0.0,0.0,0.0,0.0,0.0,0.0,0.0,0.0,0.0,0.0,0.0,0.0,0.0,0.0,-1.3975,0.0,0.0,0.0,0.0,0.0,0.0,0.0,0.0,0.0,0.0,0.0,0.0,0.0,0.0,0.0,0.0,0.0,0.0,0.0,-2.3132,-2.3144,-2.3144,-2.3144,-2.3144,-2.3144,-2.3144,-2.3144,-2.3144,-2.3144,-2.34,-2.3664,-2.3893,-2.5059,-2.5841,-2.6249,-2.7115,-2.7753,-2.8186,-2.8186,-2.8186,-2.8162,-2.7849,-2.7669,-2.757,-2.7654,-2.7861,-2.8026,-2.815,-2.8318,-2.855,0.0,0.0,0.0,0.0,0.0,0.0,0.0,0.0,0.0,0.0,-1.0111,-1.0666,-1.1135,-1.1231,-1.1283,-1.1283,-1.1283,-1.1283,-1.1283,-1.1283,-1.1283,-1.1283,-1.1219,-1.1219,-1.1283,-1.1159,0.0,0.0,0.0,0.0,0.0,0.0,0.0,0.0,0.0,0.0,0.0,0.0,0.0,-1.4248,-1.3517,-1.443,0.0,0.0,-1.9191,0.0,-2.2156,-2.318,-2.3445,-2.2234,-2.061,0.0,0.0,0.0,0.0,0.0,-1.2788,0.0,0.0,0.0,0.0,0.0,0.0,0.0,-1.2848,-1.3565,-1.4498,0.0,0.0,0.0,0.0,0.0,0.0,0.0,0.0,0.0,0.0,0.0,0.0,0.0,0.0,0.0,0.0,-2.1356,-2.1512,-2.1981,-2.2077,-2.2125,-2.2197,-2.2197,-2.2197,-2.2197,-2.2197,-2.2197,-2.2197,-2.2197,-2.2426,-2.2939,-2.3517,-2.4312,-2.524,-2.5829,-2.6622,-2.751,-2.7669,-2.7654,-2.7606,-2.7726,-2.7942,-2.821,-2.7861,-2.7933,-2.8198,-2.7849,-2.7978,-2.8481,-0.951,0.0,0.0,0.0,0.0,0.0,0.0,0.0,0.0,0.0,0.0,-1.1632,-1.174,-1.2126,-1.2379,-1.2379,-1.2379,-1.2379,-1.2379,-1.2379,-1.2379,-1.2379,-1.1969,-1.1945,-1.2379,-1.1548,0.0,0.0,0.0,0.0,0.0,0.0,0.0,0.0,0.0,0.0,0.0,0.0,0.0,-1.4422,-1.5885,0.0,-1.9191,-2.0803,-2.1272,-2.1139,-2.156,-2.2053,-2.2209,-2.0261,-1.9612,-1.9158,0.0,0.0,0.0,0.0,0.0,0.0,0.0,0.0,0.0,0.0,0.0,0.0,-1.3891,-1.3807,-1.4052,0.0,0.0,0.0,0.0,0.0,0.0,0.0,0.0,0.0,0.0,0.0,0.0,0.0,0.0,0.0,0.0,-2.1019,-2.0815,-2.0911,-2.132,-2.174,-2.2173,-2.2197,-2.2197,-2.2197,-2.2197,-2.2197,-2.2197,-2.2197,-2.2246,-2.2354,-2.3348,-2.4085,-2.4676,-2.5661,-2.6214,-2.6466,-2.7344,-2.7438,-2.7114,-2.8005,-2.7657,-2.6647,-2.7378,-2.7248,-2.6659,-2.744,-2.7789,-2.7813,-0.951,0.0,0.0,0.0,0.0,0.0,0.0,0.0,0.0,0.0,0.0,0.0,0.0,-1.2535,-1.2709,-1.2709,-1.2709,-1.2709,-1.2709,-1.2709,-1.2709,-1.2709,-1.2439,-1.2415,-1.268,-1.2174,-1.2162,0.0,0.0,0.0,0.0,0.0,0.0,0.0,0.0,0.0,0.0,0.0,-1.4422,-1.5871,-1.6102,0.0,-1.877,-2.0382,-2.0983,-2.1055,-2.1608,-2.1969,-2.1945,-2.035,-1.9808,0.0,0.0,-1.6054,-1.5289,0.0,-1.392,-1.3107,0.0,0.0,0.0,-1.336,0.0,0.0,0.0,-1.3481,-1.3535,0.0,0.0,0.0,0.0,0.0,0.0,0.0,0.0,0.0,0.0,0.0,0.0,0.0,0.0,0.0,0.0,-2.0358,-2.031,-2.0574,-2.1091,-2.1524,-2.1789,-2.2053,-2.2197,-2.2197,-2.2197,-2.2197,-2.2197,-2.2197,-2.2197,-2.2197,-2.2758,-2.3288,-2.3773,-2.4302,-2.4963,-2.5733,-2.6286,-2.6633,-2.6958,-2.775,-2.7488,-2.6598,-2.7404,-2.7392,-2.6935,-2.7186,-2.7294,-2.7246,-0.951,0.0,0.0,0.0,0.0,0.0,0.0,0.0,0.0,0.0,0.0,0.0,0.0,0.0,0.0,-1.3426,-1.3173,-1.3041,0.0,0.0,-1.2854,-1.2854,-1.277,-1.2709,-1.2709,-1.2709,-1.2709,0.0,0.0,0.0,0.0,0.0,0.0,0.0,0.0,0.0,0.0,0.0,0.0,-1.7159,0.0,-1.6667,-1.8181,-1.9684,-2.0398,-2.0735,-2.1801,-2.2125,-2.1885,-2.0928,0.0,-1.9965,-1.8133,-1.6955,0.0,0.0,0.0,0.0,0.0,0.0,0.0,0.0,0.0,-1.3071,0.0,0.0,0.0,0.0,0.0,0.0,0.0,0.0,0.0,0.0,0.0,0.0,0.0,0.0,0.0,0.0,0.0,0.0,0.0,-1.9504,-1.988,-2.041,-2.0839,-2.1139,-2.1247,-2.1656,-2.1933,-2.2041,-2.2041,-2.2089,-2.2197,-2.2197,-2.2197,-2.2197,-2.2197,-2.2474,-2.3011,-2.3011,-2.3676,-2.4879,-2.518,-2.5709,-2.6489,-2.7114,-2.7246,-2.7102,-2.763,-2.7642,-2.733,-2.7018,-2.6825,-2.6717,-0.951,-0.951,0.0,0.0,0.0,0.0,0.0,0.0,0.0,0.0,0.0,0.0,0.0,0.0,0.0,0.0,0.0,0.0,-1.4713,0.0,0.0,-1.3409,-1.2944,-1.2709,-1.2709,-1.2709,-1.2709,-1.2709,0.0,0.0,0.0,0.0,0.0,0.0,-1.2709,0.0,0.0,0.0,-1.522,0.0,-1.8049,-1.9215,0.0,-2.1488,-2.1386,-2.0735,-2.1801,-2.1897,-2.1404,0.0,-2.1205,-2.1476,0.0,-1.8037,-1.7531,0.0,0.0,0.0,0.0,0.0,0.0,0.0,-1.3855,0.0,0.0,0.0,0.0,0.0,0.0,0.0,0.0,0.0,0.0,0.0,0.0,0.0,0.0,0.0,0.0,0.0,0.0,0.0,0.0,0.0,-1.93,-1.9856,-1.9953,-2.0177,-2.0682,-2.0737,-2.1007,-2.1476,-2.1488,-2.1716,-2.2185,-2.2197,-2.2197,-2.2197,-2.2197,-2.2474,-2.3011,-2.3011,-2.3107,-2.336,-2.4711,-2.5107,-2.4832,-2.5865,-2.6815,-2.7642,-2.821,-2.7548,-2.6334,-2.6741,-2.6585,-2.6129,-1.0027,-0.9966,0.0,0.0,0.0,0.0,0.0,0.0,0.0,0.0,0.0,0.0,0.0,0.0,0.0,0.0,0.0,-1.6185,0.0,0.0,0.0,0.0,0.0,0.0,-1.4025,-1.3763,-1.3324,-1.2709,-1.3011,0.0,0.0,0.0,0.0,0.0,-1.3348,0.0,-1.4385,0.0,0.0,0.0,0.0,0.0,0.0,-2.1308,-2.1716,-2.1115,-2.1572,-2.1596,-2.1368,0.0,-2.1169,0.0,0.0,0.0,0.0,0.0,0.0,0.0,0.0,0.0,0.0,0.0,0.0,0.0,-1.3409,0.0,-1.3059,0.0,0.0,0.0,0.0,0.0,0.0,0.0,0.0,0.0,0.0,0.0,0.0,0.0,0.0,0.0,0.0,0.0,0.0,0.0,0.0,-1.8963,-1.9203,-2.0093,-2.0839,-2.1392,-2.1404,-2.1656,-2.2185,-2.2197,-2.2197,-2.2197,-2.2197,-2.2306,-2.2522,-2.2522,-2.2722,-2.3047,-2.3676,-2.4169,-2.4578,-2.5336,-2.6093,-2.6827,-2.7342,-2.7368,-2.7031,-2.6922,-2.6574,-2.6021,-1.0786,0.0,0.0,0.0,0.0,0.0,-1.2102,-1.2914,-1.3505,0.0,0.0,0.0,-1.7316,-1.7027,0.0,0.0,-1.9086,-1.8506,0.0,0.0,-1.6655,0.0,0.0,0.0,0.0,-1.4886,-1.4185,-1.3143,0.0,0.0,0.0,0.0,0.0,0.0,0.0,-1.4397,-1.5052,0.0,0.0,-1.8036,-1.9444,-1.9324,-1.8492,-2.0538,-2.1356,-2.1404,-2.1404,-2.15,-2.162,-2.162,-2.1356,0.0,-2.1151,0.0,0.0,0.0,0.0,0.0,-1.6859,0.0,0.0,0.0,0.0,0.0,0.0,0.0,0.0,0.0,0.0,0.0,0.0,0.0,0.0,0.0,0.0,0.0,0.0,0.0,0.0,0.0,0.0,0.0,0.0,0.0,0.0,-1.5921,-1.6822,-1.746,-1.776,-1.8999,-2.0153,-2.1163,-2.1175,-2.15,-2.2185,-2.2197,-2.2197,-2.2197,-2.2197,-2.2197,-2.2197,-2.2197,-2.2402,-2.2775,-2.2951,-2.34,-2.4133,-2.4675,-2.5192,-2.5721,-2.6237,-2.6873,-2.7426,-2.7042,-2.6633,-2.6274,-1.1752,-1.1439,0.0,0.0,0.0,0.0,-1.2613,-1.3143,-1.3505,0.0,0.0,0.0,0.0,0.0,0.0,0.0,0.0,-2.1272,-2.1272,0.0,-1.7604,0.0,0.0,-1.5766,0.0,0.0,0.0,0.0,0.0,0.0,0.0,0.0,0.0,0.0,0.0,-1.4642,-1.6571,-1.7159,-1.8888,-2.1211,-2.0767,-2.0533,-2.0406,0.0,-2.0057,-2.1404,-2.1404,0.0,0.0,-2.2161,-2.2149,0.0,0.0,0.0,0.0,0.0,0.0,0.0,0.0,0.0,0.0,-1.7363,0.0,0.0,0.0,0.0,-1.3336,0.0,0.0,0.0,0.0,0.0,0.0,0.0,0.0,0.0,0.0,0.0,0.0,0.0,0.0,0.0,0.0,0.0,0.0,-1.441,-1.4838,-1.5552,-1.6595,-1.7183,-1.8444,-2.0545,-2.0639,-2.1133,-2.2185,-2.2197,-2.2197,-2.2197,-2.2197,-2.2197,-2.2197,-2.2197,-2.2197,-2.2246,-2.2763,-2.3035,-2.3107,-2.3637,-2.4121,-2.4592,-2.5155,-2.6009,-2.6922,-2.691,-2.6885,-2.6861,0.0,0.0,0.0,0.0,0.0,0.0,-1.3216,-1.3987,0.0,0.0,0.0,0.0,0.0,-2.2929,-2.3524,0.0,0.0,-2.3851,-2.3851,-2.1885,0.0,0.0,0.0,-1.8468,0.0,0.0,0.0,0.0,0.0,0.0,0.0,0.0,0.0,0.0,0.0,-1.4992,0.0,0.0,0.0,0.0,0.0,-1.8806,-1.8566,0.0,0.0,-2.0887,-2.0887,-2.1223,0.0,-2.2077,-2.2197,-2.2125,-2.1777,-2.1175,-2.0473,-1.9961,-1.9408,0.0,0.0,0.0,-1.8987,-1.8987,0.0,0.0,0.0,0.0,0.0,0.0,0.0,0.0,0.0,0.0,0.0,0.0,0.0,0.0,0.0,0.0,0.0,0.0,0.0,0.0,0.0,0.0,0.0,-1.3204,-1.339,-1.4073,0.0,-1.6391,-1.7844,-1.9997,-2.0406,-2.0947,-2.1668,-2.2017,-2.2197,-2.2197,-2.2197,-2.2197,-2.2197,-2.2197,-2.2197,-2.2197,-2.2378,-2.2654,-2.3047,-2.3589,-2.3902,-2.4109,-2.4975,-2.5528,-2.5901,-2.625,-2.6839,-2.7366,-1.3397,0.0,0.0,0.0,0.0,0.0,0.0,0.0,0.0,0.0,-1.9452,0.0,-2.4661,0.0,-2.5728,0.0,-2.6806,-2.6093,-2.5699,-2.403,0.0,-2.3478,-2.188,0.0,0.0,0.0,0.0,0.0,0.0,-1.4739,0.0,0.0,0.0,0.0,0.0,0.0,0.0,0.0,-1.9215,0.0,0.0,-1.8157,0.0,0.0,-1.9672,-2.037,0.0,-2.1235,-2.174,-2.2077,-2.2197,-2.2197,-2.2197,-2.1728,-2.1175,-2.1175,-2.0682,-2.0286,-2.0983,-2.049,0.0,-2.0049,-1.847,0.0,-1.6018,0.0,0.0,0.0,0.0,0.0,0.0,0.0,0.0,0.0,0.0,0.0,0.0,-1.1849,0.0,0.0,0.0,0.0,0.0,0.0,-1.1219,-1.1548,-1.1921,-1.2908,0.0,0.0,-1.74,-1.9736,-2.0322,-2.0875,-2.1392,-2.1921,-2.2197,-2.2197,-2.2197,-2.2197,-2.2197,-2.2197,-2.2197,-2.2197,-2.2197,-2.239,-2.2751,-2.33,-2.3517,-2.3625,-2.4626,-2.5143,-2.5396,-2.6129,-2.6959,-2.763,0.0,0.0,0.0,0.0,-1.3577,0.0,0.0,0.0,-1.8129,0.0,-2.0468,-2.3368,-2.4638,-2.5611,-2.7062,-2.9245,-2.8717,0.0,-2.682,-2.5268,0.0,0.0,-2.2652,-2.1727,-2.1434,0.0,0.0,0.0,0.0,0.0,0.0,0.0,0.0,0.0,-1.4072,0.0,-1.596,-1.8025,-1.9528,-2.0461,-1.9468,-1.8758,-1.8277,-1.8313,-1.8939,-1.9989,-2.1019,-2.174,-2.2197,-2.2197,-2.2197,-2.2197,-2.2197,-2.2197,-2.2197,-2.2197,-2.2197,-2.2197,-2.2197,-2.1031,-1.9977,-2.0506,0.0,0.0,0.0,0.0,-1.7207,0.0,0.0,0.0,0.0,0.0,0.0,0.0,0.0,0.0,0.0,0.0,0.0,0.0,0.0,0.0,0.0,-1.1111,-1.0666,-0.9618,-1.0461,0.0,0.0,0.0,-1.6931,-1.9615,-2.0286,-2.0851,-2.1356,-2.1921,-2.2197,-2.2197,-2.2197,-2.2197,-2.2197,-2.2197,-2.2197,-2.2197,-2.2197,-2.2197,-2.2234,-2.2794,-2.2999,-2.3051,-2.4109,-2.482,-2.548,-2.6501,-2.7186,-2.757,-1.4517,-1.4505,-1.4437,0.0,-1.4614,-1.4682,0.0,0.0,0.0,0.0,-2.2427,-2.4912,-2.6972,-2.8186,-2.905,-2.9651,-2.8737,0.0,0.0,0.0,0.0,-2.4835,-2.4451,-2.3418,-2.1654,-2.0386,0.0,-1.7387,0.0,0.0,-1.5576,0.0,0.0,0.0,0.0,0.0,-1.6439,-1.6979,-1.8301,-2.0037,-2.0145,-1.9868,0.0,0.0,-2.0141,-2.049,-2.1163,-2.174,-2.2197,-2.2197,-2.2197,-2.2197,-2.2197,-2.2197,-2.2197,-2.2197,-2.2197,-2.2197,-2.2197,-2.132,-2.0526,-2.1055,-1.9287,-1.7495,0.0,0.0,0.0,0.0,0.0,0.0,0.0,0.0,0.0,0.0,0.0,0.0,0.0,0.0,0.0,-1.2053,0.0,0.0,-1.1692,-1.1327,-1.0822,-1.0147,-0.9978,0.0,0.0,0.0,0.0,-1.7953,-1.9684,-2.0658,-2.0815,-2.1728,-2.2197,-2.2197,-2.2197,-2.2197,-2.2197,-2.2197,-2.2197,-2.2197,-2.2197,-2.2197,-2.2234,-2.2794,-2.2782,-2.2534,-2.3965,-2.5083,-2.5973,-2.6633,-2.6465,-2.6045,-1.4905,0.0,0.0,-1.5432,0.0,0.0,-1.6984,0.0,0.0,-2.1696,-2.4345,0.0,-2.7306,-2.8825,-2.9792,-2.9792,-2.9113,0.0,-2.7853,0.0,0.0,-2.5148,-2.4811,-2.3924,-2.2378,-2.0964,0.0,-1.8097,0.0,0.0,-1.578,0.0,0.0,0.0,0.0,-1.5103,0.0,-1.7147,-1.8205,-1.9155,-1.9941,0.0,0.0,-2.0145,-2.0699,-2.1344,-2.1644,-2.1945,-2.2197,-2.2197,-2.2197,-2.2197,-2.2197,-2.2197,-2.2197,-2.2197,-2.2197,-2.2197,-2.2197,-2.1416,-2.0742,-2.1272,-1.9913,-1.853,-1.8819,-1.8614,-1.8276,0.0,0.0,0.0,0.0,0.0,0.0,0.0,0.0,0.0,0.0,0.0,0.0,0.0,-1.1628,0.0,-1.1548,-1.1283,-1.0882,-1.0339,0.0,0.0,0.0,0.0,0.0,-1.7315,-1.9239,-1.9901,-1.92,-2.1428,-2.2197,-2.1512,-2.1969,-2.2197,-2.2197,-2.2197,-2.2197,-2.2197,-2.2197,-2.2197,-2.2209,-2.2522,-2.2594,-2.2666,-2.4001,-2.5023,-2.5793,-2.6105,-2.5985,-2.5781,0.0,0.0,0.0,0.0,0.0,0.0,0.0,-2.0673,0.0,-2.2971,0.0,-2.7613,-2.6813,-2.8473,-2.9679,-2.9679,0.0,-2.8698,-2.7705,-2.741,-2.6612,-2.5139,-2.4405,-2.377,-2.3223,-2.1505,-2.0081,0.0,0.0,0.0,0.0,0.0,0.0,0.0,0.0,0.0,0.0,-1.7953,-1.8806,0.0,-1.9627,-2.0061,-2.0121,-2.0049,-2.0911,-2.2197,-2.2197,-2.2197,-2.2197,-2.2197,-2.2197,-2.2197,-2.2197,-2.2197,-2.2197,-2.2197,-2.2197,-2.2197,-2.2197,-2.1476,-2.0827,-2.1284,-2.0634,-1.9916,-1.9904,-2.0322,-2.0562,-2.0037,-1.9155,-1.8458,0.0,0.0,0.0,0.0,0.0,0.0,0.0,0.0,0.0,0.0,0.0,0.0,0.0,-1.1159,-1.0978,0.0,0.0,0.0,0.0,0.0,0.0,-1.6931,-1.8746,0.0,-1.7845,0.0,-2.2258,-2.1043,-2.1825,-2.2197,-2.2197,-2.2197,-2.2197,-2.2197,-2.2197,-2.2197,-2.2197,-2.2197,-2.251,-2.3107,-2.4049,-2.4747,-2.5216,-2.5288,-2.56,-2.6081,0.0,0.0,0.0,0.0,0.0,-1.9664,-2.3582,-2.3139,-2.2782,-2.3922,-2.6407,-2.7998,-2.7846,-2.8574,-2.9051,-2.9051,-2.8038,0.0,0.0,0.0,0.0,-2.4874,-2.4471,-2.3932,-2.3235,-2.1583,-2.0181,0.0,0.0,0.0,0.0,0.0,0.0,0.0,0.0,0.0,-1.7063,-1.8422,0.0,-2.0221,-2.0875,-2.138,-2.1728,-2.1284,-2.156,-2.2197,-2.2197,-2.2197,-2.2197,-2.2197,-2.2197,-2.2197,-2.2197,-2.2197,-2.2197,-2.2197,-2.2197,-2.2197,-2.2197,-2.174,-2.1284,-2.138,-2.0935,-2.0466,-2.047,-2.0863,-2.1115,-2.0586,-2.0322,-1.978,-1.8446,0.0,0.0,0.0,0.0,0.0,0.0,0.0,0.0,0.0,0.0,0.0,0.0,0.0,0.0,0.0,0.0,0.0,0.0,0.0,0.0,0.0,-1.7641,0.0,0.0,0.0,-2.263,-2.324,-2.2522,-2.2197,-2.2197,-2.2197,-2.2197,-2.2197,-2.2197,-2.2197,-2.2197,-2.2197,-2.251,-2.3071,-2.3697,-2.4206,-2.4676,-2.5155,-2.536,-2.5588,0.0,0.0,0.0,0.0,0.0,0.0,0.0,-2.4939,0.0,-2.6176,-2.7145,-2.7752,-2.7708,-2.8362,-2.8662,-2.8375,-2.7594,-2.6956,-2.6577,-2.6201,-2.5654,-2.484,-2.4305,0.0,-2.3223,-2.211,-2.0708,-1.8987,0.0,0.0,0.0,0.0,0.0,0.0,0.0,-1.6919,0.0,0.0,0.0,-2.0658,-2.1488,-2.1969,-2.2161,-2.1909,-2.1969,-2.2197,-2.2197,-2.2197,-2.2197,-2.2197,-2.2197,-2.2197,-2.2197,-2.2197,-2.2197,-2.2197,-2.2197,-2.2197,-2.2197,-2.1813,-2.1464,-2.174,-2.1211,-2.0682,-2.0947,-2.0995,-2.0839,-2.0298,-2.0189,-1.9684,-1.8085,-1.675,0.0,0.0,0.0,0.0,0.0,0.0,0.0,0.0,0.0,0.0,0.0,0.0,0.0,0.0,0.0,0.0,0.0,0.0,0.0,0.0,0.0,0.0,0.0,0.0,0.0,-2.1325,-2.1909,-2.2197,-2.2197,-2.2197,-2.2197,-2.2197,-2.2197,-2.2197,-2.2197,-2.2197,-2.2666,-2.3445,-2.3697,-2.4242,-2.4963,-2.5216,-2.5312,-2.542,0.0,-2.0567,0.0,0.0,-2.2134,0.0,-2.4445,-2.6209,-2.7644,-2.8238,-2.8027,-2.7817,-2.7701,-2.8126,-2.8251,-2.7792,-2.7213,-2.6688,-2.6262,-2.6046,-2.5587,-2.4784,-2.4138,-2.3586,-2.3171,-2.2525,-2.1247,0.0,0.0,0.0,0.0,0.0,0.0,0.0,0.0,0.0,0.0,0.0,-2.0735,-2.1012,-2.1849,-2.2197,-2.2197,-2.2197,-2.2197,-2.2197,-2.2197,-2.2197,-2.2197,-2.2197,-2.2197,-2.2197,-2.2197,-2.2197,-2.2197,-2.2197,-2.2197,-2.2197,-2.2197,-2.1885,-2.1668,-2.2089,-2.1572,-2.1055,-2.1476,-2.1163,-2.0634,-2.0069,-1.9808,-1.9227,-1.7977,-1.7664,0.0,0.0,0.0,0.0,0.0,0.0,0.0,0.0,0.0,0.0,0.0,0.0,0.0,0.0,0.0,0.0,0.0,0.0,0.0,0.0,0.0,-1.7291,-1.6499,0.0,-2.1675,-2.0049,-2.1488,-2.2197,-2.2197,-2.2197,-2.2197,-2.2197,-2.2197,-2.2197,-2.2197,-2.2197,-2.271,-2.3493,-2.371,-2.4266,-2.5011,-2.5228,-2.5312,-2.5372,0.0,0.0,0.0,0.0,0.0,0.0,0.0,-2.6761,-2.7664,-2.8848,-2.8983,-2.8959,-2.8948,-2.8161,-2.757,-2.752,-2.6431,-2.5739,-2.5691,-2.5502,-2.5119,-2.4542,-2.4071,-2.3553,-2.3023,-2.2493,-2.1638,0.0,0.0,0.0,0.0,0.0,0.0,0.0,0.0,0.0,0.0,-2.0526,-2.1163,-2.2053,-2.2149,-2.2197,-2.2197,-2.2197,-2.2197,-2.2197,-2.2197,-2.2197,-2.2197,-2.2197,-2.2197,-2.2197,-2.2197,-2.2197,-2.2197,-2.2197,-2.2197,-2.2197,-2.2197,-2.2149,-2.2125,-2.2173,-2.2113,-2.2053,-2.2101,-2.1716,-2.1175,-2.0646,-1.9756,-1.9023,-1.8867,-1.8458,-1.764,0.0,0.0,0.0,0.0,0.0,0.0,0.0,0.0,0.0,0.0,0.0,0.0,0.0,0.0,0.0,0.0,0.0,0.0,-1.4397,0.0,-1.6883,-1.8674,-2.0121,-2.1675,-2.3348,-2.2558,-2.2197,-2.2197,-2.2197,-2.2197,-2.2197,-2.2197,-2.2197,-2.2197,-2.2197,-2.2246,-2.2438,-2.3433,-2.3866,-2.4059,-2.4963,-2.5312,-2.5312,0.0,0.0,0.0,0.0,0.0,0.0,0.0,-2.7612,-2.8356,-2.8861,-2.8922,-2.8717,-2.8195,-2.7654,-2.7066,-2.6419,-2.5778,-2.5418,-2.5418,-2.5347,-2.5216,-2.4999,-2.4206,-2.3697,-2.3493,-2.263,-2.1668,0.0,0.0,0.0,0.0,0.0,0.0,0.0,0.0,-1.9808,-2.0634,-2.1284,-2.1813,-2.2197,-2.2197,-2.2197,-2.2197,-2.2197,-2.2197,-2.2197,-2.2197,-2.2197,-2.2197,-2.2197,-2.2197,-2.2197,-2.2197,-2.2197,-2.2197,-2.2197,-2.2197,-2.2197,-2.2197,-2.2197,-2.2197,-2.2197,-2.2197,-2.2197,-2.2197,-2.1789,-2.126,-2.0701,-1.9756,-1.8987,-1.8987,-1.8819,-1.847,0.0,0.0,0.0,0.0,0.0,0.0,0.0,0.0,0.0,0.0,0.0,0.0,0.0,0.0,0.0,0.0,0.0,0.0,-1.5175,0.0,-1.7471,-1.8975,-2.0061,-2.1036,-2.1873,-2.2089,-2.2197,-2.2197,-2.2197,-2.2197,-2.2197,-2.2197,-2.2197,-2.2197,-2.2197,-2.257,-2.3216,-2.3637,-2.4179,-2.4747,-2.5155,-2.5312,-2.5312,-2.6045,0.0,-2.5312,0.0,-2.6239,-2.6724,-2.7075,-2.8072,-2.8803,-2.8724,-2.8552,-2.8254,-2.7614,-2.7162,-2.6578,-2.5803,-2.5479,-2.5312,-2.5312,-2.5312,-2.5312,-2.5312,-2.4458,0.0,-2.4023,-2.3144,-2.2294,-2.1548,-2.0466,0.0,0.0,0.0,0.0,0.0,-2.0579,-2.1012,-2.1349,-2.1964,-2.2197,-2.2197,-2.2197,-2.2197,-2.2197,-2.2197,-2.2197,-2.2197,-2.2197,-2.2197,-2.2197,-2.2197,-2.2197,-2.2197,-2.2197,-2.2197,-2.2197,-2.2197,-2.2197,-2.2197,-2.2197,-2.2197,-2.2197,-2.2197,-2.2197,-2.2197,-2.2197,-2.1789,-2.1218,-2.062,-1.9662,-1.8994,-1.9111,-1.9162,-1.9018,-1.8602,0.0,0.0,0.0,0.0,0.0,0.0,-1.56,-1.5626,-1.5277,0.0,0.0,0.0,0.0,0.0,0.0,0.0,0.0,0.0,0.0,0.0,0.0,-1.9676,-2.0458,-2.1091,-2.1837,-2.2197,-2.2197,-2.2197,-2.2197,-2.2197,-2.2197,-2.2197,-2.2197,-2.2197,-2.2758,-2.3589,-2.3746,-2.4302,-2.5095,-2.5252,-2.5312,-2.5312,-2.827,-2.7582,-2.6873,-2.6873,-2.7049,-2.7124,-2.6923,-2.7968,-2.8724,-2.855,-2.8053,-2.7729,-2.7717,-2.6755,-2.6105,-2.6093,-2.5612,-2.5312,-2.5312,-2.5312,-2.5312,0.0,0.0,-2.4472,-2.4472,-2.4013,-2.3782,-2.3758,0.0,0.0,-2.2125,0.0,-2.1139,-2.2125,-2.162,-2.1969,-2.2951,-2.2402,-2.2197,-2.2197,-2.2197,-2.2197,-2.2197,-2.2197,-2.2197,-2.2197,-2.2197,-2.2197,-2.2197,-2.2197,-2.2197,-2.2197,-2.2197,-2.2197,-2.2197,-2.2197,-2.2197,-2.2197,-2.2197,-2.2197,-2.2197,-2.2197,-2.2197,-2.2197,-2.2197,-2.1789,-2.1188,-2.0468,-1.9511,-1.8952,-1.9412,-1.9559,-1.9114,-1.7663,0.0,0.0,0.0,0.0,0.0,0.0,-1.5135,-1.5726,-1.578,0.0,0.0,0.0,0.0,0.0,0.0,0.0,0.0,-1.4965,-1.4582,0.0,-1.8181,-1.8746,-2.0069,-2.2173,-2.2185,-2.2197,-2.2197,-2.2197,-2.2197,-2.2197,-2.2197,-2.2197,-2.2197,-2.2197,-2.251,-2.3071,-2.3601,-2.4073,-2.4556,-2.5119,-2.5312,-2.5312,-2.8306,-2.8246,-2.8005,-2.8005,-2.8044,-2.8071,-2.8005,-2.8321,-2.8578,-2.851,-2.7702,-2.715,-2.715,-2.6538,-2.5949,0.0,-2.5408,-2.5312,0.0,-2.5312,-2.5312,-2.5312,-2.4807,-2.4484,-2.4484,-2.4025,-2.3806,-2.3806,0.0,0.0,0.0,-2.2582,-2.2975,-2.3288,-2.3119,-2.324,-2.3517,-2.2955,-2.2758,-2.2702,-2.2342,-2.2197,-2.2197,-2.2197,-2.2197,-2.2197,-2.2197,-2.2197,-2.2197,-2.2197,-2.2197,-2.2197,-2.2197,-2.2197,-2.2197,-2.2197,-2.2197,-2.2197,-2.2197,-2.2197,-2.2197,-2.2197,-2.2197,-2.2197,-2.2197,-2.1685,-2.1164,-2.1075,-2.003,-1.9251,-1.9638,-1.924,-1.8622,-1.7928,-1.867,0.0,0.0,0.0,0.0,0.0,-1.5681,-1.5932,0.0,-1.5766,0.0,0.0,0.0,0.0,0.0,0.0,0.0,0.0,-1.7761,0.0,-2.037,-2.0205,-2.0808,-2.2197,-2.2197,-2.2197,-2.2197,-2.2197,-2.239,-2.2746,-2.2354,-2.2402,-2.2702,-2.2342,-2.2746,-2.3565,-2.3734,-2.4302,-2.5083,-2.5252,-2.5312,-2.5312,-2.8378,-2.851,-2.851,-2.851,-2.851,-2.851,-2.851,-2.851,-2.851,-2.851,-2.7546,-2.6898,-2.6898,-2.6262,0.0,-2.5336,-2.5312,-2.5312,-2.5312,-2.5312,-2.5312,-2.5312,-2.4987,-2.4784,-2.4784,-2.4506,0.0,-2.435,-2.3688,-2.3364,-2.3376,-2.4037,-2.435,-2.4338,-2.4145,-2.4049,-2.4013,-2.328,-2.3011,-2.2963,-2.2402,-2.2197,-2.2197,-2.2197,-2.2197,-2.2197,-2.2197,-2.2197,-2.2197,-2.2197,-2.2197,-2.2197,-2.2197,-2.2197,-2.2197,-2.2197,-2.2197,-2.2197,-2.2197,-2.2197,-2.2197,-2.2197,-2.2197,-2.2185,-2.2092,-2.1582,-2.1139,-2.1084,-2.0143,-1.9369,-1.9505,-1.8943,-1.8374,-1.8257,-1.8804,-1.8718,-1.7331,0.0,0.0,0.0,0.0,0.0,0.0,-1.6539,-1.6361,0.0,0.0,0.0,0.0,0.0,0.0,-1.7881,-1.8734,0.0,-2.1079,-2.0754,-2.1127,-2.2197,-2.239,-2.2486,-2.2498,-2.2702,-2.2859,-2.2999,-2.2879,-2.2751,-2.2678,-2.2578,-2.2991,-2.3806,-2.3806,-2.4398,-2.5276,-2.5241,-2.5276,-2.5276,-2.851,-2.851,0.0,0.0,-2.851,0.0,-2.851,-2.851,-2.8498,-2.8462,-2.7522,-2.6885,-2.6837,-2.5937,-2.5312,-2.5312,0.0,0.0,0.0,-2.5312,-2.5312,-2.5312,-2.5312,-2.5312,-2.5312,-2.5312,-2.5312,-2.5312,-2.5312,-2.5312,-2.5312,-2.5312,-2.5312,-2.5288,-2.4795,-2.452,-2.4424,-2.346,-2.3047,-2.2963,-2.2402,-2.2197,-2.2197,-2.2197,-2.2197,-2.2197,-2.2197,-2.2197,-2.2197,-2.2197,-2.2197,-2.2197,-2.2197,-2.2197,-2.2197,-2.2197,-2.2197,-2.2197,-2.2197,-2.2197,-2.2197,-2.2197,-2.2154,-2.2061,-2.1894,-2.1452,-2.0984,-2.063,-1.9885,-1.9295,-1.9183,-1.8721,-1.8402,-1.862,-1.861,-1.8222,-1.7173,0.0,0.0,0.0,0.0,0.0,0.0,-1.7174,-1.72,0.0,0.0,0.0,0.0,0.0,-1.7099,-1.7616,-1.8181,-1.9191,-2.0699,-2.0706,-2.1223,-2.2197,-2.2727,-2.3011,-2.3035,-2.3601,-2.3589,-2.3144,-2.3601,-2.3264,-2.239,-2.2811,-2.3348,-2.3854,-2.3854,-2.4434,-2.5276,-2.5147,-2.5182,-2.5206,0.0,0.0,-2.851,-2.851,-2.851,-2.851,-2.851,-2.851,-2.8366,-2.7957,-2.7294,-2.6729,-2.6334,-2.5709,-2.5312,-2.5312,-2.5312,-2.5312,-2.5312,-2.5312,-2.5312,-2.5312,-2.5312,-2.5312,-2.5312,-2.5312,-2.5312,-2.5312,-2.5312,-2.5312,-2.5312,-2.5312,-2.5312,-2.53,-2.518,-2.4891,-2.4448,-2.3845,-2.3384,-2.2963,-2.2402,-2.2197,-2.2197,-2.2197,-2.2197,-2.2197,-2.2197,-2.2197,-2.2197,-2.2197,-2.2197,-2.2197,-2.2197,-2.2197,-2.2197,-2.2197,-2.2197,-2.2197,-2.2197,-2.2197,-2.2197,-2.2197,-2.1694,-2.1219,-2.1262,-2.0619,-1.9975,-1.9987,-1.9749,-1.9564,-1.9607,-1.9163,-1.8832,-1.9102,-1.8818,-1.8234,-1.7209,-1.7355,0.0,0.0,-1.6671,-1.7136,-1.7979,-1.8181,-1.7956,0.0,0.0,0.0,0.0,-1.8205,-1.9547,-1.9844,-2.0754,-2.1428,-2.1801,-2.1813,-2.1945,-2.2197,-2.2727,-2.3011,-2.3047,-2.3929,-2.4278,-2.4145,-2.3914,-2.3845,-2.3917,-2.3256,-2.352,-2.4338,-2.4338,-2.4677,-2.5147,-2.5111,-2.5016,-2.4921,-2.851,-2.851,-2.851,-2.851,-2.851,-2.851,-2.851,-2.8306,-2.8041,-2.7726,-2.7222,-2.6681,-2.6154,-2.5841,-2.5576,-2.5336,-2.5312,-2.5312,-2.5312,-2.5312,-2.5312,-2.5312,-2.5312,-2.5312,-2.5312,-2.5312,-2.5312,-2.5312,-2.5312,-2.5312,-2.5312,-2.5312,-2.5312,-2.5312,-2.5312,-2.5155,-2.4843,-2.4326,-2.3821,-2.3324,-2.2763,-2.2402,-2.2197,-2.2197,-2.2197,-2.2197,-2.2197,-2.2197,-2.2154,-2.18,-2.1925,-2.2123,-2.1788,-2.1925,-2.2197,-2.2197,-2.2197,-2.2197,-2.2197,-2.2123,-2.1999,-2.1675,-2.1083,-2.0505,-2.0441,-2.0042,-1.9574,-1.9145,-1.9332,-1.9435,-1.8839,-1.8612,-1.8523,-1.8611,-1.7911,-1.7258,-1.6915,-1.6958,0.0,-1.635,-1.696,-1.7504,-1.7813,-1.8538,-1.8755,-1.8227,-1.8713,0.0,-1.7985,-1.9299,-1.9953,-1.9686,-2.1218,-2.203,-2.198,-2.203,-2.2061,-2.2073,-2.2695,-2.3199,-2.3625,-2.4484,-2.4809,-2.4787,-2.482,-2.4544,-2.401,-2.3787,-2.398,-2.4427,-2.4427,-2.4658,-2.4957,-2.4849,-2.4814,-2.4754,-2.851,-2.851,-2.851,-2.851,-2.851,-2.851,-2.851,-2.8086,-2.7774,-2.769,-2.7222,-2.6681,-2.6154,-2.6021,-2.5793,-2.5348,-2.5312,-2.5312,-2.5312,-2.5312,-2.5312,-2.5312,-2.5312,-2.5312,-2.5312,-2.5312,-2.5312,-2.5312,-2.5312,-2.5312,-2.5312,-2.5312,-2.5312,-2.5312,-2.5312,-2.5264,-2.5155,-2.4676,-2.423,-2.3758,-2.3228,-2.2746,-2.2306,-2.2221,-2.2197,-2.2197,-2.2197,-2.2197,-2.2092,-2.1494,-2.1694,-2.2061,-2.1325,-2.16,-2.2154,-2.1925,-2.1925,-2.1987,-2.1987,-2.18,-2.1431,-2.0892,-2.0291,-1.977,-1.9497,-1.941,-1.9145,-1.824,-1.8767,-1.9008,-1.781,-1.7872,-1.7999,-1.7748,-1.6758,-1.6093,-1.6257,0.0,-1.64,-1.5639,-1.6897,-1.7645,-1.7188,-1.8312,-1.9112,-1.9307,-1.9109,-1.936,-2.022,-2.0057,-1.9539,-1.8674,-2.0778,-2.1906,-2.1761,-2.1874,-2.1968,-2.1937,-2.2663,-2.3418,-2.4206,-2.493,-2.5182,-2.5076,-2.566,-2.5051,-2.3722,-2.4203,-2.4406,-2.4398,-2.4398,-2.4531,-2.4718,-2.4574,-2.461,-2.4646,-2.851,-2.851,-2.851,-2.851,-2.851,-2.851,-2.851,-2.8438,-2.8222,-2.7777,-2.7222,-2.6681,-2.6154,-2.5697,-2.5396,-2.5312,-2.5312,-2.5312,-2.5312,-2.5312,-2.5312,-2.5312,-2.5312,-2.5312,-2.5312,-2.5312,-2.5312,-2.5312,-2.5312,-2.5312,-2.5312,-2.5312,-2.5312,-2.5312,-2.5312,-2.5059,-2.4604,-2.4554,-2.423,-2.3758,-2.3228,-2.2963,-2.2843,-2.2366,-2.2197,-2.2197,-2.2197,-2.2197,-2.2185,-2.2061,-2.2092,-2.2061,-2.1325,-2.16,-2.1925,-2.0558,-2.0623,-2.1092,-2.1092,-2.0623,-2.0096,-1.9998,-1.9354,-1.8734,-1.8667,-1.8138,-1.7569,-1.7398,-1.7901,-1.8321,-1.7982,-1.8237,-1.8251,-1.7514,-1.6961,-1.6217,-1.4915,0.0,-1.5771,-1.5024,-1.5917,-1.6686,-1.6917,-1.7256,-1.7862,-1.8833,-1.8955,-1.8936,-1.8756,-1.9825,-2.0,-1.8889,-2.1009,-2.2123,-2.2135,-2.2123,-2.2154,-2.2166,-2.2727,-2.3227,-2.3649,-2.467,-2.5016,-2.4861,-2.4944,-2.4838,-2.4555,-2.4201,-2.4319,-2.4708,-2.4708,-2.4647,-2.4526,-2.449,-2.4418,-2.4273,-2.851,-2.851,-2.851,-2.851,-2.851,-2.851,-2.851,-2.827,-2.7993,-2.7714,-2.7222,-2.6681,-2.6154,-2.5877,-2.5612,-2.5336,-2.5312,-2.5312,-2.5312,-2.5312,-2.5312,-2.5312,-2.5312,-2.5087,-2.4671,-2.4636,-2.4636,-2.4636,-2.4636,-2.4898,-2.5312,-2.5312,-2.5312,-2.5312,-2.5312,-2.5168,-2.4939,-2.4939,-2.465,-2.4124,-2.3469,-2.303,-2.276,-2.2526,-2.2159,-2.1882,-2.2448,-2.2363,-2.1999,-2.1694,-2.16,-2.1494,-2.0773,-2.073,-2.0762,-2.002,-2.0031,-2.0257,-2.0074,-1.965,-1.9212,-1.899,-1.8442,-1.792,-1.7808,-1.7501,-1.7166,-1.7072,-1.7604,-1.7935,-1.7501,-1.7724,-1.775,-1.7122,-1.6729,0.0,0.0,-1.5589,-1.5823,-1.477,-1.5804,-1.6643,-1.6737,-1.7421,-1.807,-1.8602,-1.9047,-1.9366,-1.9579,-2.0247,-2.0656,-2.0772,-2.1346,-2.2009,-2.2725,-2.2104,-2.2194,-2.3011,-2.2767,-2.329,-2.4484,-2.4791,-2.5003,-2.5091,-2.5164,-2.5012,-2.4622,-2.4484,-2.4495,-2.4646,-2.4646,-2.4538,-2.4345,-2.4345,-2.4273,-2.42,-2.851,-2.851,-2.851,-2.851,-2.851,-2.851,-2.851,-2.8162,-2.7909,-2.7909,-2.7402,-2.6922,-2.6526,-2.637,-2.6081,-2.554,-2.5492,-2.5361,-2.5052,-2.5016,-2.5016,-2.5016,-2.4874,-2.4492,-2.3866,-2.4,-2.4108,-2.4108,-2.4301,-2.4707,-2.5312,-2.5312,-2.5312,-2.5312,-2.5312,-2.5312,-2.5276,-2.5087,-2.4778,-2.4329,-2.3431,-2.2946,-2.2777,-2.2582,-2.2262,-2.1926,-2.2536,-2.2384,-2.1764,-2.1042,-2.0873,-2.0823,-1.9998,-1.9716,-1.9661,-1.9344,-1.9278,-1.9222,-1.8934,-1.8667,-1.8365,-1.8037,-1.7681,-1.7392,-1.7176,-1.7141,-1.7107,-1.6943,-1.7339,-1.7569,-1.7003,-1.7135,-1.7179,-1.6628,0.0,0.0,0.0,-1.568,-1.5821,-1.4898,-1.5861,-1.6594,-1.653,-1.7409,-1.8114,-1.8346,-1.8871,-1.9475,-2.0204,-2.0236,-2.0849,-2.2186,-2.1872,-2.2143,-2.3203,-2.2274,-2.2418,-2.3572,-2.2903,-2.3418,-2.4922,-2.4646,-2.4751,-2.5045,-2.5193,-2.4935,-2.4454,-2.461,-2.4574,-2.4418,-2.4418,-2.4345,-2.4177,-2.4062,-2.4016,-2.4005,-2.851,-2.851,-2.851,-2.851,-2.851,-2.851,-2.851,-2.8474,-2.845,-2.845,-2.7993,-2.7618,-2.7609,-2.7126,-2.6647,-2.6093,-2.6045,-2.5527,-2.4263,-2.4192,-2.4192,-2.4192,-2.3537,-2.3132,-2.3058,-2.3745,-2.4108,-2.4108,-2.4862,-2.5229,-2.5312,-2.5312,-2.5312,-2.5312,-2.5312,-2.5312,-2.5229,-2.448,-2.4169,-2.4016,-2.2592,-2.2537,-2.3258,-2.2571,-2.2575,-2.2806,-2.2187,-2.1903,-2.1603,-2.0314,-2.0193,-2.0318,-1.9034,-1.9023,-1.9278,-1.8022,-1.7666,-1.7666,-1.7632,-1.7486,-1.7304,-1.727,-1.7235,-1.7176,-1.6978,-1.6908,-1.6908,-1.6908,-1.6934,-1.6968,-1.6908,-1.7067,-1.6889,-1.5946,0.0,0.0,-1.5168,-1.5158,-1.5308,-1.5586,-1.5734,-1.5938,-1.6296,-1.6427,-1.6887,-1.7958,-1.8075,-1.8398,-1.9067,-1.911,-1.9887,-2.16,-2.2559,-2.3099,-2.3203,-2.3099,-2.311,-2.3228,-2.3191,-2.3394,-2.3816,-2.3769,-2.3954,-2.4294,-2.4294,-2.4271,-2.4225,-2.4236,-2.4236,-2.4236,-2.4236,-2.42,-2.4143,-2.3637,-2.3465,-2.3396,-2.851,-2.851,-2.851,-2.851,-2.851,-2.851,-2.851,-2.851,-2.851,-2.851,-2.8014,-2.7678,-2.7678,-2.6739,-2.5882,-2.5407,-2.4852,-2.4224,-2.346,-2.3427,-2.361,-2.4072,-2.4312,-2.4204,-2.3683,-2.3963,-2.3902,-2.3427,-2.372,-2.3866,-2.3866,-2.3866,-2.3866,-2.3866,-2.3866,-2.3866,-2.3829,-2.3379,-2.3268,-2.3342,-2.2529,-2.2279,-2.2446,-2.2695,-2.2064,-2.1083,-2.1531,-2.1095,-2.0194,-1.9889,-1.9625,-1.9352,-1.8952,-1.8543,-1.8148,-1.7486,-1.722,-1.7151,-1.7279,-1.7279,-1.7166,-1.7038,-1.7003,-1.7003,-1.6908,-1.6908,-1.6908,-1.6908,-1.6908,-1.6908,-1.6908,-1.6943,-1.683,-1.6309,0.0,-1.6876,-1.5747,-1.6116,-1.6421,-1.6103,-1.6074,-1.6239,-1.6642,-1.6679,-1.7042,-1.7915,-1.8003,-1.8499,-1.9639,-2.0708,-2.162,-2.2275,-2.3282,-2.3827,-2.3827,-2.319,-2.3352,-2.4231,-2.3618,-2.371,-2.4422,-2.4159,-2.4089,-2.42,-2.42,-2.42,-2.42,-2.42,-2.42,-2.42,-2.42,-2.42,-2.4177,-2.3982,-2.3913,-2.3879,-2.8139,-2.8299,-2.8431,-2.8139,-2.8311,-2.851,-2.851,-2.851,-2.8391,-2.8139,-2.7779,-2.7435,-2.7147,-2.613,-2.5266,-2.4774,-2.4061,-2.3319,-2.2692,-2.2622,-2.2947,-2.3708,-2.4276,-2.4192,-2.3415,-2.3647,-2.3379,-2.2622,-2.2883,-2.2995,-2.2995,-2.2995,-2.2995,-2.2995,-2.2995,-2.2995,-2.2957,-2.2526,-2.2574,-2.2846,-2.2088,-2.1774,-2.1834,-2.2193,-2.136,-2.0046,-2.0656,-2.0165,-1.9241,-1.9197,-1.887,-1.8482,-1.8506,-1.8018,-1.7358,-1.7176,-1.7038,-1.7003,-1.7107,-1.7107,-1.7063,-1.6943,-1.6908,-1.6908,-1.6908,-1.6908,-1.6908,-1.6908,-1.6908,-1.6908,-1.6908,-1.6908,-1.6853,-1.6675,-1.7188,-1.7307,-1.6341,-1.6819,-1.7049,-1.6539,-1.6505,-1.6606,-1.6881,-1.6908,-1.7107,-1.7638,-1.7638,-1.807,-1.9034,-2.0696,-2.1746,-2.1988,-2.3185,-2.3934,-2.42,-2.35,-2.3672,-2.4682,-2.3969,-2.4003,-2.4682,-2.4349,-2.42,-2.42,-2.42,-2.42,-2.42,-2.42,-2.42,-2.42,-2.42,-2.42,-2.4177,-2.4016,-2.3959,-2.3913,-2.7348,-2.7886,-2.8219,-2.7348,-2.7926,-2.851,-2.851,-2.851,-2.8179,-2.7307,-2.7174,-2.6846,-2.5902,-2.5445,-2.4975,-2.4454,-2.3979,-2.3134,-2.1863,-2.1794,-2.2172,-2.2957,-2.2995,-2.2622,-2.1832,-2.2585,-2.2622,-2.1794,-2.2585,-2.2995,-2.2995,-2.2995,-2.2995,-2.2995,-2.2995,-2.2995,-2.292,-2.2134,-2.2145,-2.2537,-2.1019,-2.0946,-2.1688,-2.0973,-2.0533,-2.0188,-1.9524,-1.9188,-1.8944,-1.8102,-1.78,-1.7764,-1.7567,-1.7352,-1.7166,-1.6968,-1.7038,-1.7132,-1.6934,-1.6908,-1.6908,-1.6908,-1.6908,-1.6908,-1.6908,-1.6908,-1.6908,-1.6908,-1.6908,-1.6908,-1.6908,-1.6908,-1.6908,-1.6908,-1.6908,-1.6908,-1.6908,-1.6908,-1.6908,-1.6908,-1.6908,-1.6908,-1.6908,-1.6908,-1.6908,-1.6908,-1.6908,-1.6908,-1.6908,-1.8433,-1.9663,-2.0465,-2.2138,-2.3361,-2.4189,-2.42,-2.42,-2.4189,-2.42,-2.42,-2.4189,-2.42,-2.42,-2.42,-2.42,-2.42,-2.42,-2.4189,-2.4189,-2.4189,-2.4189,-2.4189,-2.4131,-2.3591,-2.3407,-2.327,-2.6412,-2.6969,-2.751,-2.7267,-2.7926,-2.851,-2.851,-2.7966,-2.747,-2.7226,-2.6629,-2.6121,-2.5819,-2.4867,-2.403,-2.3617,-2.2559,-2.1648,-2.1002,-2.1499,-2.1907,-2.2134,-2.2697,-2.2883,-2.266,-2.2883,-2.2622,-2.1794,-2.2021,-2.1869,-2.1318,-2.1318,-2.1318,-2.1318,-2.1318,-2.1242,-2.1088,-2.0663,-2.0419,-2.0287,-2.0129,-1.9893,-1.965,-2.0069,-1.9508,-1.8539,-1.8527,-1.811,-1.7552,-1.7423,-1.7397,-1.7353,-1.7318,-1.7269,-1.7166,-1.6968,-1.6934,-1.6968,-1.6908,-1.6908,-1.6908,-1.6908,-1.6908,-1.6908,-1.6908,-1.6908,-1.6908,-1.6908,-1.6908,-1.6908,-1.6908,-1.6908,-1.6908,-1.6908,-1.6908,-1.6908,-1.6908,-1.6908,-1.6908,-1.6908,-1.6908,-1.6908,-1.6908,-1.6908,-1.7107,-1.7638,-1.8104,-1.8504,-1.8769,-1.9353,-2.0018,-2.0775,-2.1964,-2.2922,-2.3625,-2.4016,-2.4016,-2.3637,-2.4028,-2.4005,-2.3637,-2.4039,-2.42,-2.42,-2.42,-2.42,-2.4166,-2.3774,-2.3637,-2.3602,-2.327,-2.3351,-2.3568,-2.3098,-2.3098,-2.3316,-2.5913,-2.6547,-2.7092,-2.6712,-2.7389,-2.7846,-2.7499,-2.6839,-2.6334,-2.6152,-2.5458,-2.4881,-2.4546,-2.3617,-2.2889,-2.2443,-2.1451,-2.0701,-2.0352,-2.0867,-2.1203,-2.1203,-2.1756,-2.2209,-2.251,-2.2547,-2.2134,-2.1318,-2.1318,-2.1088,-2.0605,-2.0605,-2.0605,-2.0605,-2.0527,-2.0411,-2.0255,-1.9849,-1.9669,-1.9667,-1.9568,-1.9192,-1.8749,-1.9087,-1.8488,-1.7469,-1.7802,-1.7461,-1.6954,-1.7417,-1.7443,-1.7276,-1.7119,-1.7072,-1.7072,-1.6943,-1.6908,-1.6908,-1.6908,-1.6908,-1.6908,-1.6908,-1.6908,-1.6908,-1.6908,-1.6908,-1.6908,-1.6908,-1.6908,-1.6908,-1.6908,-1.6908,-1.6908,-1.6908,-1.6908,-1.6908,-1.6908,-1.6908,-1.6908,-1.6908,-1.6908,-1.6908,-1.6908,-1.6908,-1.7072,-1.7535,-1.7935,-1.8291,-1.8513,-1.876,-1.9233,-2.0025,-2.0919,-2.1912,-2.2996,-2.3253,-2.3408,-2.3419,-2.3959,-2.3936,-2.343,-2.3971,-2.42,-2.42,-2.42,-2.42,-2.4154,-2.3614,-2.3407,-2.3361,-2.288,-2.2868,-2.311,-2.2788,-2.288,-2.3064,-2.5568,-2.6287,-2.667,-2.5819,-2.6431,-2.6737,-2.5889,-2.5352,-2.4904,-2.445,-2.3959,-2.3346,-2.2494,-2.2038,-2.1629,-2.1189,-2.0633,-2.0186,-1.9981,-2.0186,-2.0303,-2.0303,-2.0489,-2.0895,-2.1614,-2.168,-2.1308,-2.0605,-2.0605,-2.0605,-2.0605,-2.0605,-2.0605,-2.0605,-2.0381,-2.0303,-2.0235,-1.9544,-1.9563,-1.9925,-1.9098,-1.8674,-1.8481,-1.8056,-1.7467,-1.6963,-1.7358,-1.7266,-1.7073,-1.7816,-1.7789,-1.7376,-1.7018,-1.6908,-1.6908,-1.6908,-1.6908,-1.6908,-1.6908,-1.6908,-1.6908,-1.6908,-1.6908,-1.6908,-1.6908,-1.6908,-1.6908,-1.6908,-1.6908,-1.6908,-1.6908,-1.6908,-1.6908,-1.6908,-1.6908,-1.6908,-1.6908,-1.6908,-1.6908,-1.6908,-1.6908,-1.6908,-1.6908,-1.6936,-1.6972,-1.7009,-1.7018,-1.7018,-1.7018,-1.7358,-1.7881,-1.8658,-1.9431,-2.0632,-2.23,-2.2218,-2.2573,-2.3419,-2.3856,-2.3844,-2.343,-2.3925,-2.4154,-2.42,-2.42,-2.4166,-2.4097,-2.3545,-2.3316,-2.3224,-2.2742,-2.2604,-2.2604,-2.2592,-2.2604,-2.2536,-2.381,-2.4445,-2.5041,-2.4829,-2.5234,-2.5569,-2.5355,-2.4653,-2.396,-2.3545,-2.3089,-2.249,-2.1803,-2.1356,-2.0995,-2.0747,-2.0475,-2.0342,-2.045,-2.0489,-2.045,-2.0303,-2.0342,-2.0333,-2.0323,-2.0673,-2.0789,-2.0605,-2.0605,-2.0605,-2.0605,-2.0605,-2.0605,-2.0605,-2.0381,-2.0186,-1.9952,-1.9343,-1.8873,-1.8499,-1.8023,-1.7586,-1.7262,-1.7178,-1.7038,-1.6963,-1.7358,-1.744,-1.7394,-1.7568,-1.7367,-1.7018,-1.6936,-1.6908,-1.6908,-1.6908,-1.6908,-1.6908,-1.6908,-1.6908,-1.6908,-1.6908,-1.6908,-1.6908,-1.6908,-1.6908,-1.6908,-1.6908,-1.6908,-1.6908,-1.6908,-1.6908,-1.6908,-1.6908,-1.6908,-1.6908,-1.6908,-1.6908,-1.6908,-1.6908,-1.6908,-1.6908,-1.6908,-1.7183,-1.7504,-1.7834,-1.7825,-1.7825,-1.7825,-1.7898,-1.8163,-1.8607,-1.9157,-2.0149,-2.1666,-2.1737,-2.2286,-2.3407,-2.3144,-2.3167,-2.3407,-2.3522,-2.3786,-2.42,-2.42,-2.3971,-2.3533,-2.3052,-2.2616,-2.2169,-2.1719,-2.1732,-2.2042,-2.1673,-2.1743,-2.2019,-2.3464,-2.3854,-2.4188,-2.4188,-2.4189,-2.4095,-2.3649,-2.2826,-2.2267,-2.2247,-2.1865,-2.1476,-2.1113,-2.0893,-2.0571,-2.0172,-2.0114,-2.0059,-1.9971,-2.0059,-2.0069,-1.9951,-1.9878,-1.9869,-1.9902,-1.9946,-2.0053,-2.0255,-2.0372,-2.0459,-2.045,-2.0566,-2.0566,-2.045,-2.0014,-1.9687,-1.9408,-1.8601,-1.8082,-1.7789,-1.7385,-1.7092,-1.6927,-1.711,-1.7183,-1.7238,-1.7651,-1.7798,-1.7761,-1.7559,-1.7358,-1.7156,-1.6963,-1.6908,-1.6908,-1.6908,-1.6908,-1.6908,-1.6908,-1.6908,-1.6908,-1.6908,-1.6908,-1.6908,-1.6908,-1.6908,-1.6963,-1.7147,-1.7037,-1.6963,-1.7156,-1.7037,-1.6908,-1.6908,-1.7064,-1.7119,-1.6936,-1.7064,-1.7119,-1.6927,-1.6908,-1.7064,-1.7449,-1.8018,-1.8366,-1.8365,-1.8191,-1.8091,-1.8091,-1.7935,-1.7999,-1.8343,-1.8615,-1.9294,-2.0435,-2.0569,-2.129,-2.253,-2.2662,-2.2823,-2.3087,-2.3087,-2.3488,-2.4189,-2.3936,-2.3648,-2.3361,-2.2891,-2.2375,-2.1848,-2.1397,-2.1362,-2.1537,-2.1293,-2.1362,-2.1525,-2.3454,-2.3541,-2.3541,-2.3541,-2.3225,-2.2692,-2.1997,-2.1214,-2.0816,-2.1164,-2.0866,-2.0628,-2.0472,-2.0422,-2.017,-1.9634,-1.9754,-1.9706,-1.942,-1.9557,-1.9608,-1.9494,-1.9323,-1.9344,-1.9607,-1.9249,-1.9344,-1.9902,-2.0108,-2.0225,-2.0225,-2.0343,-2.0304,-2.01,-1.9449,-1.9061,-1.8853,-1.7916,-1.7495,-1.7468,-1.7138,-1.6963,-1.6963,-1.7422,-1.7559,-1.7559,-1.8045,-1.8191,-1.8118,-1.766,-1.7495,-1.7422,-1.7027,-1.6908,-1.6908,-1.6908,-1.6908,-1.6908,-1.6908,-1.6908,-1.6908,-1.6908,-1.6908,-1.6927,-1.6991,-1.7009,-1.7119,-1.7523,-1.7284,-1.7128,-1.7532,-1.7275,-1.7027,-1.7101,-1.7385,-1.7486,-1.7165,-1.7394,-1.7486,-1.7156,-1.711,-1.7403,-1.8118,-1.8815,-1.9091,-1.8834,-1.8513,-1.8228,-1.8091,-1.7862,-1.7798,-1.7972,-1.8018,-1.8368,-1.9177,-1.9264,-1.9951,-2.1159,-2.1788,-2.2298,-2.2719,-2.2719,-2.3144,-2.3913,-2.3453,-2.3235,-2.3109,-2.2719,-2.2249,-2.1755,-2.1362,-2.119,-2.119,-2.119,-2.119,-2.119,-2.2564,-2.2608,-2.2608,-2.2608,-2.2265,-2.1997,-2.2135,-2.1545,-2.1116,-2.1196,-2.1009,-2.0625,-2.0065,-1.9662,-1.9524,-1.9606,-1.9636,-1.9676,-1.9824,-1.9824,-1.9625,-1.9105,-1.9078,-1.8834,-1.8368,-1.8303,-1.8796,-1.9902,-1.9942,-1.9942,-1.9942,-1.962,-1.9449,-1.9402,-1.8789,-1.8527,-1.8453,-1.7769,-1.7495,-1.7495,-1.744,-1.7211,-1.6991,-1.7715,-1.7816,-1.7596,-1.8357,-1.8632,-1.8513,-1.7752,-1.7495,-1.7422,-1.7027,-1.6908,-1.6908,-1.6908,-1.6908,-1.6908,-1.6908,-1.6908,-1.6908,-1.6908,-1.6908,-1.7,-1.7339,-1.7413,-1.7532,-1.7954,-1.7706,-1.7541,-1.7926,-1.7697,-1.7532,-1.7862,-1.7962,-1.7981,-1.7963,-1.7962,-1.7981,-1.7926,-1.7926,-1.8137,-1.8586,-1.8733,-1.8907,-1.9201,-1.9173,-1.8843,-1.8127,-1.8394,-1.8247,-1.7596,-1.7578,-1.7937,-1.8685,-1.8375,-1.8586,-1.9364,-1.9465,-2.0629,-2.2719,-2.2719,-2.2788,-2.2914,-2.2811,-2.2536,-2.21,-2.202,-2.1732,-2.1293,-2.1224,-2.119,-2.119,-2.119,-2.119,-2.119,-2.2043,-2.1998,-2.1998,-2.1998,-2.1699,-2.1345,-2.1259,-2.0824,-2.0404,-2.0153,-2.0057,-1.9893,-1.9606,-1.9508,-1.9478,-1.9429,-1.9557,-1.9504,-1.9262,-1.9243,-1.9028,-1.8507,-1.8267,-1.8128,-1.8091,-1.7889,-1.8138,-1.888,-1.9023,-1.9061,-1.9051,-1.8986,-1.9024,-1.9098,-1.8387,-1.8128,-1.8193,-1.7476,-1.7293,-1.7495,-1.7495,-1.7532,-1.7651,-1.8191,-1.8339,-1.8256,-1.8834,-1.8898,-1.866,-1.8293,-1.8027,-1.777,-1.7367,-1.7082,-1.6908,-1.6908,-1.6908,-1.6908,-1.6908,-1.7064,-1.7238,-1.7238,-1.7413,-1.7688,-1.8091,-1.8174,-1.8229,-1.8412,-1.8128,-1.7972,-1.8375,-1.8119,-1.7908,-1.8054,-1.8274,-1.8375,-1.8118,-1.8274,-1.8449,-1.8449,-1.8813,-1.9253,-1.9687,-1.9916,-2.0035,-1.998,-1.9558,-1.9146,-1.8797,-1.8742,-1.865,-1.8513,-1.8293,-1.8212,-1.8318,-1.8318,-1.8385,-1.8442,-1.9336,-2.0344,-2.1411,-2.1105,-2.129,-2.186,-2.1542,-2.1402,-2.1341,-2.1341,-2.1149,-2.0903,-2.1094,-2.119,-2.119,-2.119,-2.119,-2.119]}]]